[[{"header":{"parameterUnit":"m.s-1","parameterCategory":1,"la1":31.0,"la2":29.5877,"lo1":-88.7671,"lo2":-86.6584,"dy":0.0162,"dx":0.0185,"nx":115,"ny":88,"refTime":"2023-09-06T18:00:00:Z","depth":0,"parameterNumber":2,"parameterNumberName":"U-component_of_WINDS"},"data":[0.0,0.0,0.0,0.0,0.0,0.0,0.0,0.0,0.0,0.0,0.0,0.0,0.0,0.0,0.0,0.0,0.0,0.0,0.0,0.0,0.0,0.0,0.0,0.0,0.0,0.0,0.0,0.0,0.0,0.0,0.0,0.0,0.0,0.0,0.0,0.0,0.0,0.0,0.0,0.0,0.0,0.0,0.0,0.0,0.0,0.0,0.0,0.0,0.0,0.0,0.0,0.0,0.0,0.0,0.0,0.0,0.0,0.0,0.0,0.0,0.0,0.0,0.0,0.0,0.0,0.0,0.0,0.0,0.0,0.0,0.0,0.0,0.0,0.0,0.0,0.0,0.0,0.0,0.0,0.0,0.0,0.0,0.0,0.0,0.0,0.0,0.0,0.0,0.0,0.0,0.0,0.0,0.0,0.0,0.0,0.0,0.0,0.0,0.0,0.0,0.0,0.0,0.0,0.0,0.0,0.0,0.0,0.0,0.0,0.0,0.0,0.0,0.0,0.0,0.0,0.0,0.0,0.0,0.0,0.0,0.0,0.0,0.0,0.0,0.0,0.0,0.0,0.0,0.0,0.0,0.0,0.0,0.0,0.0,0.0,0.0,0.0,0.0,0.0,0.0,0.0,0.0,0.0,0.0,0.0,0.0,0.0,0.0,0.0,0.0,0.0,0.0,0.0,0.0,0.0,0.0,0.0,0.0,0.0,0.0,0.0,0.0,0.0,0.0,0.0,0.0,0.0,0.0,0.0,0.0,0.0,0.0,0.0,0.0,0.0,0.0,0.0,0.0,0.0,0.0,0.0,0.0,0.0,0.0,0.0,0.0,0.0,0.0,0.0,0.0,0.0,0.0,0.0,0.0,0.0,0.0,0.0,0.0,0.0,0.0,0.0,0.0,0.0,0.0,0.0,0.0,0.0,0.0,0.0,0.0,0.0,0.0,0.0,0.0,0.0,0.0,0.0,0.0,0.0,0.0,0.0,0.0,0.0,0.0,0.0,0.0,0.0,0.0,0.0,0.0,0.0,0.0,0.0,0.0,0.0,0.0,0.0,0.0,0.0,0.0,0.0,0.0,0.0,0.0,0.0,0.0,0.0,0.0,0.0,0.0,0.0,0.0,0.0,0.0,0.0,0.0,0.0,0.0,0.0,0.0,0.0,0.0,0.0,0.0,0.0,0.0,0.0,0.0,0.0,0.0,0.0,0.0,0.0,0.0,0.0,0.0,0.0,0.0,0.0,0.0,0.0,0.0,0.0,0.0,0.0,0.0,0.0,0.0,0.0,0.0,0.0,0.0,0.0,0.0,0.0,0.0,0.0,0.0,0.0,0.0,0.0,0.0,0.0,0.0,0.0,0.0,0.0,0.0,0.0,0.0,0.0,0.0,0.0,0.0,0.0,0.0,0.0,0.0,0.0,0.0,0.0,0.0,0.0,0.0,0.0,0.0,0.0,0.0,0.0,0.0,0.0,0.0,0.0,0.0,0.0,0.0,0.0,0.0,0.0,0.0,0.0,0.0,0.0,0.0,0.0,0.0,0.0,0.0,0.0,0.0,0.0,0.0,0.0,0.0,0.0,0.0,0.0,0.0,0.0,0.0,0.0,0.0,0.0,0.0,0.0,0.0,0.0,0.0,0.0,0.0,0.0,0.0,0.0,0.0,0.0,0.0,0.0,0.0,0.0,0.0,0.0,0.0,0.0,0.0,0.0,0.0,0.0,0.0,0.0,0.0,0.0,0.0,0.0,0.0,0.0,0.0,0.0,0.0,0.0,0.0,0.0,0.0,0.0,0.0,0.0,0.0,0.0,0.0,0.0,0.0,0.0,0.0,0.0,0.0,0.0,0.0,0.0,0.0,0.0,0.0,0.0,0.0,0.0,0.0,0.0,0.0,0.0,0.0,0.0,0.0,0.0,0.0,0.0,0.0,0.0,0.0,0.0,0.0,0.0,0.0,0.0,0.0,0.0,0.0,0.0,0.0,0.0,0.0,0.0,0.0,0.0,0.0,0.0,0.0,0.0,0.0,0.0,0.0,0.0,0.0,0.0,0.0,0.0,0.0,0.0,0.0,0.0,0.0,0.0,0.0,0.0,0.0,0.0,0.0,0.0,0.0,0.0,0.0,0.0,0.0,0.0,0.0,0.0,0.0,0.0,0.0,0.0,0.0,0.0,0.0,0.0,0.0,0.0,0.0,0.0,0.0,0.0,0.0,0.0,0.0,0.0,0.0,0.0,0.0,0.0,0.0,0.0,0.0,0.0,0.0,0.0,0.0,0.0,0.0,0.0,0.0,0.0,0.0,0.0,0.0,0.0,0.0,0.0,0.0,0.0,0.0,0.0,0.0,0.0,0.0,0.0,0.0,0.0,0.0,0.0,0.0,0.0,0.0,0.0,0.0,0.0,0.0,0.0,0.0,0.0,0.0,0.0,0.0,0.0,0.0,0.0,0.0,0.0,0.0,0.0,0.0,0.0,0.0,0.0,0.0,0.0,0.0,0.0,0.0,0.0,0.0,0.0,0.0,0.0,0.0,0.0,0.0,0.0,0.0,0.0,0.0,0.0,0.0,0.0,0.0,0.0,0.0,0.0,0.0,0.0,0.0,0.0,0.0,0.0,0.0,0.0,0.0,0.0,0.0,0.0,0.0,0.0,0.0,0.0,0.0,0.0,0.0,0.0,0.0,0.0,0.0,0.0,0.0,0.0,0.0,0.0,0.0,0.0,0.0,0.0,0.0,0.0,0.0,0.0,0.0,0.0,0.0,0.0,0.0,0.0,0.0,0.0,0.0,0.0,0.0,0.0,0.0,0.0,0.0,0.0,0.0,0.0,0.0,0.0,0.0,0.0,0.0,0.0,0.0,0.0,0.0,0.0,0.0,0.0,0.0,0.0,0.0,0.0,0.0,0.0,0.0,0.0,0.0,0.0,0.0,0.0,0.0,0.0,0.0,0.0,0.0,0.0,0.0,0.0,0.0,0.0,0.0,0.0,0.0,0.0,0.0,0.0,0.0,0.0,0.0,0.0,0.0,0.0,0.0,0.0,0.0,0.0,0.0,0.0,0.0,0.0,0.0,0.0,0.0,0.0,0.0,0.0,0.0,0.0,0.0,0.0,0.0,0.0,0.0,0.0,0.0,0.0,0.0,0.0,0.0,0.0,0.0,0.0,0.0,0.0,0.0,0.0,0.0,0.0,0.0,0.0,0.0,0.0,0.0,0.0,0.0,0.0,0.0,0.0,0.0,0.0,0.0,0.0,0.0,0.0,0.0,0.0,0.0,0.0,0.0,0.0,0.0,0.0,0.0,0.0,0.0,0.0,0.0,0.0,0.0,0.0,0.0,0.0,0.0,0.0,0.0,0.0,0.0,0.0,0.0,0.0,0.0,0.0,0.0,0.0,0.0,0.0,0.0,0.0,0.0,0.0,0.0,0.0,0.0,0.0,0.0,0.0,0.0,0.0,0.0,0.0,0.0,0.0,0.0,0.0,0.0,0.0,0.0,0.0,0.0,0.0,0.0,0.0,0.0,0.0,0.0,0.0,0.0,0.0,0.0,0.0,0.0,0.0,0.0,0.0,0.0,0.0,0.0,0.0,0.0,0.0,0.0,0.0,0.0,0.0,0.0,0.0,0.0,0.0,0.0,0.0,0.0,0.0,0.0,0.0,0.0,0.0,0.0,0.0,0.0,0.0,0.0,0.0,0.0,0.0,0.0,0.0,0.0,0.0,0.0,0.0,0.0,0.0,0.0,0.0,0.0,0.0,0.0,0.0,0.0,0.0,0.0,0.0,0.0,0.0,0.0,0.0,0.0,0.0,0.0,0.0,0.0,0.0,0.0,0.0,0.0,0.0,0.0,0.0,0.0,0.0,0.0,0.0,0.0,0.0,0.0,0.0,0.0,0.0,0.0,0.0,0.0,0.0,0.0,0.0,0.0,0.0,0.0,0.0,0.0,0.0,0.0,0.0,0.0,0.0,0.0,0.0,0.0,0.0,0.0,0.0,0.0,0.0,0.0,0.0,0.0,0.0,0.0,0.0,0.0,0.0,0.0,0.0,0.0,0.0,0.0,0.0,0.0,0.0,0.0,0.0,0.0,0.0,0.0,0.0,0.0,0.0,0.0,0.0,0.0,0.0,0.0,0.0,0.0,0.0,0.0,0.0,0.0,0.0,0.0,0.0,0.0,0.0,0.0,0.0,0.0,0.0,0.0,0.0,0.0,0.0,0.0,0.0,0.0,0.0,0.0,0.0,0.0,0.0,0.0,0.0,0.0,0.0,0.0,0.0,0.0,-3.4216,0.0,0.0,0.0,0.0,0.0,0.0,0.0,0.0,0.0,0.0,0.0,0.0,0.0,0.0,0.0,0.0,0.0,0.0,0.0,0.0,0.0,0.0,0.0,0.0,0.0,0.0,0.0,0.0,0.0,0.0,0.0,0.0,0.0,0.0,0.0,0.0,0.0,0.0,0.0,0.0,0.0,0.0,0.0,0.0,0.0,0.0,0.0,0.0,0.0,0.0,0.0,0.0,0.0,0.0,0.0,0.0,0.0,0.0,0.0,0.0,0.0,0.0,0.0,0.0,0.0,0.0,0.0,0.0,0.0,0.0,0.0,0.0,0.0,0.0,0.0,0.0,0.0,0.0,0.0,0.0,0.0,0.0,0.0,0.0,0.0,0.0,0.0,0.0,0.0,0.0,0.0,0.0,0.0,0.0,0.0,0.0,0.0,0.0,0.0,0.0,0.0,0.0,0.0,0.0,0.0,0.0,0.0,0.0,0.0,0.0,-3.616,-3.6142,-3.5343,-3.468,-3.4234,0.0,0.0,0.0,0.0,0.0,0.0,0.0,0.0,0.0,0.0,0.0,0.0,0.0,0.0,0.0,0.0,0.0,0.0,0.0,0.0,0.0,0.0,0.0,0.0,0.0,0.0,0.0,0.0,0.0,0.0,0.0,0.0,0.0,0.0,0.0,0.0,0.0,0.0,0.0,0.0,0.0,0.0,0.0,0.0,0.0,0.0,0.0,0.0,0.0,0.0,0.0,0.0,0.0,0.0,0.0,0.0,0.0,0.0,0.0,0.0,0.0,0.0,0.0,0.0,0.0,0.0,0.0,0.0,0.0,0.0,0.0,0.0,0.0,0.0,0.0,0.0,0.0,0.0,0.0,0.0,0.0,0.0,0.0,0.0,0.0,0.0,0.0,0.0,0.0,0.0,0.0,0.0,0.0,0.0,0.0,0.0,0.0,0.0,0.0,0.0,0.0,0.0,0.0,0.0,0.0,0.0,0.0,0.0,0.0,0.0,0.0,0.0,-3.5937,-3.5083,-3.4253,0.0,0.0,0.0,0.0,0.0,0.0,0.0,0.0,0.0,0.0,0.0,0.0,0.0,0.0,0.0,0.0,0.0,0.0,0.0,0.0,0.0,0.0,0.0,0.0,0.0,0.0,0.0,0.0,0.0,0.0,0.0,0.0,0.0,0.0,0.0,0.0,0.0,0.0,0.0,0.0,0.0,0.0,0.0,0.0,0.0,0.0,0.0,0.0,0.0,0.0,0.0,0.0,0.0,0.0,0.0,0.0,0.0,0.0,0.0,0.0,0.0,0.0,0.0,0.0,0.0,0.0,0.0,0.0,0.0,0.0,0.0,0.0,0.0,0.0,0.0,0.0,0.0,0.0,0.0,0.0,0.0,0.0,0.0,0.0,0.0,0.0,0.0,0.0,0.0,0.0,0.0,0.0,0.0,0.0,0.0,0.0,0.0,0.0,0.0,0.0,0.0,0.0,0.0,0.0,0.0,0.0,0.0,0.0,0.0,0.0,-3.7429,-3.6705,-3.5919,0.0,-3.429,0.0,0.0,0.0,0.0,0.0,0.0,0.0,0.0,0.0,0.0,0.0,0.0,0.0,0.0,0.0,0.0,0.0,0.0,0.0,0.0,0.0,0.0,0.0,0.0,0.0,0.0,0.0,0.0,0.0,0.0,0.0,0.0,0.0,0.0,0.0,0.0,0.0,0.0,0.0,0.0,0.0,0.0,0.0,0.0,0.0,0.0,0.0,0.0,0.0,0.0,0.0,0.0,0.0,0.0,0.0,0.0,0.0,0.0,0.0,0.0,0.0,0.0,0.0,0.0,0.0,0.0,0.0,0.0,0.0,0.0,0.0,0.0,0.0,0.0,0.0,0.0,0.0,0.0,0.0,0.0,0.0,0.0,0.0,0.0,0.0,0.0,0.0,0.0,0.0,0.0,0.0,0.0,0.0,0.0,0.0,0.0,0.0,0.0,0.0,0.0,0.0,0.0,0.0,0.0,0.0,0.0,0.0,0.0,0.0,0.0,-3.8228,-3.7429,-3.6179,-3.5089,0.0,0.0,0.0,0.0,0.0,0.0,0.0,0.0,0.0,0.0,0.0,0.0,0.0,0.0,0.0,0.0,0.0,0.0,0.0,0.0,0.0,0.0,0.0,0.0,0.0,0.0,0.0,0.0,0.0,0.0,0.0,0.0,0.0,0.0,0.0,0.0,0.0,0.0,0.0,0.0,0.0,0.0,0.0,0.0,0.0,0.0,0.0,0.0,0.0,0.0,0.0,0.0,0.0,0.0,0.0,0.0,0.0,0.0,0.0,0.0,0.0,0.0,0.0,0.0,0.0,0.0,0.0,0.0,0.0,0.0,0.0,0.0,0.0,0.0,0.0,0.0,0.0,0.0,0.0,0.0,0.0,0.0,0.0,0.0,0.0,0.0,0.0,0.0,0.0,0.0,0.0,0.0,0.0,0.0,0.0,0.0,0.0,0.0,0.0,0.0,0.0,0.0,0.0,0.0,0.0,0.0,0.0,0.0,0.0,0.0,-3.8284,-3.8711,-3.7894,-3.6346,-3.5213,-3.4581,0.0,0.0,0.0,0.0,0.0,0.0,0.0,0.0,0.0,0.0,0.0,0.0,0.0,0.0,0.0,0.0,0.0,0.0,0.0,0.0,0.0,0.0,0.0,0.0,0.0,0.0,0.0,0.0,0.0,0.0,0.0,0.0,0.0,0.0,0.0,0.0,0.0,0.0,0.0,0.0,0.0,0.0,0.0,0.0,0.0,0.0,0.0,0.0,0.0,0.0,0.0,0.0,0.0,0.0,0.0,0.0,0.0,0.0,0.0,0.0,0.0,0.0,0.0,0.0,0.0,0.0,0.0,0.0,0.0,0.0,0.0,0.0,0.0,0.0,0.0,0.0,0.0,0.0,0.0,0.0,0.0,0.0,0.0,0.0,0.0,0.0,0.0,0.0,0.0,0.0,0.0,0.0,0.0,0.0,0.0,0.0,0.0,0.0,0.0,0.0,0.0,0.0,0.0,0.0,0.0,0.0,0.0,0.0,-3.6773,-3.8284,-3.8711,-3.7912,-3.6333,-3.5491,0.0,0.0,0.0,0.0,0.0,0.0,0.0,0.0,0.0,0.0,0.0,0.0,0.0,0.0,0.0,0.0,0.0,0.0,0.0,0.0,0.0,0.0,0.0,0.0,0.0,0.0,0.0,0.0,0.0,0.0,0.0,0.0,0.0,0.0,0.0,0.0,0.0,0.0,0.0,0.0,0.0,0.0,0.0,0.0,0.0,0.0,0.0,0.0,0.0,0.0,0.0,0.0,0.0,0.0,0.0,0.0,0.0,0.0,0.0,0.0,0.0,0.0,0.0,0.0,0.0,0.0,0.0,0.0,0.0,0.0,0.0,0.0,0.0,0.0,0.0,0.0,0.0,0.0,0.0,0.0,0.0,0.0,0.0,0.0,0.0,0.0,0.0,0.0,0.0,0.0,0.0,0.0,0.0,0.0,0.0,0.0,0.0,0.0,0.0,0.0,0.0,0.0,0.0,0.0,0.0,0.0,0.0,0.0,0.0,-3.7485,-3.8525,-3.8711,-3.7894,-3.6848,-3.603,0.0,0.0,0.0,0.0,0.0,0.0,0.0,0.0,0.0,0.0,0.0,0.0,0.0,0.0,0.0,0.0,0.0,0.0,0.0,0.0,0.0,0.0,0.0,0.0,0.0,0.0,0.0,0.0,0.0,0.0,0.0,0.0,0.0,0.0,0.0,0.0,0.0,0.0,0.0,0.0,0.0,0.0,0.0,0.0,0.0,0.0,0.0,0.0,0.0,0.0,0.0,0.0,0.0,0.0,0.0,0.0,0.0,0.0,0.0,0.0,0.0,0.0,0.0,0.0,0.0,0.0,0.0,0.0,0.0,0.0,0.0,0.0,0.0,0.0,0.0,0.0,0.0,0.0,0.0,0.0,0.0,0.0,0.0,0.0,0.0,0.0,0.0,0.0,0.0,0.0,0.0,0.0,0.0,0.0,0.0,0.0,0.0,0.0,0.0,0.0,0.0,0.0,0.0,0.0,0.0,0.0,0.0,0.0,0.0,-3.8265,0.0,-3.8841,-3.8302,-3.7517,-3.6723,0.0,0.0,0.0,0.0,0.0,0.0,0.0,0.0,0.0,0.0,0.0,0.0,0.0,0.0,0.0,0.0,0.0,0.0,0.0,0.0,0.0,0.0,0.0,0.0,0.0,0.0,0.0,0.0,0.0,0.0,0.0,0.0,0.0,0.0,0.0,0.0,0.0,0.0,0.0,0.0,0.0,0.0,0.0,0.0,0.0,0.0,0.0,0.0,0.0,0.0,0.0,0.0,0.0,0.0,0.0,0.0,0.0,0.0,0.0,0.0,0.0,0.0,0.0,0.0,0.0,0.0,0.0,0.0,0.0,0.0,0.0,0.0,0.0,0.0,0.0,0.0,0.0,0.0,0.0,0.0,0.0,0.0,0.0,0.0,0.0,0.0,0.0,0.0,0.0,0.0,0.0,0.0,0.0,0.0,0.0,0.0,0.0,0.0,0.0,0.0,0.0,0.0,0.0,0.0,0.0,0.0,0.0,0.0,-3.7503,-3.9008,-3.9082,-3.9082,-3.9064,-3.8284,-3.7458,0.0,0.0,0.0,0.0,0.0,0.0,0.0,0.0,0.0,0.0,0.0,0.0,0.0,0.0,0.0,0.0,0.0,0.0,0.0,0.0,0.0,0.0,0.0,0.0,0.0,0.0,0.0,0.0,0.0,0.0,0.0,0.0,0.0,0.0,0.0,0.0,0.0,0.0,0.0,0.0,0.0,0.0,0.0,0.0,0.0,0.0,0.0,0.0,0.0,0.0,0.0,0.0,0.0,0.0,0.0,0.0,0.0,0.0,0.0,0.0,0.0,0.0,0.0,0.0,0.0,0.0,0.0,0.0,0.0,0.0,0.0,0.0,0.0,0.0,0.0,0.0,0.0,0.0,0.0,0.0,0.0,0.0,0.0,0.0,0.0,0.0,0.0,0.0,0.0,0.0,0.0,0.0,0.0,0.0,0.0,0.0,0.0,0.0,0.0,0.0,0.0,0.0,0.0,0.0,0.0,0.0,0.0,0.0,0.0,-3.9064,-3.9101,-3.9101,-3.9082,-3.8321,-3.7495,0.0,0.0,0.0,0.0,0.0,0.0,0.0,0.0,0.0,0.0,0.0,0.0,0.0,0.0,0.0,0.0,0.0,0.0,0.0,0.0,0.0,0.0,0.0,0.0,0.0,0.0,0.0,0.0,0.0,0.0,0.0,0.0,0.0,0.0,0.0,0.0,0.0,0.0,0.0,0.0,0.0,0.0,0.0,0.0,0.0,0.0,0.0,0.0,0.0,0.0,0.0,0.0,0.0,0.0,0.0,0.0,0.0,0.0,0.0,0.0,0.0,0.0,0.0,0.0,0.0,0.0,0.0,0.0,0.0,0.0,0.0,0.0,0.0,0.0,0.0,0.0,0.0,0.0,0.0,0.0,0.0,0.0,0.0,0.0,0.0,0.0,0.0,0.0,0.0,0.0,0.0,0.0,0.0,0.0,0.0,0.0,0.0,0.0,0.0,0.0,0.0,0.0,0.0,0.0,0.0,0.0,0.0,0.0,0.0,-3.9101,-3.9101,-3.9101,-3.9101,-3.8591,-3.7905,-3.704,0.0,0.0,0.0,0.0,0.0,0.0,0.0,0.0,0.0,0.0,0.0,0.0,0.0,0.0,0.0,0.0,0.0,0.0,0.0,0.0,0.0,0.0,0.0,0.0,0.0,0.0,0.0,0.0,0.0,0.0,0.0,0.0,0.0,0.0,0.0,0.0,0.0,0.0,0.0,0.0,0.0,0.0,0.0,0.0,0.0,0.0,0.0,0.0,0.0,0.0,0.0,0.0,0.0,0.0,0.0,0.0,0.0,0.0,0.0,0.0,0.0,0.0,0.0,0.0,0.0,0.0,0.0,0.0,0.0,0.0,0.0,0.0,0.0,0.0,0.0,0.0,0.0,0.0,0.0,0.0,0.0,0.0,0.0,0.0,0.0,0.0,0.0,0.0,0.0,0.0,0.0,0.0,0.0,0.0,0.0,0.0,0.0,0.0,0.0,0.0,0.0,0.0,0.0,0.0,0.0,0.0,0.0,0.0,-3.9087,-3.9087,-3.9087,-3.9101,-3.9036,-3.8561,0.0,0.0,0.0,0.0,0.0,0.0,0.0,0.0,0.0,0.0,0.0,0.0,0.0,0.0,0.0,0.0,0.0,0.0,0.0,0.0,0.0,0.0,0.0,0.0,0.0,0.0,0.0,0.0,0.0,0.0,0.0,0.0,0.0,0.0,0.0,0.0,0.0,0.0,0.0,0.0,0.0,0.0,0.0,0.0,0.0,0.0,0.0,0.0,0.0,0.0,0.0,0.0,0.0,0.0,0.0,0.0,0.0,0.0,0.0,0.0,0.0,0.0,0.0,0.0,0.0,0.0,0.0,0.0,0.0,0.0,0.0,0.0,0.0,0.0,0.0,0.0,0.0,0.0,0.0,0.0,0.0,0.0,0.0,0.0,0.0,0.0,0.0,0.0,0.0,0.0,0.0,0.0,0.0,0.0,0.0,0.0,0.0,0.0,0.0,0.0,0.0,0.0,0.0,0.0,0.0,0.0,0.0,0.0,0.0,-3.895,-3.895,-3.8979,-3.9003,-3.8964,-3.8522,0.0,0.0,0.0,0.0,0.0,0.0,0.0,0.0,0.0,0.0,0.0,0.0,0.0,0.0,0.0,0.0,0.0,0.0,0.0,0.0,0.0,0.0,0.0,0.0,0.0,0.0,0.0,0.0,0.0,0.0,0.0,0.0,0.0,0.0,0.0,0.0,0.0,0.0,0.0,0.0,0.0,0.0,0.0,0.0,0.0,0.0,0.0,0.0,0.0,0.0,0.0,0.0,0.0,0.0,0.0,0.0,0.0,0.0,0.0,0.0,0.0,0.0,0.0,0.0,0.0,0.0,0.0,0.0,0.0,0.0,0.0,0.0,0.0,0.0,0.0,0.0,0.0,0.0,0.0,0.0,0.0,0.0,0.0,0.0,0.0,0.0,0.0,0.0,0.0,0.0,0.0,0.0,0.0,0.0,0.0,0.0,0.0,0.0,0.0,0.0,0.0,0.0,0.0,0.0,0.0,0.0,0.0,0.0,-3.891,-3.891,-3.8881,-3.8881,-3.8906,-3.8881,-3.863,0.0,0.0,0.0,0.0,0.0,0.0,0.0,0.0,0.0,0.0,0.0,0.0,0.0,0.0,0.0,0.0,0.0,0.0,0.0,0.0,0.0,0.0,0.0,0.0,0.0,0.0,0.0,0.0,0.0,0.0,0.0,0.0,0.0,0.0,0.0,0.0,0.0,0.0,0.0,0.0,0.0,0.0,0.0,0.0,0.0,0.0,0.0,0.0,0.0,0.0,0.0,0.0,0.0,0.0,0.0,0.0,0.0,0.0,0.0,0.0,0.0,0.0,0.0,0.0,0.0,0.0,0.0,0.0,0.0,0.0,0.0,0.0,0.0,0.0,0.0,0.0,0.0,0.0,0.0,0.0,0.0,0.0,0.0,0.0,0.0,0.0,0.0,0.0,0.0,0.0,0.0,0.0,0.0,0.0,0.0,0.0,0.0,0.0,0.0,0.0,0.0,0.0,0.0,0.0,0.0,0.0,0.0,0.0,-3.8881,-3.8881,-3.8803,-3.8792,-3.8792,-3.8792,-3.8792,0.0,0.0,0.0,0.0,0.0,0.0,0.0,0.0,0.0,0.0,0.0,0.0,0.0,0.0,0.0,0.0,0.0,0.0,0.0,0.0,0.0,0.0,0.0,0.0,0.0,0.0,0.0,0.0,0.0,0.0,0.0,0.0,0.0,0.0,0.0,0.0,0.0,0.0,0.0,0.0,0.0,0.0,0.0,0.0,0.0,0.0,0.0,0.0,0.0,0.0,0.0,0.0,0.0,0.0,0.0,0.0,0.0,0.0,0.0,0.0,0.0,0.0,0.0,0.0,0.0,0.0,0.0,0.0,0.0,0.0,0.0,0.0,0.0,0.0,0.0,0.0,0.0,0.0,0.0,0.0,0.0,0.0,0.0,0.0,0.0,0.0,0.0,0.0,0.0,0.0,0.0,0.0,0.0,0.0,0.0,0.0,0.0,0.0,0.0,0.0,0.0,0.0,0.0,0.0,0.0,0.0,0.0,0.0,-3.8735,-3.8735,-3.8719,-3.8738,-3.8738,-3.8738,-3.8738,0.0,0.0,0.0,0.0,0.0,0.0,0.0,0.0,0.0,0.0,0.0,0.0,0.0,0.0,0.0,0.0,0.0,0.0,0.0,0.0,0.0,0.0,0.0,0.0,0.0,0.0,0.0,0.0,0.0,0.0,0.0,0.0,0.0,0.0,0.0,0.0,0.0,0.0,0.0,0.0,0.0,0.0,0.0,0.0,0.0,0.0,0.0,0.0,-3.2574,0.0,0.0,0.0,0.0,0.0,0.0,0.0,0.0,0.0,0.0,0.0,0.0,0.0,0.0,0.0,0.0,0.0,0.0,0.0,0.0,0.0,0.0,0.0,0.0,0.0,0.0,0.0,0.0,0.0,0.0,0.0,0.0,0.0,0.0,0.0,0.0,0.0,0.0,0.0,0.0,0.0,0.0,0.0,0.0,0.0,0.0,0.0,0.0,0.0,0.0,0.0,0.0,0.0,0.0,0.0,0.0,0.0,0.0,0.0,-3.8707,-3.8707,-3.8707,-3.8707,-3.8707,-3.8707,-3.8707,0.0,0.0,0.0,0.0,0.0,0.0,0.0,0.0,0.0,0.0,0.0,0.0,0.0,0.0,0.0,0.0,0.0,0.0,0.0,0.0,0.0,0.0,0.0,0.0,0.0,0.0,0.0,0.0,0.0,0.0,0.0,0.0,0.0,0.0,0.0,0.0,0.0,0.0,0.0,0.0,0.0,0.0,0.0,0.0,0.0,0.0,0.0,0.0,0.0,0.0,0.0,0.0,0.0,0.0,0.0,0.0,0.0,0.0,0.0,0.0,0.0,0.0,0.0,0.0,0.0,0.0,0.0,0.0,0.0,0.0,0.0,0.0,0.0,0.0,0.0,0.0,0.0,0.0,0.0,0.0,0.0,0.0,0.0,0.0,0.0,0.0,0.0,0.0,0.0,0.0,0.0,0.0,0.0,0.0,0.0,0.0,0.0,0.0,0.0,0.0,0.0,0.0,0.0,0.0,0.0,0.0,0.0,-3.8707,-3.8707,-3.8707,-3.8707,-3.8707,-3.8707,-3.8707,-3.8707,-3.8707,0.0,0.0,0.0,0.0,0.0,0.0,0.0,0.0,0.0,0.0,0.0,0.0,0.0,0.0,0.0,0.0,0.0,0.0,0.0,0.0,0.0,0.0,0.0,0.0,0.0,0.0,0.0,0.0,0.0,0.0,0.0,0.0,0.0,0.0,0.0,0.0,0.0,0.0,-2.8387,-2.958,0.0,0.0,0.0,0.0,0.0,0.0,0.0,0.0,-3.244,0.0,0.0,0.0,0.0,0.0,0.0,0.0,0.0,0.0,0.0,0.0,0.0,0.0,0.0,0.0,0.0,0.0,0.0,0.0,0.0,0.0,0.0,0.0,0.0,0.0,0.0,0.0,0.0,0.0,0.0,0.0,0.0,0.0,0.0,0.0,0.0,0.0,0.0,0.0,0.0,0.0,0.0,0.0,0.0,0.0,0.0,0.0,0.0,0.0,0.0,0.0,0.0,0.0,0.0,0.0,0.0,-3.8707,-3.8707,-3.8707,-3.8707,-3.8707,-3.8707,-3.8707,-3.8707,-3.8707,-3.8707,0.0,0.0,0.0,0.0,0.0,0.0,0.0,0.0,0.0,0.0,0.0,0.0,0.0,0.0,0.0,0.0,0.0,0.0,0.0,0.0,0.0,0.0,0.0,0.0,0.0,0.0,0.0,0.0,0.0,0.0,0.0,0.0,0.0,0.0,0.0,0.0,0.0,0.0,0.0,-3.0176,-3.0885,0.0,0.0,0.0,0.0,0.0,0.0,0.0,0.0,-3.2301,0.0,0.0,0.0,0.0,0.0,0.0,0.0,0.0,0.0,0.0,0.0,0.0,0.0,0.0,0.0,0.0,0.0,0.0,0.0,0.0,0.0,0.0,0.0,0.0,0.0,0.0,0.0,0.0,0.0,0.0,0.0,0.0,0.0,0.0,0.0,0.0,0.0,0.0,0.0,0.0,0.0,0.0,0.0,0.0,0.0,0.0,0.0,0.0,0.0,0.0,0.0,0.0,0.0,0.0,0.0,-3.8707,-3.8707,-3.8707,-3.8707,-3.8707,-3.8707,-3.8707,-3.8707,-3.8707,0.0,0.0,0.0,0.0,0.0,0.0,0.0,0.0,0.0,0.0,0.0,0.0,0.0,0.0,0.0,0.0,0.0,0.0,0.0,0.0,0.0,0.0,0.0,0.0,0.0,0.0,0.0,0.0,0.0,0.0,0.0,0.0,0.0,0.0,0.0,0.0,0.0,0.0,0.0,0.0,-3.061,-3.1233,-3.2398,0.0,0.0,0.0,0.0,0.0,0.0,-3.2336,-3.2267,0.0,0.0,0.0,0.0,0.0,0.0,0.0,0.0,0.0,0.0,0.0,0.0,0.0,0.0,0.0,0.0,0.0,0.0,0.0,0.0,0.0,0.0,0.0,0.0,0.0,0.0,0.0,0.0,0.0,0.0,0.0,0.0,0.0,0.0,0.0,0.0,0.0,0.0,0.0,0.0,0.0,0.0,0.0,0.0,0.0,0.0,0.0,0.0,0.0,0.0,0.0,0.0,0.0,0.0,0.0,-3.8707,-3.8707,-3.8707,-3.8707,-3.8707,-3.8707,-3.8707,-3.8707,-3.8707,0.0,0.0,0.0,0.0,0.0,0.0,0.0,0.0,0.0,0.0,0.0,0.0,0.0,0.0,0.0,0.0,0.0,0.0,0.0,0.0,0.0,0.0,0.0,0.0,0.0,0.0,0.0,0.0,0.0,0.0,0.0,0.0,0.0,0.0,0.0,0.0,0.0,0.0,0.0,0.0,0.0,-3.1559,-3.2368,-3.244,0.0,0.0,0.0,0.0,-3.2354,-3.2249,0.0,0.0,0.0,0.0,0.0,0.0,0.0,0.0,0.0,0.0,0.0,0.0,0.0,0.0,0.0,0.0,0.0,0.0,0.0,0.0,0.0,0.0,0.0,0.0,0.0,0.0,0.0,0.0,0.0,0.0,0.0,0.0,0.0,0.0,0.0,0.0,0.0,0.0,0.0,0.0,0.0,0.0,0.0,0.0,0.0,0.0,0.0,0.0,0.0,0.0,0.0,0.0,0.0,0.0,0.0,0.0,-3.8707,-3.8707,-3.8707,-3.8707,-3.8707,-3.8707,-3.8707,-3.8707,-3.8707,0.0,0.0,0.0,0.0,0.0,0.0,0.0,0.0,0.0,0.0,0.0,0.0,0.0,0.0,0.0,0.0,0.0,0.0,0.0,0.0,0.0,0.0,0.0,0.0,0.0,0.0,0.0,0.0,0.0,0.0,0.0,0.0,0.0,0.0,0.0,0.0,0.0,0.0,0.0,0.0,0.0,-3.151,-3.23,-3.2423,-3.2406,0.0,0.0,-3.2371,-3.2214,-3.2197,0.0,0.0,0.0,0.0,0.0,0.0,0.0,0.0,0.0,0.0,0.0,0.0,0.0,0.0,0.0,0.0,0.0,0.0,0.0,0.0,0.0,0.0,0.0,0.0,0.0,0.0,0.0,0.0,0.0,0.0,0.0,0.0,0.0,0.0,0.0,0.0,0.0,0.0,0.0,0.0,0.0,0.0,0.0,0.0,0.0,0.0,0.0,0.0,0.0,0.0,0.0,0.0,0.0,0.0,0.0,-3.8707,-3.8707,-3.8707,-3.8707,-3.8707,-3.8707,-3.8707,-3.8707,-3.8707,-3.8707,0.0,0.0,0.0,0.0,0.0,0.0,0.0,0.0,0.0,0.0,0.0,0.0,0.0,0.0,0.0,0.0,0.0,0.0,0.0,0.0,0.0,0.0,0.0,0.0,0.0,0.0,0.0,0.0,0.0,0.0,0.0,0.0,0.0,0.0,0.0,0.0,0.0,0.0,0.0,0.0,0.0,0.0,-3.2353,-3.2406,0.0,0.0,0.0,-3.2249,-3.2197,0.0,0.0,0.0,0.0,0.0,0.0,0.0,0.0,0.0,0.0,0.0,0.0,0.0,0.0,0.0,0.0,0.0,0.0,0.0,0.0,0.0,0.0,0.0,0.0,0.0,0.0,0.0,0.0,0.0,0.0,0.0,0.0,0.0,0.0,0.0,0.0,0.0,0.0,0.0,0.0,0.0,0.0,0.0,0.0,0.0,0.0,0.0,0.0,0.0,0.0,0.0,0.0,0.0,0.0,0.0,0.0,0.0,-3.8707,-3.8707,-3.8707,-3.8707,-3.8707,-3.8707,-3.8707,-3.8707,0.0,0.0,0.0,0.0,0.0,0.0,0.0,0.0,0.0,0.0,0.0,0.0,0.0,0.0,0.0,0.0,0.0,0.0,0.0,0.0,0.0,0.0,0.0,0.0,0.0,0.0,0.0,-3.0685,0.0,0.0,0.0,0.0,0.0,0.0,0.0,0.0,0.0,0.0,0.0,0.0,0.0,0.0,-3.2406,-3.2406,-3.2406,-3.2388,0.0,0.0,-3.2179,-3.2126,-3.2002,-3.1894,0.0,0.0,0.0,0.0,0.0,0.0,0.0,0.0,0.0,0.0,0.0,0.0,0.0,0.0,0.0,0.0,0.0,0.0,0.0,0.0,0.0,0.0,0.0,0.0,0.0,0.0,0.0,0.0,0.0,0.0,0.0,0.0,0.0,0.0,0.0,0.0,0.0,0.0,0.0,0.0,0.0,0.0,0.0,0.0,0.0,0.0,0.0,0.0,0.0,0.0,0.0,0.0,0.0,0.0,0.0,-3.8707,-3.8707,-3.8707,-3.8707,-3.8707,-3.8707,-3.8707,-3.8707,-3.8707,0.0,0.0,0.0,0.0,0.0,0.0,0.0,0.0,0.0,0.0,0.0,0.0,0.0,0.0,0.0,0.0,0.0,0.0,0.0,0.0,0.0,0.0,0.0,0.0,0.0,0.0,0.0,0.0,0.0,0.0,0.0,0.0,0.0,0.0,0.0,0.0,0.0,0.0,0.0,0.0,0.0,-3.2406,-3.2406,-3.2406,-3.2354,0.0,0.0,-3.2144,-3.1948,-3.1912,-3.1875,-3.1837,0.0,0.0,0.0,0.0,0.0,0.0,0.0,0.0,0.0,0.0,0.0,0.0,0.0,0.0,0.0,0.0,0.0,0.0,0.0,0.0,0.0,0.0,0.0,0.0,0.0,0.0,0.0,0.0,0.0,0.0,0.0,0.0,0.0,0.0,0.0,0.0,0.0,0.0,0.0,0.0,0.0,0.0,0.0,0.0,0.0,0.0,0.0,0.0,0.0,0.0,0.0,0.0,0.0,-3.8707,-3.8707,-3.8707,-3.8707,-3.8707,-3.8707,-3.8707,-3.8707,-3.8707,-3.8707,0.0,0.0,0.0,0.0,0.0,0.0,0.0,0.0,0.0,0.0,0.0,0.0,0.0,0.0,0.0,0.0,0.0,0.0,0.0,0.0,0.0,0.0,0.0,0.0,0.0,0.0,0.0,0.0,-3.2249,-3.2108,-3.202,0.0,0.0,0.0,0.0,0.0,0.0,0.0,0.0,0.0,0.0,-3.2214,-3.2214,-3.2214,0.0,0.0,-3.2073,-3.2002,-3.1912,-3.1857,-3.1838,-3.1801,-3.18,0.0,0.0,0.0,0.0,0.0,0.0,0.0,0.0,0.0,0.0,0.0,0.0,0.0,0.0,0.0,0.0,0.0,0.0,0.0,0.0,0.0,0.0,0.0,0.0,0.0,0.0,0.0,0.0,0.0,0.0,0.0,0.0,0.0,0.0,0.0,0.0,0.0,0.0,0.0,0.0,0.0,0.0,0.0,0.0,0.0,0.0,0.0,0.0,0.0,0.0,0.0,0.0,-3.8707,-3.8707,-3.8707,-3.8707,-3.8707,-3.8707,-3.8707,-3.8707,-3.8707,-3.8707,0.0,0.0,0.0,0.0,0.0,0.0,0.0,0.0,0.0,0.0,0.0,0.0,0.0,0.0,0.0,0.0,0.0,0.0,0.0,0.0,0.0,0.0,0.0,0.0,0.0,0.0,0.0,0.0,-3.2214,-3.2037,-3.193,0.0,0.0,0.0,0.0,0.0,0.0,0.0,0.0,0.0,0.0,-3.209,-3.209,-3.209,-3.2073,-3.2055,-3.1966,-3.1893,-3.1875,-3.1838,-3.18,-3.18,0.0,0.0,0.0,0.0,0.0,0.0,0.0,0.0,0.0,0.0,0.0,0.0,0.0,0.0,0.0,0.0,0.0,0.0,0.0,0.0,0.0,0.0,0.0,0.0,0.0,0.0,0.0,0.0,0.0,0.0,-3.8988,0.0,0.0,0.0,0.0,0.0,0.0,0.0,0.0,0.0,0.0,0.0,0.0,0.0,0.0,0.0,0.0,0.0,0.0,0.0,0.0,0.0,0.0,-3.8707,-3.8707,-3.8707,-3.8707,-3.8707,-3.8707,-3.8707,-3.8707,-3.8707,-3.8707,-3.8707,0.0,0.0,0.0,0.0,0.0,0.0,0.0,0.0,0.0,0.0,0.0,0.0,0.0,0.0,0.0,0.0,0.0,0.0,0.0,0.0,0.0,0.0,0.0,0.0,0.0,0.0,-3.2388,-3.2214,-3.2037,0.0,0.0,0.0,0.0,0.0,0.0,0.0,0.0,0.0,0.0,-3.209,-3.209,-3.209,-3.209,-3.2037,-3.193,-3.1894,-3.1875,-3.1801,-3.18,-3.18,0.0,0.0,0.0,0.0,0.0,0.0,0.0,0.0,0.0,0.0,0.0,0.0,0.0,0.0,0.0,0.0,0.0,0.0,0.0,0.0,0.0,0.0,0.0,0.0,0.0,0.0,0.0,-4.05,-4.0202,0.0,0.0,0.0,0.0,0.0,0.0,0.0,0.0,0.0,0.0,0.0,-3.9197,-3.9183,0.0,0.0,0.0,0.0,0.0,0.0,0.0,0.0,0.0,0.0,0.0,0.0,-3.8707,-3.8707,-3.8707,-3.8707,-3.8707,-3.8707,-3.8707,-3.8707,-3.8707,-3.8707,-3.8707,0.0,0.0,0.0,0.0,0.0,0.0,0.0,0.0,0.0,0.0,0.0,0.0,0.0,0.0,0.0,0.0,0.0,0.0,0.0,0.0,0.0,0.0,0.0,0.0,0.0,-3.2422,0.0,0.0,0.0,0.0,0.0,0.0,0.0,0.0,0.0,0.0,0.0,-3.1966,-3.1966,-3.1929,-3.1893,-3.1893,-3.191,-3.1874,0.0,0.0,0.0,0.0,0.0,0.0,0.0,0.0,0.0,0.0,0.0,0.0,0.0,0.0,-3.1332,-3.1252,-3.123,-3.119,-3.119,0.0,0.0,0.0,0.0,0.0,0.0,0.0,0.0,0.0,0.0,0.0,0.0,0.0,0.0,0.0,0.0,-4.0534,0.0,0.0,0.0,0.0,0.0,0.0,0.0,0.0,-3.9521,-3.9432,-3.9296,-3.9224,-3.9183,0.0,-3.9115,-3.9101,0.0,0.0,0.0,0.0,0.0,0.0,0.0,0.0,-3.8719,-3.8707,-3.8707,-3.8707,-3.8707,-3.8707,-3.8707,-3.8707,-3.8707,-3.8707,-3.8707,-3.8707,-3.8707,0.0,0.0,0.0,0.0,0.0,0.0,0.0,0.0,0.0,0.0,0.0,0.0,0.0,0.0,0.0,0.0,0.0,0.0,0.0,0.0,0.0,0.0,0.0,-3.2439,0.0,0.0,0.0,0.0,0.0,0.0,0.0,0.0,0.0,-3.1965,-3.1912,-3.1857,-3.1857,-3.1819,-3.18,-3.18,0.0,0.0,0.0,0.0,0.0,0.0,0.0,-3.18,-3.18,-3.18,-3.18,-3.1727,-3.1634,-3.1557,-3.1426,0.0,0.0,-3.121,-3.119,-3.119,-3.119,-3.119,-3.119,-3.119,-3.119,-3.119,0.0,0.0,0.0,0.0,0.0,0.0,0.0,0.0,-4.0733,-4.072,0.0,-4.0576,0.0,0.0,0.0,0.0,0.0,-3.99,0.0,0.0,-3.9576,-3.9496,-3.9476,-3.9296,-3.921,-3.9178,-3.9142,-3.9101,-3.9101,-3.9101,0.0,0.0,0.0,0.0,0.0,0.0,-3.878,-3.8707,-3.8707,-3.8707,-3.8707,-3.8707,-3.8707,-3.8707,-3.8707,-3.8707,-3.8707,-3.8707,-3.8707,-3.8707,-3.8689,0.0,0.0,0.0,0.0,0.0,0.0,0.0,0.0,0.0,0.0,0.0,0.0,0.0,0.0,0.0,0.0,0.0,0.0,0.0,0.0,-3.2607,0.0,0.0,0.0,0.0,0.0,0.0,0.0,0.0,0.0,0.0,-3.1887,-3.1836,-3.18,-3.1834,0.0,0.0,0.0,0.0,-3.1886,-3.1903,-3.1869,-3.1886,-3.1886,-3.1903,-3.1886,-3.1852,0.0,0.0,-3.1634,-3.154,-3.1462,-3.1332,-3.1252,-3.119,-3.119,-3.119,-3.119,-3.119,-3.119,-3.119,-3.119,-3.119,-3.119,-4.0797,0.0,0.0,0.0,0.0,-4.0797,-4.0797,-4.0797,-4.0765,-4.0746,-4.0713,-4.0647,0.0,0.0,0.0,0.0,0.0,0.0,-3.9886,-3.9841,-3.9722,-3.9595,-3.9496,-3.9445,-3.9341,-3.9197,-3.9183,-3.9142,-3.9101,-3.9101,-3.9101,-3.9101,0.0,0.0,0.0,0.0,-3.878,-3.8689,-3.8707,-3.8707,-3.8707,-3.8707,-3.8707,-3.8707,-3.8707,-3.8707,-3.8707,-3.8707,-3.8707,-3.8707,-3.8707,0.0,0.0,0.0,0.0,0.0,0.0,0.0,0.0,0.0,0.0,0.0,0.0,0.0,0.0,0.0,0.0,0.0,0.0,0.0,-3.2805,-3.2657,-3.2557,0.0,0.0,0.0,0.0,0.0,0.0,0.0,0.0,0.0,-3.2507,-3.211,-3.199,0.0,0.0,-3.28,-3.3352,-3.344,-3.344,-3.3457,0.0,0.0,0.0,-3.3438,-3.3248,-3.2679,-3.2145,-3.1746,-3.1634,-3.1557,-3.1462,-3.1332,-3.1252,-3.119,-3.119,-3.119,-3.119,-3.119,-3.119,-3.119,-3.119,-3.119,-3.119,-4.128,-4.1261,-4.0926,-4.0797,-4.0797,-4.0797,-4.0797,-4.0797,-4.0797,-4.0784,-4.0739,-4.0707,-4.0666,-4.0564,-4.0539,0.0,0.0,0.0,-4.0007,-3.9984,-3.9841,-3.9727,-3.963,-3.9539,-3.9439,-3.9311,-3.9251,-3.9183,-3.9124,-3.9115,-3.9101,-3.9101,0.0,0.0,-3.891,-3.8866,-3.8792,-3.8689,-3.8707,-3.8707,-3.8707,-3.8707,-3.8707,-3.8707,-3.8707,-3.8707,-3.8707,-3.8707,-3.8707,-3.8707,-3.8707,-3.8707,0.0,0.0,0.0,0.0,0.0,0.0,0.0,0.0,0.0,0.0,0.0,-3.3408,0.0,0.0,0.0,0.0,-3.3106,-3.2995,-3.2886,-3.2787,0.0,0.0,0.0,0.0,0.0,0.0,0.0,-3.2383,-3.2361,-3.2581,-3.3306,-3.3028,-3.2869,-3.3317,-3.3369,-3.3542,-3.4027,0.0,-3.4096,-3.4096,-3.4096,-3.4096,-3.4096,-3.4096,-3.3921,-3.3455,-3.2969,-3.2601,-3.2451,-3.2388,-3.2188,-3.1817,-3.1673,-3.1546,-3.1241,-3.119,-3.119,-3.119,-3.119,-3.119,-3.119,-3.119,-3.119,-4.2106,-4.2028,-4.1319,-4.0932,-4.0797,-4.0797,-4.0797,-4.0797,-4.0797,-4.0797,-4.081,-4.0739,-4.072,-4.0713,-4.0569,0.0,-4.0325,-4.0243,-4.0158,-4.0098,-3.9984,-3.9889,-3.9773,-3.9611,-3.9508,-3.9483,-3.933,-3.9229,-3.9197,-3.9142,-3.9101,-3.9101,-3.9101,-3.9031,-3.891,-3.891,-3.8855,-3.8707,-3.8707,-3.8707,-3.8707,-3.8707,-3.8707,-3.8707,-3.8707,-3.8707,-3.8707,-3.8707,-3.8707,-3.8707,-3.8707,-3.8707,-3.8707,0.0,0.0,0.0,0.0,0.0,0.0,0.0,0.0,0.0,0.0,0.0,0.0,0.0,0.0,0.0,-3.318,0.0,-3.3013,-3.2932,0.0,0.0,0.0,-3.251,-3.2336,-3.2354,-3.2633,-3.3222,0.0,0.0,-3.4198,0.0,-3.4217,-3.4268,-3.4214,-3.4217,-3.4249,-3.43,-3.4266,-3.4372,-3.432,-3.4283,-3.4404,-3.432,-3.4231,-3.416,-3.4031,-3.3774,-3.3635,-3.355,-3.323,-3.2534,-3.2395,-3.2209,-3.1512,-3.141,-3.1275,-3.1309,-3.1241,-3.119,-3.119,-3.119,-3.119,-4.2995,-4.2976,-4.2783,-4.197,-4.0816,-4.0797,-4.0797,-4.0797,-4.0797,-4.0797,-4.0797,-4.0765,-4.0746,-4.0694,-4.0569,-4.05,-4.046,-4.0323,-4.0233,-4.0168,-4.0078,-4.0005,-3.9859,-3.9781,-3.9647,-3.9514,-3.9433,-3.935,-3.921,-3.9183,-3.9156,-3.9101,-3.9101,-3.9036,-3.891,-3.891,-3.8855,-3.8707,-3.8707,-3.8707,-3.8707,-3.8707,-3.8707,-3.8707,-3.8707,-3.8707,-3.8707,-3.8707,-3.8707,-3.8707,-3.8707,-3.8707,-3.8707,-3.8707,0.0,0.0,0.0,0.0,0.0,0.0,0.0,0.0,0.0,-3.3563,-3.3549,0.0,-3.3481,0.0,-3.3337,-3.3168,-3.3028,-3.2932,0.0,0.0,-3.3156,-3.3406,-3.3354,-3.3721,-3.4013,-3.4169,-3.4129,-3.4347,-3.5032,-3.5097,-3.5264,-3.5701,-3.5283,-3.5148,-3.5663,-3.5766,-3.5766,-3.5732,-3.5714,-3.5783,-3.5697,-3.5283,-3.4901,-3.4802,-3.4297,-3.3839,-3.3673,-3.3611,-3.3481,-3.3207,-3.3136,-3.3068,-3.2882,-3.2425,-3.2073,-3.2005,-3.1596,-3.119,-3.119,-3.119,-3.119,-4.3885,-4.384,-4.346,-4.2763,-4.1893,-4.1493,-4.1332,-4.1319,-4.0951,-4.0797,-4.0797,-4.0797,-4.0778,-4.0694,-4.0619,-4.0576,-4.0531,-4.0425,-4.0377,-4.0316,-4.0196,-4.0109,-4.0029,-3.9903,-3.9792,-3.9689,-3.9563,-3.9452,-3.9324,-3.9232,-3.9183,-3.9142,-3.9115,-3.9031,-3.8935,-3.8906,-3.8837,-3.8707,-3.8707,-3.8707,-3.8707,-3.8707,-3.8707,-3.8707,-3.8707,-3.8707,-3.8707,-3.8707,-3.8707,-3.8707,-3.8707,-3.8707,-3.8707,-3.8707,-3.8707,0.0,0.0,0.0,0.0,0.0,0.0,0.0,0.0,0.0,0.0,0.0,-3.3534,-3.3509,-3.3749,-3.3846,-3.3676,-3.3902,-3.4019,-3.3921,-3.4161,-3.4288,-3.4199,-3.4443,-3.4756,-3.5033,-3.5027,-3.5244,-3.5876,-3.5919,-3.5976,-3.627,-3.5939,-3.5835,-3.6197,-3.6284,-3.6284,-3.6284,-3.6284,-3.628,-3.6255,-3.591,-3.561,-3.5454,-3.5061,-3.4703,-3.4597,-3.4529,-3.4367,-3.4003,-3.388,-3.3778,-3.3457,-3.3102,-3.2801,-3.275,-3.2459,-3.1968,-3.1326,-3.119,-3.119,-4.4748,-4.4678,-4.3924,-4.3614,-4.3556,-4.2705,-4.226,-4.2106,-4.1429,-4.1067,-4.0951,-4.0855,-4.0778,-4.0707,-4.072,-4.0686,-4.0603,-4.0539,-4.0519,-4.0482,-4.0316,-4.0224,-4.0196,-4.0019,-3.9922,-3.9889,-3.9658,-3.9526,-3.9483,-3.933,-3.921,-3.9197,-3.9129,-3.9059,-3.9011,-3.8939,-3.8822,-3.8707,-3.8707,-3.8707,-3.8707,-3.8707,-3.8707,-3.8707,-3.8707,-3.8707,-3.8707,-3.8707,-3.8707,-3.8707,-3.8707,-3.8707,-3.8707,-3.8707,-3.8707,0.0,-3.8707,0.0,0.0,0.0,0.0,0.0,0.0,0.0,0.0,-3.4327,-3.3901,-3.3818,-3.444,-3.4779,-3.4661,-3.5179,-3.5458,-3.5325,-3.5295,-3.519,-3.4994,-3.5064,-3.5308,-3.5901,-3.591,-3.6092,-3.6603,-3.6585,-3.6482,-3.6343,-3.6287,-3.6232,-3.6284,-3.6284,-3.6284,-3.6284,-3.628,-3.6272,-3.6208,-3.617,-3.6088,-3.598,-3.5803,-3.5795,-3.5688,-3.5616,-3.5346,-3.481,-3.4641,-3.4438,-3.3795,-3.3643,-3.352,-3.3525,-3.3406,-3.2933,-3.1918,-3.1613,-3.1478,-4.5575,-4.5575,-4.5394,-4.5343,-4.5265,-4.4446,-4.3704,-4.3034,-4.2879,-4.2434,-4.1719,-4.1087,-4.081,-4.0778,-4.0733,-4.0674,-4.0673,-4.061,-4.0558,-4.05,-4.0455,-4.0342,-4.0205,-4.0168,-4.0059,-3.99,-3.9792,-3.9658,-3.9483,-3.94,-3.9301,-3.9197,-3.9129,-3.9059,-3.9011,0.0,0.0,0.0,-3.8707,-3.8707,-3.8707,-3.8707,-3.8707,-3.8707,-3.8707,0.0,-3.8707,-3.8707,-3.8707,-3.8707,-3.8707,0.0,0.0,0.0,0.0,0.0,0.0,0.0,0.0,0.0,0.0,0.0,-3.7569,-3.6729,-3.6091,-3.5762,-3.5568,-3.5466,-3.5596,-3.561,-3.5487,-3.56,-3.5575,-3.5429,-3.5845,-3.6114,-3.6025,-3.6392,-3.6719,-3.6823,-3.6781,-3.6753,-3.6753,-3.6705,-3.6602,-3.6464,-3.6381,-3.6301,-3.6284,-3.6284,-3.6284,-3.6284,-3.6255,-3.6208,-3.6187,-3.6101,-3.5975,-3.5883,-3.5817,-3.5751,-3.5667,-3.5622,-3.5616,-3.5363,-3.538,-3.5329,-3.516,-3.4726,-3.4286,-3.4286,-3.3846,-3.3322,-3.3051,-3.2983,-3.2983,-4.5807,0.0,-4.5807,-4.5807,0.0,-4.5374,-4.4949,-4.4465,-4.3653,-4.3053,-4.2628,-4.2202,-4.1796,-4.139,-4.1351,-4.11,-4.0713,-4.0626,-4.0583,-4.0558,-4.0534,-4.0432,-4.0298,-4.0233,-4.0129,-4.0005,-3.9881,-3.977,-3.9587,-3.9496,-3.9419,-3.9301,-3.9202,-3.9115,-3.905,-3.895,-3.8855,-3.8707,-3.8707,-3.8707,-3.8707,-3.8707,-3.8707,-3.8707,0.0,0.0,0.0,0.0,0.0,0.0,0.0,0.0,0.0,0.0,0.0,-3.8707,-3.8707,-3.8707,-3.8707,-3.8707,-3.8707,-3.8689,-3.8322,-3.7588,-3.6395,-3.6237,-3.6146,-3.6027,-3.6328,-3.6487,-3.6413,-3.6676,-3.6812,-3.6711,-3.6915,-3.7006,-3.6987,-3.7125,-3.7204,-3.711,-3.7087,-3.6989,-3.6829,-3.6728,-3.6661,-3.6523,-3.6381,-3.6284,-3.6284,-3.6284,-3.628,-3.6255,-3.6229,-3.6144,-3.6014,-3.5949,-3.5844,-3.5751,-3.5706,-3.5667,-3.5622,-3.5616,-3.5616,-3.5616,-3.5616,-3.5616,-3.5566,-3.5261,-3.5047,-3.503,-3.4737,-3.4484,-3.4433,-3.3909,-3.3389,-4.5807,-4.5807,-4.5807,-4.5807,-4.5807,-4.5807,-4.5807,-4.571,0.0,0.0,0.0,-4.3382,-4.2899,-4.2241,-4.2222,-4.1764,-4.0958,-4.0866,-4.0774,-4.0595,-4.0538,-4.0474,-4.0415,-4.0289,-4.0196,-4.0118,-3.9975,-3.9856,-3.9724,-3.9575,-3.9452,-3.9425,-3.9269,-3.9156,-3.9073,-3.8964,-3.8837,-3.8738,-3.8689,-3.8707,-3.8707,-3.8707,-3.8707,-3.8707,-3.8707,-3.8707,-3.8707,-3.8707,-3.8707,-3.8707,-3.8707,-3.8707,-3.8707,-3.8707,-3.8707,-3.8707,-3.8707,-3.8707,-3.8707,-3.8707,-3.8707,-3.8707,-3.8707,-3.8157,-3.6817,-3.6725,-3.6677,-3.6534,-3.7077,-3.74,-3.7323,-3.7738,-3.8053,-3.8019,-3.7862,-3.7703,-3.7631,-3.7503,-3.7355,-3.7185,-3.7127,-3.705,-3.6871,-3.6766,-3.6664,-3.6544,-3.6402,-3.6284,-3.6284,-3.628,-3.6255,-3.6208,-3.6161,-3.6036,-3.5861,-3.5773,-3.5728,-3.5644,-3.56,-3.5616,-3.5616,-3.5616,-3.5616,-3.5616,-3.5616,-3.5616,-3.5616,-3.5566,-3.5616,-3.5616,-3.5616,-3.5616,-3.5498,-3.4675,-3.3892,-4.5826,-4.5807,-4.5807,-4.5807,-4.5807,-4.5807,-4.5807,-4.5729,-4.4813,-4.4427,-4.4381,-4.3634,-4.3227,-4.3111,-4.3111,-4.2647,-4.1828,-4.1827,-4.1368,0.0,-4.0595,-4.0546,-4.0474,-4.0415,-4.0317,-4.0177,-4.0058,-3.9943,-3.9856,-3.9611,-3.9502,-3.9464,-3.9285,-3.9147,-3.9007,-3.8935,-3.8848,-3.8792,-3.8719,-3.8707,-3.8707,-3.8707,-3.8707,-3.8707,-3.8707,-3.8707,-3.8707,-3.8707,-3.8707,-3.8707,-3.8707,-3.8707,-3.8707,-3.8707,-3.8707,-3.8707,-3.8707,-3.8707,-3.8707,-3.8707,-3.8707,-3.8707,-3.8707,-3.8597,-3.8395,-3.8377,-3.831,-3.8196,-3.822,-3.8269,-3.816,-3.8183,-3.8171,-3.8018,-3.7966,-3.7862,-3.7703,-3.7631,-3.7503,-3.7355,-3.7204,-3.7108,-3.7048,-3.6849,-3.6684,-3.6643,-3.6444,-3.6284,-3.6301,-3.6272,-3.6208,-3.6165,-3.5993,-3.5861,-3.5795,-3.5689,-3.5644,-3.5616,-3.5616,-3.5616,-3.5616,-3.5616,-3.5616,-3.5616,-3.5616,-3.5616,-3.5616,-3.5616,-3.5616,-3.5616,-3.5616,-3.5616,-3.5616,-3.5312,-3.5149,-4.6503,-4.6445,-4.6,-4.5807,-4.5807,-4.5807,-4.5807,-4.5761,-4.5413,-4.5258,-4.52,-4.4813,-4.4407,-4.402,-4.402,-4.3537,-4.2705,-4.2672,-4.2174,-4.134,-4.1323,-4.1024,-4.0521,-4.0432,-4.0316,-4.0196,-4.0099,-4.0015,-3.9889,-3.9712,-3.9563,-3.9502,-3.9298,-3.9188,-3.9101,-3.9007,-3.8906,-3.8866,-3.875,-3.8707,-3.8707,-3.8707,-3.8707,-3.8707,-3.8707,-3.8707,-3.8707,-3.8707,-3.8707,-3.8707,-3.8707,-3.8707,-3.8707,-3.8707,-3.8707,-3.8707,-3.8707,-3.8707,-3.8707,-3.8707,-3.8707,-3.8707,-3.8707,-3.8707,-3.8707,-3.8707,-3.8673,-3.8609,-3.8525,-3.8478,-3.8417,-3.8338,-3.8274,-3.8189,-3.8087,-3.7984,-3.7862,-3.7739,-3.7613,-3.7503,-3.7353,-3.7166,-3.7108,-3.6908,-3.6745,-3.6684,-3.6482,-3.6284,-3.6284,-3.617,-3.6101,-3.6062,-3.591,-3.5795,-3.5706,-3.5644,-3.56,-3.5616,-3.5616,-3.5616,-3.5616,-3.5616,-3.5616,-3.5616,-3.5616,-3.5616,-3.5616,-3.5616,-3.5616,-3.5616,-3.5616,-3.5616,-3.56,-3.5509,-3.5412,-4.7393,-4.7328,-4.6457,-4.5981,-4.5807,-4.5807,-4.5807,-4.5807,-4.5807,-4.5807,-4.5807,-4.5807,-4.5452,-4.491,-4.4871,-4.4407,-4.3666,-4.3529,-4.3038,-4.2223,-4.1993,-4.1509,-4.0841,-4.0573,-4.0362,-4.0233,-4.0158,-4.0067,-3.9951,-3.9823,-3.9647,-3.9483,-3.933,-3.9224,-3.9197,-3.9078,-3.8964,-3.8906,-3.8795,-3.8723,-3.8707,-3.8707,-3.8707,-3.8707,-3.8707,-3.8707,-3.8707,-3.8707,-3.8707,-3.8707,-3.8707,-3.8707,-3.8707,-3.8707,-3.8707,-3.8707,-3.8707,-3.8707,-3.8707,-3.8707,-3.8707,-3.8707,-3.8707,-3.8707,-3.8707,-3.8707,-3.8707,-3.8673,-3.859,-3.8525,-3.8494,-3.8417,-3.8322,-3.8289,-3.8172,-3.807,-3.7984,-3.7863,-3.7721,-3.7613,-3.7429,-3.7297,-3.7145,-3.697,-3.6809,-3.6664,-3.6461,-3.6301,-3.6262,-3.6131,-3.6019,-3.5993,-3.5883,-3.5711,-3.5622,-3.56,-3.5616,-3.5616,-3.5616,-3.5616,-3.5616,-3.5616,-3.5616,-3.5616,-3.5616,-3.5616,-3.5616,-3.5616,-3.5616,-3.5616,-3.5616,-3.5616,-3.5616,-3.5435,-3.5314,-4.8295,-4.814,-4.7328,-4.6523,-4.5865,-4.5826,-4.5807,-4.5807,-4.5807,-4.5807,-4.5807,-4.5807,-4.5768,-4.5703,-4.5671,-4.52,-4.4497,-4.4478,-4.3961,-4.3057,-4.2268,-4.1858,-4.1709,-4.0918,-4.0449,-4.0409,-4.0252,-4.0148,-4.0077,-3.9933,-3.9728,-3.9526,-3.9432,-3.9296,-3.9183,-3.9078,-3.9011,-3.8997,-3.8848,-3.8747,-3.8707,-3.8707,-3.8707,-3.8707,-3.8707,-3.8707,-3.8707,-3.8707,-3.8707,-3.8707,-3.8707,-3.8707,-3.8707,-3.8707,-3.8707,-3.8707,-3.8707,-3.8707,-3.8707,-3.8707,-3.8707,-3.8707,-3.8707,-3.8707,-3.8707,-3.8707,-3.8707,-3.8692,-3.8692,-3.8643,-3.851,-3.8478,-3.8433,-3.8305,-3.8272,-3.8206,-3.8036,-3.7933,-3.7828,-3.7721,-3.7522,-3.7372,-3.7278,-3.7068,-3.6831,-3.6585,-3.644,-3.6305,-3.628,-3.6148,-3.6014,-3.5954,-3.58,-3.5661,-3.5616,-3.5616,-3.5616,-3.5616,-3.5616,-3.5616,-3.5616,-3.5616,-3.5616,-3.5616,-3.5616,-3.5616,-3.5616,-3.5616,-3.5616,-3.5616,-3.5616,-3.5616,-3.5577,-3.5458,-3.5337,-4.9165,-4.9068,-4.8237,-4.7366,-4.6561,-4.6039,-4.5807,-4.5807,-4.5807,-4.5807,-4.5807,-4.5807,-4.5807,-4.5807,-4.5807,-4.5613,-4.5316,-4.5316,-4.4838,-4.3991,-4.3581,-4.3158,-4.2553,-4.1646,-4.1204,-4.1093,-4.0519,-4.0206,-4.0119,-3.9986,-3.98,-3.9613,-3.9514,-3.9413,-3.9315,-3.9188,-3.9078,-3.8993,-3.8954,-3.8896,-3.8807,-3.8753,-3.8707,-3.8707,-3.8707,-3.8707,-3.8707,-3.8707,-3.8707,-3.8707,-3.8707,-3.8707,-3.8707,-3.8707,-3.8707,-3.8707,-3.8707,-3.8707,-3.8707,-3.8707,-3.8707,-3.8707,-3.8707,-3.8707,-3.8707,-3.8707,-3.8707,-3.8707,-3.8707,-3.8673,-3.8624,-3.8559,-3.8481,-3.8368,-3.8322,-3.8257,-3.814,-3.802,-3.7915,-3.7828,-3.7649,-3.7466,-3.7297,-3.7048,-3.6829,-3.6643,-3.6502,-3.6402,-3.6301,-3.6127,-3.6019,-3.5975,-3.5778,-3.5622,-3.5616,-3.5616,-3.5616,-3.5616,-3.5616,-3.5616,-3.5616,-3.5616,-3.5616,-3.5616,-3.5616,-3.5616,-3.5616,-3.5616,-3.5616,-3.5616,-3.5616,-3.5616,-3.5616,-3.5503,-3.5406,-5.0008,-4.99,-4.9107,-4.8121,-4.7064,-4.6426,-4.602,-4.5807,-4.5807,-4.5807,-4.5807,-4.5807,-4.5807,-4.5807,-4.5807,-4.5807,-4.5807,-4.5807,-4.5464,-4.4875,-4.4645,-4.4118,-4.3416,-4.2524,-4.1929,-4.1626,-4.0966,-4.0472,-4.0225,-3.9988,-3.9853,-3.9738,-3.9582,-3.9464,-3.94,-3.9264,-3.9142,-3.9064,-3.9021,-3.8964,-3.8906,-3.8825,-3.875,-3.875,-3.875,-3.875,-3.875,-3.8735,-3.8719,-3.8719,-3.8704,-3.8707,-3.8707,-3.8707,-3.8707,-3.8707,-3.8707,-3.8707,-3.8707,-3.8707,-3.8707,-3.8707,-3.8707,-3.8707,-3.8707,-3.8707,-3.8707,-3.8707,-3.8707,-3.8707,-3.8673,-3.8609,-3.8528,-3.8449,-3.8352,-3.8307,-3.8224,-3.8087,-3.7967,-3.7899,-3.7739,-3.754,-3.7333,-3.7066,-3.6829,-3.6745,-3.6585,-3.6482,-3.636,-3.6191,-3.6058,-3.5997,-3.5817,-3.5644,-3.5622,-3.5616,-3.5616,-3.5616,-3.5616,-3.5616,-3.5616,-3.5616,-3.5616,-3.5616,-3.5616,-3.5616,-3.5616,-3.5616,-3.5616,-3.5616,-3.5616,-3.5616,-3.5616,-3.5543,-3.5469,-5.0859,-5.0705,-4.9958,-4.8662,-4.7122,-4.7038,-4.6561,-4.5904,-4.5826,-4.5807,-4.5807,-4.5807,-4.5807,-4.5807,-4.5807,-4.5807,-4.5807,-4.5807,-4.5761,-4.5599,-4.4914,-4.451,-4.4369,-4.3474,-4.2563,-4.1854,-4.1602,-4.1053,-4.0244,-4.0015,-3.99,-3.9867,-3.9642,-3.9495,-3.9464,-3.9317,-3.9215,-3.9188,-3.9078,-3.8993,-3.8997,-3.8921,-3.8877,-3.8877,-3.8877,-3.8881,-3.8881,-3.8837,-3.8792,-3.8792,-3.8735,-3.8707,-3.8707,-3.8707,-3.8707,-3.8707,-3.8707,-3.8707,-3.8707,-3.8707,-3.8707,-3.8707,-3.8707,-3.8707,-3.8707,-3.8707,-3.8707,-3.8707,-3.8707,-3.8707,-3.8707,-3.8692,-3.8624,-3.8494,-3.843,-3.837,-3.8307,-3.8121,-3.7984,-3.7898,-3.7775,-3.7595,-3.7334,-3.7124,-3.6948,-3.6809,-3.6647,-3.6485,-3.6461,-3.6314,-3.6144,-3.5997,-3.5866,-3.5751,-3.5661,-3.5616,-3.5616,-3.5616,-3.5616,-3.5616,-3.5616,-3.5616,-3.5616,-3.5616,-3.5616,-3.5616,-3.5616,-3.5616,-3.5616,-3.5616,-3.5616,-3.5616,-3.5616,-3.5566,-3.5492,-5.0898,-5.0821,-5.0035,-4.932,-4.8662,-4.7599,-4.6909,-4.6573,-4.6039,-4.5807,-4.5807,-4.5807,-4.5807,-4.5807,-4.5807,-4.5807,-4.5807,-4.5807,-4.5807,-4.5761,-4.5474,-4.5302,-4.5167,-4.4349,-4.3473,-4.2626,-4.198,-4.1175,-4.0301,-4.0068,-3.9975,-3.9878,-3.9724,-3.9587,-3.9521,-3.9445,-3.9341,-3.921,-3.9161,-3.912,-3.9078,-3.905,-3.9017,-3.9017,-3.8935,-3.891,-3.891,-3.8881,-3.8866,-3.8862,-3.8837,-3.8807,-3.878,-3.8738,-3.8707,-3.8707,-3.8707,-3.8707,-3.8707,-3.8707,-3.8707,-3.8707,-3.8707,-3.8707,-3.8707,-3.8707,-3.8707,-3.8707,-3.8707,-3.8707,-3.8707,-3.8707,-3.8658,-3.8525,-3.8446,-3.8385,-3.8289,-3.8207,-3.8106,-3.795,-3.7792,-3.7558,-3.7392,-3.7185,-3.7048,-3.6911,-3.6766,-3.6606,-3.6482,-3.6314,-3.6165,-3.6036,-3.5905,-3.5751,-3.5639,-3.5616,-3.5616,-3.5616,-3.5616,-3.5616,-3.5616,-3.5616,-3.5616,-3.5616,-3.5616,-3.5616,-3.5616,-3.5616,-3.5616,-3.5616,-3.5616,-3.5616,-3.5616,-3.5571,-3.5543,-5.0898,-5.0821,-5.0318,-4.9931,-4.9533,-4.814,-4.7347,-4.7018,-4.6194,-4.5807,-4.5807,-4.5807,-4.5807,-4.5807,-4.5807,-4.5807,-4.5807,-4.5807,-4.5807,-4.58,-4.5798,-4.5788,-4.5646,-4.5105,-4.4352,-4.341,-4.2264,-4.1191,-4.0338,-4.0167,-4.0087,-3.9954,-3.9815,-3.9701,-3.9594,-3.9533,-3.9432,-3.9309,-3.9224,-3.917,-3.9124,-3.9096,-3.9101,-3.9087,-3.9003,-3.8964,-3.8946,-3.8954,-3.8939,-3.8939,-3.8906,-3.8896,-3.8837,-3.878,-3.8735,-3.8735,-3.8704,-3.8707,-3.8707,-3.8707,-3.8707,-3.8707,-3.8707,-3.8707,-3.8707,-3.8707,-3.8707,-3.8707,-3.8707,-3.8707,-3.8707,-3.8707,-3.8658,-3.8559,-3.8462,-3.8401,-3.8338,-3.8239,-3.8123,-3.795,-3.7775,-3.7595,-3.7429,-3.7261,-3.7145,-3.7048,-3.6869,-3.6705,-3.6564,-3.6419,-3.6247,-3.6101,-3.5954,-3.5839,-3.5706,-3.5661,-3.5639,-3.5616,-3.5616,-3.5616,-3.5616,-3.5616,-3.5616,-3.5616,-3.5616,-3.5616,-3.5616,-3.5616,-3.5616,-3.5616,-3.5616,-3.5616,-3.5616,-3.5616,-3.5571,-5.0898,-5.0898,-5.0898,-5.0422,-4.9726,-4.872,-4.7869,-4.7134,-4.6187,-4.5807,-4.5807,-4.5807,-4.5807,-4.5807,-4.5807,-4.5807,-4.5807,-4.5807,-4.5807,-4.5807,-4.58,-4.5798,-4.5781,-4.5638,-4.502,-4.4086,-4.2511,-4.1227,-4.0345,-4.0215,-4.0158,-4.0077,-3.9943,-3.9811,-3.9701,-3.9582,-3.9514,-3.9432,-3.9309,-3.921,-3.9178,-3.9142,-3.9115,-3.9101,-3.9087,-3.9087,-3.9087,-3.9036,-3.8993,-3.8993,-3.8935,-3.891,-3.8896,-3.8837,-3.8773,-3.8795,-3.8735,-3.8707,-3.8707,-3.8707,-3.8707,-3.8707,-3.8707,-3.8707,-3.8707,-3.8707,-3.8707,-3.8707,-3.8707,-3.8707,-3.8707,-3.8707,-3.8707,-3.8673,-3.8512,-3.8382,-3.8385,-3.829,-3.8141,-3.7933,-3.7775,-3.7631,-3.7449,-3.7336,-3.7259,-3.7126,-3.695,-3.6788,-3.6684,-3.6544,-3.6398,-3.6229,-3.6079,-3.5949,-3.5817,-3.5706,-3.5661,-3.5616,-3.5616,-3.5616,-3.5616,-3.5616,-3.5616,-3.5616,-3.5616,-3.5616,-3.5616,-3.5616,-3.5616,-3.5616,-3.5616,-3.5616,-3.5616,-3.5616,-3.5616,-5.0898,-5.0898,-5.0898,-5.0763,-5.0345,-4.901,-4.8217,-4.7831,-4.6457,-4.5826,-4.5807,-4.5807,-4.5807,-4.5807,-4.5807,-4.5807,-4.5807,-4.5807,-4.5807,-4.5807,-4.5807,-4.5805,-4.5807,-4.5723,-4.4935,-4.3533,-4.2283,-4.1244,-4.0515,-4.0271,-4.0158,-4.0087,-3.9954,-3.9815,-3.9701,-3.9668,-3.9602,-3.9508,-3.9425,-3.9341,-3.921,-3.9183,-3.9142,-3.9115,-3.9101,-3.9101,-3.9101,-3.9073,-3.9059,-3.9078,-3.9045,-3.9021,-3.895,-3.8848,-3.8788,-3.8792,-3.8735,-3.8707,-3.8707,-3.8707,-3.8707,-3.8707,-3.8707,-3.8707,-3.8707,-3.8707,-3.8707,-3.8707,-3.8707,-3.8707,-3.8707,-3.8707,-3.8707,-3.8707,-3.853,-3.8399,-3.8366,-3.8272,-3.814,-3.7984,-3.7898,-3.7775,-3.7613,-3.7467,-3.7336,-3.7239,-3.7048,-3.6908,-3.6768,-3.6626,-3.6444,-3.6297,-3.6187,-3.6058,-3.5905,-3.5795,-3.5706,-3.5661,-3.5622,-3.5616,-3.5616,-3.5616,-3.5616,-3.5616,-3.5616,-3.5616,-3.5616,-3.5616,-3.5616,-3.5616,-3.5616,-3.5616,-3.5616,-3.5616,-3.5616,-5.0898,-5.0898,-5.0898,-5.0898,-5.0705,-4.9107,-4.8411,-4.8121,-4.6542,-4.5826,-4.5807,-4.5807,-4.5807,-4.5807,-4.5807,-4.5807,-4.5807,-4.5807,-4.5807,-4.5807,-4.5807,-4.5812,-4.5803,-4.5731,-4.5001,-4.3676,-4.2665,-4.1761,-4.0886,-4.046,-4.0244,-4.0128,-4.0007,-3.9911,-3.977,-3.9727,-3.9631,-3.9583,-3.952,-3.9425,-3.9328,-3.9224,-3.9183,-3.9142,-3.9115,-3.9101,-3.9101,-3.9101,-3.9101,-3.9101,-3.9101,-3.9073,-3.9036,-3.8935,-3.8848,-3.8818,-3.8777,-3.8719,-3.8689,-3.8707,-3.8707,-3.8707,-3.8707,-3.8707,-3.8707,-3.8707,-3.8707,-3.8707,-3.8707,-3.8707,-3.8707,-3.8707,-3.8707,-3.8707,-3.853,-3.8401,-3.832,-3.8257,-3.8157,-3.8037,-3.7933,-3.7846,-3.7703,-3.7522,-3.7411,-3.7317,-3.7164,-3.7027,-3.6851,-3.6725,-3.6544,-3.6398,-3.6251,-3.6122,-3.5993,-3.5883,-3.5773,-3.5706,-3.5644,-3.5622,-3.5616,-3.5616,-3.5616,-3.5616,-3.5616,-3.5616,-3.5616,-3.5616,-3.5616,-3.5616,-3.5616,-3.5616,-3.5616,-3.5616,-3.5616,-5.0898,-5.0898,-5.0898,-5.0898,-5.0685,-4.9107,-4.8411,-4.8121,-4.6554,-4.5807,-4.5807,-4.5807,-4.5807,-4.5807,-4.5807,-4.5807,-4.5807,-4.5807,-4.5807,-4.5807,-4.5807,-4.58,-4.5798,-4.5739,-4.5163,-4.4286,-4.341,-4.2544,-4.1536,-4.0752,-4.0345,-4.0206,-4.0108,-4.0026,-3.9878,-3.9758,-3.9703,-3.9669,-3.9571,-3.9508,-3.9469,-3.9309,-3.921,-3.9197,-3.9142,-3.9101,-3.9101,-3.9101,-3.9101,-3.9101,-3.9101,-3.9101,-3.9087,-3.9036,-3.895,-3.8892,-3.8837,-3.8747,-3.8704,-3.8707,-3.8707,-3.8707,-3.8707,-3.8707,-3.8707,-3.8707,-3.8707,-3.8707,-3.8707,-3.8707,-3.8707,-3.8707,-3.8692,-3.8676,-3.8515,-3.837,-3.8224,-3.8209,-3.8157,-3.8036,-3.7933,-3.7846,-3.7757,-3.7577,-3.7449,-3.7373,-3.7241,-3.7106,-3.6989,-3.6811,-3.6647,-3.6502,-3.6356,-3.6229,-3.6101,-3.6014,-3.5927,-3.58,-3.5734,-3.5661,-3.5639,-3.5616,-3.5616,-3.5616,-3.5616,-3.5616,-3.5616,-3.5616,-3.5616,-3.5616,-3.5616,-3.5616,-3.5616,-3.5616,-3.5616,-5.0898,-5.0898,-5.0898,-5.0898,-5.0647,-4.9107,-4.8411,-4.8179,-4.6535,-4.5807,-4.5807,-4.5807,-4.5807,-4.5807,-4.5807,-4.5807,-4.5807,-4.5807,-4.5807,-4.5807,-4.5807,-4.5805,-4.5795,-4.5712,-4.526,-4.4429,-4.3533,-4.2618,-4.1703,-4.0846,-4.0335,-4.0206,-4.0138,-4.0055,-3.9881,-3.9758,-3.9715,-3.9693,-3.9602,-3.9546,-3.9495,-3.9399,-3.9301,-3.9197,-3.9142,-3.9101,-3.9101,-3.9101,-3.9101,-3.9101,-3.9101,-3.9101,-3.9101,-3.905,-3.8964,-3.891,-3.8837,-3.8762,-3.8704,-3.8707,-3.8707,-3.8707,-3.8707,-3.8707,-3.8707,-3.8707,-3.8707,-3.8707,-3.8707,-3.8707,-3.8707,-3.8707,-3.8658,-3.8559,-3.8481,-3.8368,-3.829,-3.8242,-3.8192,-3.814,-3.8054,-3.7933,-3.7828,-3.7703,-3.7559,-3.7429,-3.7317,-3.7203,-3.7087,-3.6911,-3.6748,-3.6664,-3.6502,-3.6374,-3.6247,-3.6144,-3.6058,-3.5954,-3.5844,-3.5706,-3.5661,-3.5616,-3.5616,-3.5616,-3.5616,-3.5616,-3.5616,-3.5616,-3.5616,-3.5616,-3.5616,-3.5616,-3.5616,-3.5616,-3.5616,-5.0898,-5.0898,-5.0898,-5.0898,-5.0685,-4.9107,-4.8411,-4.8063,-4.6573,-4.5807,-4.5807,-4.5807,-4.5807,-4.5807,-4.5807,-4.5807,-4.5807,-4.5807,-4.5807,-4.5807,-4.5807,-4.5812,-4.5783,-4.5734,-4.5457,-4.4858,-4.3673,-4.2854,-4.2123,-4.1027,-4.0382,-4.0243,-4.0147,-4.0057,-3.9975,-3.9834,-3.9731,-3.9691,-3.965,-3.9608,-3.9546,-3.9482,-3.9412,-3.9315,-3.9215,-3.9129,-3.9115,-3.9101,-3.9101,-3.9101,-3.9101,-3.9101,-3.9101,-3.9078,-3.8974,-3.8925,-3.8866,-3.8807,-3.8719,-3.8707,-3.8707,-3.8707,-3.8707,-3.8707,-3.8707,-3.8707,-3.8707,-3.8707,-3.8707,-3.8707,-3.8707,-3.8707,-3.8658,-3.8609,-3.8481,-3.8366,-3.8305,-3.8242,-3.8209,-3.8174,-3.8088,-3.7984,-3.7899,-3.7792,-3.7667,-3.7504,-3.7411,-3.7298,-3.7184,-3.7009,-3.6849,-3.6748,-3.6626,-3.6461,-3.6335,-3.6272,-3.6182,-3.6079,-3.5932,-3.5795,-3.5706,-3.5622,-3.5616,-3.5616,-3.5616,-3.5616,-3.5616,-3.5616,-3.5616,-3.5616,-3.5616,-3.5616,-3.5616,-3.5616,-3.5616,-5.0898,-5.0898,-5.0898,-5.084,-5.0511,-4.9088,-4.8314,-4.7927,-4.6496,-4.5807,-4.5807,-4.5807,-4.5807,-4.5807,-4.5807,-4.5807,-4.5807,-4.5807,-4.5807,-4.5807,-4.5807,-4.58,-4.5812,-4.5795,-4.57,-4.5314,-4.3906,-4.3168,-4.2486,-4.1227,-4.0428,-4.0289,-4.0158,-4.0098,-4.0046,-3.9911,-3.9781,-3.972,-3.9698,-3.9657,-3.9596,-3.9533,-3.9482,-3.9457,-3.9269,-3.917,-3.9129,-3.9115,-3.9101,-3.9101,-3.9101,-3.9101,-3.9101,-3.9101,-3.9017,-3.8939,-3.8896,-3.8855,-3.8719,-3.8707,-3.8707,-3.8707,-3.8707,-3.8707,-3.8707,-3.8707,-3.8707,-3.8707,-3.8707,-3.8707,-3.8707,-3.8707,-3.8692,-3.8658,-3.8512,-3.8385,-3.8323,-3.8259,-3.8209,-3.8192,-3.807,-3.8003,-3.7916,-3.781,-3.7685,-3.7595,-3.7467,-3.7373,-3.726,-3.7106,-3.697,-3.6831,-3.6708,-3.6564,-3.6461,-3.6377,-3.6272,-3.6182,-3.6036,-3.5905,-3.5756,-3.5689,-3.5622,-3.5616,-3.5616,-3.5616,-3.5616,-3.5616,-3.5616,-3.5616,-3.5616,-3.5616,-3.5616,-3.5616,-3.5616,-5.0898,-5.0898,-5.0898,-5.0531,-4.9842,-4.8836,-4.8005,-4.7308,-4.6264,-4.5807,-4.5807,-4.5807,-4.5807,-4.5807,-4.5807,-4.5807,-4.5807,-4.5807,-4.5807,-4.5807,-4.5807,-4.5807,-4.5819,-4.5803,-4.5746,-4.5264,-4.3925,-4.3126,-4.2626,-4.1379,-4.0407,-4.0353,-4.0234,-4.0157,-4.0077,-3.9954,-3.9804,-3.9731,-3.971,-3.9681,-3.962,-3.9546,-3.9508,-3.9482,-3.9328,-3.9229,-3.9188,-3.9129,-3.9101,-3.9101,-3.9101,-3.9101,-3.9101,-3.9101,-3.9031,-3.8935,-3.891,-3.8837,-3.8719,-3.8707,-3.8707,-3.8707,-3.8707,-3.8707,-3.8707,-3.8707,-3.8707,-3.8707,-3.8707,-3.8707,-3.8707,-3.8707,-3.8707,-3.8658,-3.8512,-3.8399,-3.8368,-3.8272,-3.8209,-3.8192,-3.8157,-3.8105,-3.8003,-3.7916,-3.7792,-3.7667,-3.7559,-3.7411,-3.7317,-3.7203,-3.7087,-3.695,-3.6849,-3.6708,-3.6585,-3.6482,-3.6356,-3.6268,-3.6122,-3.6014,-3.5888,-3.5756,-3.5711,-3.5644,-3.5616,-3.5616,-3.5616,-3.5616,-3.5616,-3.5616,-3.5616,-3.5616,-3.5616,-3.5616,-3.5616,-4.9718,-4.9718,-4.9726,-4.9494,-4.8991,-4.8179,-4.7521,-4.698,-4.6194,-4.5807,-4.5807,-4.5807,-4.5807,-4.5807,-4.5807,-4.5807,-4.5807,-4.5807,-4.5807,-4.5807,-4.5807,-4.5807,-4.5807,-4.5747,-4.5621,-4.5017,-4.3821,-4.3042,-4.2255,-4.1259,-4.0432,-4.0398,-4.0272,-4.0167,-4.0087,-3.9986,-3.987,-3.977,-3.9743,-3.9703,-3.9657,-3.9608,-3.9546,-3.9508,-3.9399,-3.9315,-3.9197,-3.9151,-3.9129,-3.9115,-3.9101,-3.9101,-3.9101,-3.9101,-3.9031,-3.8921,-3.891,-3.8837,-3.8753,-3.8707,-3.8707,-3.8707,-3.8707,-3.8707,-3.8707,-3.8707,-3.8707,-3.8707,-3.8707,-3.8707,-3.8707,-3.8707,-3.8707,-3.8658,-3.8562,-3.8446,-3.8382,-3.8272,-3.8209,-3.8209,-3.8192,-3.814,-3.8037,-3.7968,-3.7863,-3.7703,-3.7667,-3.7541,-3.7411,-3.7298,-3.7203,-3.7087,-3.697,-3.6849,-3.6728,-3.6606,-3.6461,-3.6356,-3.6229,-3.6165,-3.6062,-3.591,-3.5778,-3.5734,-3.5684,-3.5616,-3.5616,-3.5616,-3.5616,-3.5616,-3.5616,-3.5616,-3.5616,-3.5616,-3.5616,-4.8411,-4.8411,-4.8411,-4.8333,-4.8101,-4.7424,-4.7038,-4.6767,-4.6136,-4.5807,-4.5807,-4.5807,-4.5807,-4.5807,-4.5807,-4.5807,-4.5807,-4.5807,-4.5807,-4.5807,-4.5807,-4.5807,-4.5787,-4.5561,-4.5063,-4.4293,-4.3562,-4.2803,-4.1921,-4.1011,-4.0488,-4.0398,-4.0289,-4.0206,-4.0118,-4.0046,-3.9943,-3.9826,-3.9792,-3.9735,-3.9698,-3.9693,-3.962,-3.9546,-3.9482,-3.9412,-3.9296,-3.9237,-3.9215,-3.9147,-3.9115,-3.9115,-3.9101,-3.9101,-3.9045,-3.8939,-3.8925,-3.8855,-3.875,-3.8704,-3.8707,-3.8707,-3.8707,-3.8707,-3.8707,-3.8707,-3.8707,-3.8707,-3.8707,-3.8707,-3.8707,-3.8707,-3.8707,-3.8673,-3.8575,-3.8478,-3.8382,-3.8289,-3.8224,-3.8209,-3.8192,-3.8157,-3.8088,-3.8037,-3.788,-3.7774,-3.7739,-3.7649,-3.7522,-3.7392,-3.7298,-3.7222,-3.7126,-3.7007,-3.6869,-3.6728,-3.6585,-3.6461,-3.6356,-3.6293,-3.6191,-3.6084,-3.5932,-3.5795,-3.5728,-3.5684,-3.5639,-3.5616,-3.5616,-3.5616,-3.5616,-3.5616,-3.5616,-3.5616,-3.5616,-4.8411,-4.8411,-4.8411,-4.7985,-4.7347,-4.7134,-4.6677,-4.6058,-4.5904,-4.5807,-4.5807,-4.5807,-4.5807,-4.5807,-4.5807,-4.5807,-4.5807,-4.5807,-4.5807,-4.5807,-4.5807,-4.5807,-4.5722,-4.5181,-4.442,-4.3664,-4.3178,-4.2644,-4.1782,-4.0992,-4.0532,-4.0396,-4.0316,-4.0262,-4.0177,-4.0108,-4.0026,-3.9911,-3.9856,-3.9781,-3.9731,-3.9698,-3.9669,-3.9577,-3.9546,-3.9495,-3.9457,-3.9386,-3.9301,-3.9215,-3.9183,-3.9156,-3.9115,-3.9115,-3.9045,-3.8979,-3.8939,-3.8866,-3.8777,-3.8735,-3.8689,-3.8707,-3.8707,-3.8707,-3.8707,-3.8707,-3.8707,-3.8707,-3.8707,-3.8707,-3.8707,-3.8707,-3.8707,-3.8658,-3.8593,-3.8494,-3.8399,-3.832,-3.8239,-3.8225,-3.8191,-3.8174,-3.8122,-3.8088,-3.7984,-3.788,-3.7809,-3.7739,-3.7631,-3.7504,-3.7411,-3.7354,-3.7298,-3.7163,-3.7007,-3.6869,-3.6728,-3.6585,-3.6464,-3.6402,-3.6318,-3.6212,-3.6101,-3.5949,-3.5817,-3.5728,-3.5684,-3.5622,-3.5616,-3.5616,-3.5616,-3.5616,-3.5616,-3.5616,-3.5616,-4.7045,-4.7057,-4.7064,-4.6832,-4.6484,-4.6426,-4.6206,-4.5845,-4.5807,-4.5807,-4.5807,-4.5807,-4.5807,-4.5807,-4.5807,-4.5807,-4.5807,-4.5807,-4.5807,-4.5807,-4.5807,-4.5807,-4.5664,-4.4949,-4.4136,-4.3381,-4.2825,-4.2126,-4.1253,-4.0816,-4.0526,-4.0449,-4.0379,-4.0308,-4.0225,-4.0167,-4.0087,-4.0015,-3.9933,-3.9859,-3.9781,-3.975,-3.9679,-3.9638,-3.962,-3.9571,-3.9495,-3.9469,-3.9399,-3.9315,-3.9242,-3.9202,-3.9156,-3.9115,-3.9059,-3.9026,-3.8983,-3.891,-3.8822,-3.8762,-3.8735,-3.8707,-3.8707,-3.8707,-3.8707,-3.8707,-3.8707,-3.8707,-3.8707,-3.8707,-3.8707,-3.8707,-3.8707,-3.8692,-3.8643,-3.8559,-3.8462,-3.8385,-3.8322,-3.8257,-3.8224,-3.8191,-3.8174,-3.8122,-3.8088,-3.8002,-3.7915,-3.7809,-3.7721,-3.7631,-3.754,-3.7429,-3.7373,-3.7241,-3.7106,-3.6987,-3.6869,-3.669,-3.6568,-3.6506,-3.6423,-3.6356,-3.6229,-3.6079,-3.5949,-3.5817,-3.5711,-3.5667,-3.5644,-3.5616,-3.5616,-3.5616,-3.5616,-3.5616,-3.5616,-4.5807,-4.5807,-4.5807,-4.5807,-4.5807,-4.5807,-4.5826,-4.5807,-4.5807,-4.5807,-4.5807,-4.5807,-4.5807,-4.5807,-4.5807,-4.5807,-4.5807,-4.5807,-4.5807,-4.5807,-4.5787,-4.5761,-4.5336,-4.4697,-4.3788,-4.2853,-4.2118,-4.137,-4.0858,-4.0622,-4.0581,-4.051,-4.0452,-4.0353,-4.0233,-4.0215,-4.0157,-4.0108,-4.0038,-3.9975,-3.9889,-3.98,-3.9708,-3.9698,-3.9717,-3.9638,-3.9571,-3.9546,-3.9508,-3.9412,-3.9328,-3.9269,-3.9224,-3.9156,-3.9106,-3.905,-3.9021,-3.8921,-3.8862,-3.8803,-3.8792,-3.8765,-3.8753,-3.8735,-3.8704,-3.8704,-3.8707,-3.8707,-3.8707,-3.8707,-3.8707,-3.8707,-3.8707,-3.8707,-3.8692,-3.8676,-3.8528,-3.843,-3.8368,-3.8305,-3.8276,-3.8225,-3.8191,-3.8174,-3.814,-3.807,-3.7984,-3.7932,-3.7845,-3.7792,-3.7685,-3.7522,-3.7411,-3.7317,-3.7203,-3.7106,-3.697,-3.6851,-3.6728,-3.6626,-3.6544,-3.6461,-3.6335,-3.6208,-3.6096,-3.5949,-3.5839,-3.5689,-3.5644,-3.5616,-3.5616,-3.5616,-3.5616,-3.5616,-3.5616,-4.5807,-4.5807,-4.5807,-4.5807,-4.5807,-4.5807,-4.5807,-4.5807,-4.5807,-4.5807,-4.5807,-4.5807,-4.5807,-4.5807,-4.5807,-4.5807,-4.5807,-4.5807,-4.5807,-4.5807,-4.571,-4.5355,-4.4717,-4.3866,-4.3092,-4.228,-4.1442,-4.0887,-4.064,-4.0591,-4.0569,-4.0526,-4.0493,-4.0432,-4.0307,-4.0243,-4.0196,-4.0167,-4.0108,-4.0017,-3.9922,-3.9845,-3.9758,-3.9731,-3.9708,-3.9691,-3.9669,-3.9638,-3.9608,-3.9508,-3.9482,-3.9444,-3.9391,-3.9242,-3.9197,-3.9142,-3.9078,-3.8997,-3.8968,-3.8906,-3.8862,-3.8851,-3.8885,-3.8818,-3.8792,-3.8732,-3.8719,-3.8707,-3.8707,-3.8704,-3.8704,-3.8707,-3.8707,-3.8707,-3.8707,-3.8643,-3.8544,-3.8494,-3.8415,-3.837,-3.8307,-3.8259,-3.8225,-3.8209,-3.8192,-3.8122,-3.807,-3.8019,-3.795,-3.7881,-3.7828,-3.7685,-3.754,-3.7411,-3.7336,-3.7241,-3.7106,-3.697,-3.6871,-3.6748,-3.6647,-3.6564,-3.6444,-3.6297,-3.6187,-3.6075,-3.5927,-3.5778,-3.5667,-3.5616,-3.5616,-3.5616,-3.5616,-3.5616,-3.5616,-4.5807,-4.5807,-4.5807,-4.5807,-4.5807,-4.5807,-4.5807,-4.5807,-4.5807,-4.5807,-4.5807,-4.5807,-4.5807,-4.5807,-4.5807,-4.5807,-4.5807,-4.5807,-4.5807,-4.5606,-4.5355,-4.4949,-4.4349,-4.3285,-4.226,-4.1893,-4.1274,-4.0849,-4.0661,-4.0619,-4.0576,-4.0554,-4.0526,-4.0485,-4.0388,-4.0307,-4.0252,-4.0225,-4.0206,-4.0098,-4.0007,-3.9924,-3.987,-3.9823,-3.9789,-3.9743,-3.9715,-3.9703,-3.9686,-3.9589,-3.9546,-3.9483,-3.9438,-3.9354,-3.9296,-3.9301,-3.9261,-3.9152,-3.9007,-3.8983,-3.8954,-3.8925,-3.891,-3.8862,-3.8866,-3.8837,-3.8807,-3.8825,-3.878,-3.8747,-3.8732,-3.8704,-3.8707,-3.8707,-3.8707,-3.8673,-3.8609,-3.8525,-3.8444,-3.8401,-3.8372,-3.8307,-3.8276,-3.8225,-3.8209,-3.8192,-3.8122,-3.8088,-3.802,-3.7916,-3.7863,-3.781,-3.7685,-3.7559,-3.7467,-3.7392,-3.7223,-3.7108,-3.7031,-3.6911,-3.6748,-3.6647,-3.6527,-3.6402,-3.6272,-3.6144,-3.6014,-3.5861,-3.5751,-3.5684,-3.5616,-3.5639,-3.5622,-3.5616,-3.5616,-4.5807,-4.5807,-4.5807,-4.5807,-4.5807,-4.5807,-4.5807,-4.5807,-4.5807,-4.5807,-4.5807,-4.5807,-4.5807,-4.5807,-4.5807,-4.5807,-4.5807,-4.5807,-4.5645,-4.5316,-4.4891,-4.4362,-4.3595,-4.2512,-4.1932,-4.1699,-4.1126,-4.0797,-4.0733,-4.0647,-4.0586,-4.0588,-4.0538,-4.0499,-4.0485,-4.0405,-4.0334,-4.027,-4.0215,-4.0148,-4.0108,-4.0057,-3.9986,-3.9943,-3.9889,-3.9815,-3.9777,-3.9724,-3.9738,-3.9679,-3.9613,-3.9576,-3.9564,-3.947,-3.9413,-3.9406,-3.9367,-3.9288,-3.9147,-3.9078,-3.9007,-3.8964,-3.8939,-3.8921,-3.8921,-3.8925,-3.891,-3.8896,-3.8866,-3.8837,-3.8807,-3.8765,-3.875,-3.8719,-3.8723,-3.8707,-3.8673,-3.8609,-3.8525,-3.8462,-3.8401,-3.8372,-3.8307,-3.8257,-3.8225,-3.8209,-3.8192,-3.814,-3.8089,-3.7985,-3.7951,-3.7916,-3.7828,-3.7703,-3.7595,-3.7504,-3.7355,-3.7242,-3.7166,-3.705,-3.6871,-3.6748,-3.6647,-3.6502,-3.6287,-3.6251,-3.6122,-3.5971,-3.5817,-3.5751,-3.5706,-3.5644,-3.5622,-3.5588,-3.5532,-4.5807,-4.5807,-4.5807,-4.5807,-4.5807,-4.5807,-4.5807,-4.5807,-4.5807,-4.5807,-4.5807,-4.5807,-4.5807,-4.5807,-4.5807,-4.5807,-4.5807,-4.5807,-4.5355,-4.491,-4.4504,-4.3595,-4.2763,-4.2086,-4.1583,-4.1081,-4.0835,-4.081,-4.0778,-4.0668,-4.0619,-4.0588,-4.0543,-4.0503,-4.0491,-4.0466,-4.0396,-4.0325,-4.0233,-4.0206,-4.0177,-4.0128,-4.0077,-4.0086,-4.0026,-3.9954,-3.9889,-3.9826,-3.977,-3.9731,-3.9689,-3.9665,-3.9637,-3.9576,-3.9508,-3.9496,-3.9483,-3.9406,-3.9309,-3.9229,-3.9175,-3.9106,-3.905,-3.904,-3.9036,-3.8935,-3.8906,-3.8939,-3.8906,-3.8877,-3.8862,-3.8851,-3.8792,-3.8795,-3.8783,-3.8738,-3.8723,-3.8692,-3.8609,-3.8525,-3.8462,-3.8417,-3.837,-3.8322,-3.8259,-3.8225,-3.8209,-3.8175,-3.8157,-3.8071,-3.8019,-3.7984,-3.7934,-3.7828,-3.7721,-3.7595,-3.7503,-3.7355,-3.7261,-3.7147,-3.6989,-3.6853,-3.6486,-3.6293,-3.6066,-3.6149,-3.6113,-3.5642,-3.5412,-3.5691,-3.5705,-3.5433,-3.5198,-3.5057,-3.5154,-4.5847,-4.5807,-4.5807,-4.5807,-4.5807,-4.5807,-4.5807,-4.5807,-4.5807,-4.5807,-4.5807,-4.5807,-4.5807,-4.5807,-4.5807,-4.5807,-4.5722,-4.522,-4.4871,-4.4272,-4.3556,-4.2686,-4.1912,-4.1487,-4.1067,-4.0855,-4.0797,-4.0797,-4.0784,-4.0681,-4.0628,-4.0586,-4.0546,-4.0516,-4.0492,-4.0499,-4.0449,-4.0379,-4.0307,-4.0271,-4.0243,-4.0186,-4.0166,-4.0157,-4.0106,-4.0057,-4.0026,-3.9954,-3.99,-3.9845,-3.9781,-3.9758,-3.9724,-3.9665,-3.9642,-3.9611,-3.9588,-3.9539,-3.9452,-3.9393,-3.9315,-3.9288,-3.928,-3.9239,-3.9207,-3.9133,-3.9087,-3.9078,-3.9007,-3.8964,-3.895,-3.891,-3.8866,-3.8851,-3.8825,-3.878,-3.875,-3.8719,-3.8673,-3.859,-3.8525,-3.8462,-3.8415,-3.8385,-3.8307,-3.8225,-3.8209,-3.8192,-3.8192,-3.8157,-3.8105,-3.807,-3.8038,-3.7968,-3.7845,-3.7757,-3.7631,-3.745,-3.7285,-3.7049,-3.6775,-3.6338,-3.6029,-3.5891,-3.5615,-3.5339,-3.51,-3.4915,-3.5015,-3.5378,-3.5241,-3.4912,-3.4712,-3.4546,-3.4588,-4.586,-4.5821,-4.5807,-4.5807,-4.5807,-4.5807,-4.5807,-4.5807,-4.5807,-4.5807,-4.5807,-4.5807,-4.5807,-4.5761,-4.549,-4.5432,-4.5142,-4.4601,-4.4091,-4.346,-4.2667,-4.1912,-4.1506,-4.1177,-4.0874,-4.0797,-4.0797,-4.0797,-4.079,-4.0733,-4.0661,-4.06,-4.0549,-4.0539,-4.0508,-4.0503,-4.0482,-4.0413,-4.0388,-4.0353,-4.0335,-4.0272,-4.0244,-4.0234,-4.0176,-4.0137,-4.0098,-4.0057,-4.0015,-3.9954,-3.9922,-3.9878,-3.9834,-3.98,-3.9777,-3.9766,-3.9712,-3.9665,-3.957,-3.9452,-3.9399,-3.9373,-3.9373,-3.9391,-3.9373,-3.9315,-3.9261,-3.9229,-3.9147,-3.9064,-3.905,-3.8993,-3.8935,-3.8925,-3.8866,-3.884,-3.8795,-3.8765,-3.8719,-3.8673,-3.8609,-3.8559,-3.8444,-3.8415,-3.8354,-3.8274,-3.8225,-3.8209,-3.8192,-3.8192,-3.8192,-3.8157,-3.8123,-3.8053,-3.7984,-3.7844,-3.7649,-3.7113,-3.6916,-3.6629,-3.6324,-3.5875,-3.5497,-3.5294,-3.4934,-3.4418,-3.4356,-3.4466,-3.4774,-3.5107,-3.477,-3.4315,-3.4239,-3.4053,-3.3892,-4.59,-4.5893,-4.5821,-4.5807,-4.5807,-4.5807,-4.5807,-4.5807,-4.5807,-4.5807,-4.5787,-4.5768,-4.5691,-4.5536,-4.4949,-4.4639,-4.4407,-4.3711,-4.3034,-4.2396,-4.2028,-4.1487,-4.1145,-4.0835,-4.0797,-4.0797,-4.0797,-4.0797,-4.0797,-4.0746,-4.0668,-4.0633,-4.0603,-4.0565,-4.0496,-4.0496,-4.0503,-4.0491,-4.0474,-4.0441,-4.0407,-4.0335,-4.0317,-4.029,-4.0234,-4.0186,-4.0177,-4.0147,-4.0106,-4.0067,-4.0057,-4.0036,-4.0026,-3.9933,-3.99,-3.9889,-3.98,-3.9724,-3.9689,-3.9508,-3.9451,-3.9451,-3.9476,-3.9451,-3.9412,-3.9386,-3.9386,-3.9354,-3.9256,-3.9215,-3.9161,-3.9092,-3.9036,-3.8993,-3.8954,-3.8896,-3.8851,-3.8792,-3.8747,-3.8719,-3.8689,-3.864,-3.8525,-3.8428,-3.8385,-3.8305,-3.8241,-3.8225,-3.8242,-3.8242,-3.8241,-3.8225,-3.8172,-3.7904,-3.7817,-3.7856,-3.7608,-3.7037,-3.6521,-3.622,-3.5758,-3.5226,-3.4906,-3.4689,-3.4245,-3.3732,-3.3916,-3.4202,-3.4135,-3.3942,-3.3976,-3.3707,-3.3652,-3.3478,-3.3179,-4.5938,-4.59,-4.5886,-4.5827,-4.5807,-4.5807,-4.5807,-4.5807,-4.5807,-4.5807,-4.5671,-4.5278,-4.5007,-4.4755,-4.4194,-4.373,-4.3576,-4.286,-4.2106,-4.197,-4.1525,-4.1126,-4.0835,-4.0797,-4.0797,-4.0797,-4.0797,-4.0797,-4.0797,-4.0778,-4.0733,-4.068,-4.0617,-4.0573,-4.0523,-4.0496,-4.05,-4.0503,-4.0507,-4.0493,-4.0468,-4.0396,-4.0351,-4.0351,-4.0308,-4.0272,-4.0272,-4.0215,-4.0186,-4.0147,-4.0138,-4.0108,-4.0117,-4.0036,-4.0026,-4.0026,-3.9954,-3.9922,-3.9826,-3.9696,-3.9582,-3.9588,-3.9576,-3.957,-3.9589,-3.9521,-3.9483,-3.9451,-3.938,-3.9341,-3.932,-3.9202,-3.9129,-3.912,-3.9064,-3.8997,-3.8939,-3.8851,-3.8777,-3.8747,-3.8735,-3.8689,-3.8609,-3.8525,-3.8465,-3.8433,-3.8387,-3.8338,-3.8338,-3.8338,-3.8354,-3.8307,-3.8185,-3.7827,-3.7612,-3.7382,-3.6916,-3.6185,-3.587,-3.5697,-3.5203,-3.4584,-3.4287,-3.4076,-3.3547,-3.3089,-3.3226,-3.3219,-3.2796,-3.2596,-3.2913,-3.2902,-3.2657,-3.2413,-3.2137,-4.5974,-4.5893,-4.5609,-4.5448,-4.5434,-4.5678,-4.5807,-4.5749,-4.5517,-4.5374,-4.52,-4.4523,-4.4156,-4.3885,-4.3305,-4.2841,-4.2763,-4.199,-4.1583,-4.1506,-4.1106,-4.0874,-4.0816,-4.0797,-4.0797,-4.0797,-4.0797,-4.0797,-4.0797,-4.0797,-4.0746,-4.0673,-4.0617,-4.0573,-4.0523,-4.0496,-4.0496,-4.05,-4.0503,-4.0495,-4.0479,-4.0447,-4.0432,-4.0405,-4.037,-4.0344,-4.0326,-4.029,-4.0263,-4.0225,-4.0196,-4.0157,-4.0166,-4.0147,-4.0118,-4.0137,-4.0106,-4.0046,-3.9954,-3.9911,-3.9845,-3.9811,-3.9747,-3.9708,-3.971,-3.9625,-3.9588,-3.9558,-3.9502,-3.9445,-3.9419,-3.9304,-3.9256,-3.9229,-3.9161,-3.9078,-3.8997,-3.8892,-3.8818,-3.8807,-3.8762,-3.8735,-3.8707,-3.864,-3.8559,-3.8544,-3.8528,-3.8426,-3.8342,-3.8323,-3.8143,-3.7933,-3.7776,-3.7346,-3.6935,-3.6633,-3.6096,-3.5363,-3.5175,-3.506,-3.4458,-3.3841,-3.364,-3.3454,-3.3071,-3.2721,-3.2406,-3.2195,-3.2246,-3.2224,-3.2323,-3.2143,-3.1707,-3.1653,-3.1615,-4.5919,-4.5778,-4.5031,-4.4627,-4.4705,-4.524,-4.5594,-4.5587,-4.4871,-4.4574,-4.4478,-4.3634,-4.3266,-4.3073,-4.2357,-4.199,-4.1893,-4.1197,-4.1023,-4.0932,-4.0855,-4.0797,-4.0797,-4.0797,-4.0797,-4.0797,-4.0797,-4.0797,-4.0797,-4.0797,-4.0739,-4.0647,-4.0624,-4.058,-4.0539,-4.0496,-4.0496,-4.0489,-4.0489,-4.05,-4.0492,-4.0487,-4.0471,-4.0474,-4.0441,-4.0415,-4.0407,-4.037,-4.0344,-4.0307,-4.0298,-4.0309,-4.0272,-4.0234,-4.0215,-4.0186,-4.0147,-4.0117,-4.0077,-4.0057,-4.0017,-3.9954,-3.9845,-3.9766,-3.9701,-3.9701,-3.9684,-3.9649,-3.9588,-3.9545,-3.9489,-3.9407,-3.9335,-3.9283,-3.921,-3.9147,-3.905,-3.8964,-3.8906,-3.8881,-3.8822,-3.878,-3.8723,-3.8658,-3.8478,-3.8276,-3.8169,-3.7973,-3.7927,-3.8097,-3.7825,-3.7192,-3.6999,-3.6713,-3.6339,-3.5895,-3.5341,-3.4679,-3.4506,-3.4321,-3.3684,-3.3324,-3.3287,-3.3125,-3.2765,-3.2473,-3.2336,-3.2232,-3.2161,-3.2142,-3.2138,-3.1994,-3.1746,-3.1746,-3.1726,-4.4203,-4.4104,-4.3879,-4.3765,-4.3768,-4.3937,-4.4028,-4.3962,-4.375,-4.3672,-4.3614,-4.2763,-4.2396,-4.228,-4.1525,-4.1235,-4.1061,-4.0926,-4.0874,-4.0797,-4.0797,-4.0797,-4.0797,-4.0797,-4.0797,-4.0797,-4.0797,-4.0797,-4.0797,-4.0797,-4.0771,-4.0687,-4.0626,-4.0591,-4.0554,-4.0531,-4.0496,-4.0496,-4.0496,-4.0496,-4.0496,-4.0492,-4.0492,-4.0495,-4.0482,-4.0466,-4.0458,-4.0432,-4.0388,-4.037,-4.037,-4.0372,-4.0372,-4.0308,-4.0262,-4.0263,-4.0225,-4.0176,-4.0166,-4.0127,-4.0087,-4.0058,-4.0005,-3.9911,-3.9826,-3.9781,-3.9758,-3.9724,-3.9689,-3.9623,-3.9606,-3.9539,-3.947,-3.9388,-3.9304,-3.921,-3.9115,-3.905,-3.8993,-3.8939,-3.8881,-3.8777,-3.8719,-3.8524,-3.8325,-3.8028,-3.7753,-3.7469,-3.7399,-3.7534,-3.7302,-3.6632,-3.6306,-3.6039,-3.5556,-3.5096,-3.456,-3.4043,-3.3963,-3.3867,-3.356,-3.3288,-3.3109,-3.2916,-3.2739,-3.259,-3.2473,-3.2353,-3.2249,-3.2126,-3.2089,-3.1928,-3.1819,-3.1818,-3.18,-4.35,-4.3388,-4.3058,-4.2726,-4.2421,-4.234,-4.2297,-4.2376,-4.2621,-4.2783,-4.2686,-4.1912,-4.1525,-4.1474,-4.1067,-4.0855,-4.0855,-4.0835,-4.0797,-4.0797,-4.0797,-4.0797,-4.0797,-4.0797,-4.0797,-4.0797,-4.0797,-4.0797,-4.0797,-4.079,-4.0759,-4.07,-4.0628,-4.0612,-4.0569,-4.0558,-4.0496,-4.0496,-4.0496,-4.0496,-4.0496,-4.0496,-4.0496,-4.0489,-4.0503,-4.0495,-4.0487,-4.0447,-4.0438,-4.0441,-4.0432,-4.0424,-4.0407,-4.0325,-4.0298,-4.0291,-4.0272,-4.0253,-4.0215,-4.0215,-4.0166,-4.0109,-4.007,-4.0057,-3.9975,-3.9892,-3.987,-3.9856,-3.9781,-3.9724,-3.9696,-3.9668,-3.9595,-3.9508,-3.9413,-3.9285,-3.921,-3.9133,-3.9064,-3.8979,-3.8892,-3.8788,-3.8655,-3.8407,-3.8102,-3.7716,-3.7147,-3.6564,-3.6531,-3.6659,-3.6373,-3.5827,-3.5593,-3.5363,-3.4863,-3.4473,-3.4138,-3.3822,-3.3709,-3.3582,-3.3382,-3.3292,-3.3152,-3.2979,-3.2802,-3.269,-3.2574,-3.2473,-3.237,-3.2249,-3.2126,-3.2055,-3.1929,-3.1855,-3.1837,-4.3277,-4.3161,-4.2427,-4.1689,-4.0985,-4.0959,-4.0948,-4.0879,-4.164,-4.1899,-4.1764,-4.1164,-4.0893,-4.0971,-4.0816,-4.0797,-4.0797,-4.0797,-4.0797,-4.0797,-4.0797,-4.0797,-4.0797,-4.0797,-4.0797,-4.0797,-4.0797,-4.0797,-4.0797,-4.079,-4.0759,-4.07,-4.0635,-4.06,-4.0583,-4.0565,-4.0523,-4.0496,-4.0496,-4.0496,-4.0496,-4.0496,-4.0496,-4.0496,-4.0489,-4.0489,-4.0489,-4.05,-4.05,-4.0507,-4.0482,-4.0447,-4.0405,-4.0159,-4.0152,-3.9982,-3.9831,-3.9698,-3.9651,-3.9632,-3.9728,-3.9776,-3.9996,-3.9652,-3.9393,-3.9855,-3.9946,-3.9943,-3.99,-3.9826,-3.98,-3.9724,-3.9654,-3.957,-3.9464,-3.9389,-3.9311,-3.9168,-3.8952,-3.8827,-3.8524,-3.8387,-3.7912,-3.761,-3.7177,-3.7033,-3.6615,-3.583,-3.5569,-3.5679,-3.5481,-3.5045,-3.4885,-3.4687,-3.4348,-3.3995,-3.3858,-3.3637,-3.3563,-3.3491,-3.3452,-3.3352,-3.3216,-3.3075,-3.2948,-3.2802,-3.2688,-3.2607,-3.2524,-3.2388,-3.2266,-3.2197,-3.2073,-3.1947,-3.1874,-4.1596,-4.1576,-4.1325,-4.1077,-4.0913,-4.0888,-4.0877,-4.0872,-4.0995,-4.1122,-4.1059,-4.0918,-4.0796,-4.0803,-4.0797,-4.0797,-4.0797,-4.0797,-4.0797,-4.0797,-4.0797,-4.0797,-4.0797,-4.0797,-4.0797,-4.0797,-4.0797,-4.0797,-4.0797,-4.0797,-4.079,-4.0778,-4.0707,-4.064,-4.0586,-4.0569,-4.0558,-4.0496,-4.0496,-4.0496,-4.0496,-4.0496,-4.0496,-4.0496,-4.0496,-4.0496,-4.0496,-4.0458,-4.0469,-4.05,-4.05,-4.0476,-4.0455,-3.9816,-3.9484,-3.9306,-3.8916,-3.8757,-3.8682,-3.8692,-3.8694,-3.8523,-3.8448,-3.8335,-3.8584,-3.9508,-3.9991,-3.9981,-4.0015,-3.9943,-3.987,-3.9815,-3.9728,-3.9647,-3.9556,-3.9483,-3.9371,-3.9055,-3.8811,-3.8461,-3.8137,-3.7706,-3.7233,-3.6752,-3.6305,-3.5928,-3.5605,-3.5078,-3.4596,-3.4504,-3.4633,-3.4325,-3.4211,-3.3995,-3.3766,-3.3753,-3.3726,-3.3698,-3.3661,-3.3591,-3.3524,-3.3408,-3.3292,-3.3216,-3.3091,-3.2948,-3.2852,-3.2789,-3.2674,-3.2541,-3.2405,-3.2301,-3.2214,-3.209,-3.1984,-4.098,-4.098,-4.0974,-4.0945,-4.0941,-4.0913,-4.0903,-4.0898,-4.0849,-4.0848,-4.084,-4.0823,-4.0812,-4.0814,-4.0802,-4.0796,-4.0815,-4.0797,-4.0797,-4.0797,-4.0797,-4.0797,-4.0797,-4.0797,-4.0797,-4.0797,-4.0797,-4.0797,-4.0797,-4.0797,-4.079,-4.079,-4.072,-4.0661,-4.0614,-4.0591,-4.0573,-4.0496,-4.0496,-4.0458,-4.0458,-4.0496,-4.0496,-4.0496,-4.0496,-4.0458,-4.0342,-4.0227,-3.9977,-3.9765,-3.9527,-3.9308,-3.9162,-3.885,-3.8634,-3.8484,-3.8211,-3.7868,-3.7814,-3.7748,-3.7702,-3.7638,-3.7734,-3.7955,-3.7968,-3.8784,-3.9119,-3.9214,-3.9944,-3.9996,-3.9986,-3.9933,-3.9859,-3.9792,-3.9618,-3.9491,-3.8851,-3.8197,-3.7908,-3.7575,-3.7334,-3.7178,-3.6689,-3.6118,-3.5722,-3.5423,-3.5009,-3.4578,-3.4045,-3.3807,-3.3807,-3.3807,-3.3807,-3.3807,-3.3793,-3.3793,-3.3762,-3.3753,-3.3744,-3.3633,-3.3534,-3.3452,-3.3382,-3.3292,-3.3216,-3.3106,-3.2997,-3.2918,-3.2821,-3.2691,-3.2541,-3.2422,-3.2318,-3.2232,-3.2126,-4.098,-4.0992,-4.0975,-4.0991,-4.0987,-4.0945,-4.0897,-4.0912,-4.0931,-4.0898,-4.0888,-4.0848,-4.0818,-4.0796,-4.0798,-4.0812,-4.0794,-4.0796,-4.0809,-4.0803,-4.0797,-4.0797,-4.0797,-4.0797,-4.0797,-4.0797,-4.0797,-4.0797,-4.0797,-4.0797,-4.079,-4.0765,-4.0746,-4.0674,-4.0614,-4.0598,-4.0569,-4.0462,-4.0369,-4.0285,-4.0362,-4.0439,-4.0381,-4.0381,-4.0342,-4.0304,-3.9977,-3.9631,-3.9188,-3.8957,-3.8604,-3.845,-3.8166,-3.8009,-3.7821,-3.7671,-3.7406,-3.7295,-3.7336,-3.7233,-3.7301,-3.7416,-3.7589,-3.7573,-3.7491,-3.7734,-3.8074,-3.8517,-3.9271,-3.9679,-3.9659,-3.9647,-3.9596,-3.9494,-3.9323,-3.915,-3.8247,-3.7435,-3.7106,-3.6777,-3.6589,-3.6512,-3.5962,-3.5412,-3.5155,-3.4889,-3.4591,-3.4141,-3.382,-3.3807,-3.3807,-3.3807,-3.3807,-3.3807,-3.3807,-3.3807,-3.3793,-3.3775,-3.3739,-3.3643,-3.3563,-3.3509,-3.3455,-3.3367,-3.3292,-3.3201,-3.3091,-3.2997,-3.2902,-3.2821,-3.2707,-3.2558,-3.2439,-3.2336,-3.2249,-4.0983,-4.0996,-4.0992,-4.0992,-4.0988,-4.0984,-4.0975,-4.0982,-4.0958,-4.0945,-4.0927,-4.0893,-4.0854,-4.0807,-4.0801,-4.0815,-4.0809,-4.0806,-4.0814,-4.0808,-4.0809,-4.0803,-4.0797,-4.0797,-4.0797,-4.0797,-4.0797,-4.0797,-4.0797,-4.0797,-4.0797,-4.079,-4.079,-4.0746,-4.0668,-4.0595,-4.0444,-4.0272,-3.978,-3.9515,-3.9727,-3.9842,-3.9977,-3.9823,-3.9515,-3.9073,-3.8642,-3.8354,-3.8257,-3.818,-3.8007,-3.7834,-3.7577,-3.7224,-3.6998,-3.6844,-3.656,-3.6334,-3.6327,-3.63,-3.6331,-3.6213,-3.6243,-3.6178,-3.6278,-3.6661,-3.6908,-3.7067,-3.7686,-3.8184,-3.8271,-3.8337,-3.8298,-3.8171,-3.8014,-3.7851,-3.7333,-3.696,-3.6672,-3.6234,-3.5869,-3.5498,-3.4897,-3.4586,-3.4522,-3.4336,-3.4271,-3.3881,-3.3873,-3.3847,-3.382,-3.3807,-3.3807,-3.3807,-3.3807,-3.3807,-3.3807,-3.3807,-3.3762,-3.3698,-3.3633,-3.3549,-3.3495,-3.3422,-3.3367,-3.3277,-3.3168,-3.3091,-3.2997,-3.2902,-3.2821,-3.2707,-3.2557,-3.2456,-3.237]},{"header":{"parameterUnit":"m.s-1","parameterCategory":1,"la1":31.0,"la2":29.5877,"lo1":-88.7671,"lo2":-86.6584,"dy":0.0162,"dx":0.0185,"nx":115,"ny":88,"refTime":"2023-09-06T18:00:00:Z","depth":0,"parameterNumber":3,"parameterNumberName":"V-component_of_WINDS"},"data":[0.0,0.0,0.0,0.0,0.0,0.0,0.0,0.0,0.0,0.0,0.0,0.0,0.0,0.0,0.0,0.0,0.0,0.0,0.0,0.0,0.0,0.0,0.0,0.0,0.0,0.0,0.0,0.0,0.0,0.0,0.0,0.0,0.0,0.0,0.0,0.0,0.0,0.0,0.0,0.0,0.0,0.0,0.0,0.0,0.0,0.0,0.0,0.0,0.0,0.0,0.0,0.0,0.0,0.0,0.0,0.0,0.0,0.0,0.0,0.0,0.0,0.0,0.0,0.0,0.0,0.0,0.0,0.0,0.0,0.0,0.0,0.0,0.0,0.0,0.0,0.0,0.0,0.0,0.0,0.0,0.0,0.0,0.0,0.0,0.0,0.0,0.0,0.0,0.0,0.0,0.0,0.0,0.0,0.0,0.0,0.0,0.0,0.0,0.0,0.0,0.0,0.0,0.0,0.0,0.0,0.0,0.0,0.0,0.0,0.0,0.0,0.0,0.0,0.0,0.0,0.0,0.0,0.0,0.0,0.0,0.0,0.0,0.0,0.0,0.0,0.0,0.0,0.0,0.0,0.0,0.0,0.0,0.0,0.0,0.0,0.0,0.0,0.0,0.0,0.0,0.0,0.0,0.0,0.0,0.0,0.0,0.0,0.0,0.0,0.0,0.0,0.0,0.0,0.0,0.0,0.0,0.0,0.0,0.0,0.0,0.0,0.0,0.0,0.0,0.0,0.0,0.0,0.0,0.0,0.0,0.0,0.0,0.0,0.0,0.0,0.0,0.0,0.0,0.0,0.0,0.0,0.0,0.0,0.0,0.0,0.0,0.0,0.0,0.0,0.0,0.0,0.0,0.0,0.0,0.0,0.0,0.0,0.0,0.0,0.0,0.0,0.0,0.0,0.0,0.0,0.0,0.0,0.0,0.0,0.0,0.0,0.0,0.0,0.0,0.0,0.0,0.0,0.0,0.0,0.0,0.0,0.0,0.0,0.0,0.0,0.0,0.0,0.0,0.0,0.0,0.0,0.0,0.0,0.0,0.0,0.0,0.0,0.0,0.0,0.0,0.0,0.0,0.0,0.0,0.0,0.0,0.0,0.0,0.0,0.0,0.0,0.0,0.0,0.0,0.0,0.0,0.0,0.0,0.0,0.0,0.0,0.0,0.0,0.0,0.0,0.0,0.0,0.0,0.0,0.0,0.0,0.0,0.0,0.0,0.0,0.0,0.0,0.0,0.0,0.0,0.0,0.0,0.0,0.0,0.0,0.0,0.0,0.0,0.0,0.0,0.0,0.0,0.0,0.0,0.0,0.0,0.0,0.0,0.0,0.0,0.0,0.0,0.0,0.0,0.0,0.0,0.0,0.0,0.0,0.0,0.0,0.0,0.0,0.0,0.0,0.0,0.0,0.0,0.0,0.0,0.0,0.0,0.0,0.0,0.0,0.0,0.0,0.0,0.0,0.0,0.0,0.0,0.0,0.0,0.0,0.0,0.0,0.0,0.0,0.0,0.0,0.0,0.0,0.0,0.0,0.0,0.0,0.0,0.0,0.0,0.0,0.0,0.0,0.0,0.0,0.0,0.0,0.0,0.0,0.0,0.0,0.0,0.0,0.0,0.0,0.0,0.0,0.0,0.0,0.0,0.0,0.0,0.0,0.0,0.0,0.0,0.0,0.0,0.0,0.0,0.0,0.0,0.0,0.0,0.0,0.0,0.0,0.0,0.0,0.0,0.0,0.0,0.0,0.0,0.0,0.0,0.0,0.0,0.0,0.0,0.0,0.0,0.0,0.0,0.0,0.0,0.0,0.0,0.0,0.0,0.0,0.0,0.0,0.0,0.0,0.0,0.0,0.0,0.0,0.0,0.0,0.0,0.0,0.0,0.0,0.0,0.0,0.0,0.0,0.0,0.0,0.0,0.0,0.0,0.0,0.0,0.0,0.0,0.0,0.0,0.0,0.0,0.0,0.0,0.0,0.0,0.0,0.0,0.0,0.0,0.0,0.0,0.0,0.0,0.0,0.0,0.0,0.0,0.0,0.0,0.0,0.0,0.0,0.0,0.0,0.0,0.0,0.0,0.0,0.0,0.0,0.0,0.0,0.0,0.0,0.0,0.0,0.0,0.0,0.0,0.0,0.0,0.0,0.0,0.0,0.0,0.0,0.0,0.0,0.0,0.0,0.0,0.0,0.0,0.0,0.0,0.0,0.0,0.0,0.0,0.0,0.0,0.0,0.0,0.0,0.0,0.0,0.0,0.0,0.0,0.0,0.0,0.0,0.0,0.0,0.0,0.0,0.0,0.0,0.0,0.0,0.0,0.0,0.0,0.0,0.0,0.0,0.0,0.0,0.0,0.0,0.0,0.0,0.0,0.0,0.0,0.0,0.0,0.0,0.0,0.0,0.0,0.0,0.0,0.0,0.0,0.0,0.0,0.0,0.0,0.0,0.0,0.0,0.0,0.0,0.0,0.0,0.0,0.0,0.0,0.0,0.0,0.0,0.0,0.0,0.0,0.0,0.0,0.0,0.0,0.0,0.0,0.0,0.0,0.0,0.0,0.0,0.0,0.0,0.0,0.0,0.0,0.0,0.0,0.0,0.0,0.0,0.0,0.0,0.0,0.0,0.0,0.0,0.0,0.0,0.0,0.0,0.0,0.0,0.0,0.0,0.0,0.0,0.0,0.0,0.0,0.0,0.0,0.0,0.0,0.0,0.0,0.0,0.0,0.0,0.0,0.0,0.0,0.0,0.0,0.0,0.0,0.0,0.0,0.0,0.0,0.0,0.0,0.0,0.0,0.0,0.0,0.0,0.0,0.0,0.0,0.0,0.0,0.0,0.0,0.0,0.0,0.0,0.0,0.0,0.0,0.0,0.0,0.0,0.0,0.0,0.0,0.0,0.0,0.0,0.0,0.0,0.0,0.0,0.0,0.0,0.0,0.0,0.0,0.0,0.0,0.0,0.0,0.0,0.0,0.0,0.0,0.0,0.0,0.0,0.0,0.0,0.0,0.0,0.0,0.0,0.0,0.0,0.0,0.0,0.0,0.0,0.0,0.0,0.0,0.0,0.0,0.0,0.0,0.0,0.0,0.0,0.0,0.0,0.0,0.0,0.0,0.0,0.0,0.0,0.0,0.0,0.0,0.0,0.0,0.0,0.0,0.0,0.0,0.0,0.0,0.0,0.0,0.0,0.0,0.0,0.0,0.0,0.0,0.0,0.0,0.0,0.0,0.0,0.0,0.0,0.0,0.0,0.0,0.0,0.0,0.0,0.0,0.0,0.0,0.0,0.0,0.0,0.0,0.0,0.0,0.0,0.0,0.0,0.0,0.0,0.0,0.0,0.0,0.0,0.0,0.0,0.0,0.0,0.0,0.0,0.0,0.0,0.0,0.0,0.0,0.0,0.0,0.0,0.0,0.0,0.0,0.0,0.0,0.0,0.0,0.0,0.0,0.0,0.0,0.0,0.0,0.0,0.0,0.0,0.0,0.0,0.0,0.0,0.0,0.0,0.0,0.0,0.0,0.0,0.0,0.0,0.0,0.0,0.0,0.0,0.0,0.0,0.0,0.0,0.0,0.0,0.0,0.0,0.0,0.0,0.0,0.0,0.0,0.0,0.0,0.0,0.0,0.0,0.0,0.0,0.0,0.0,0.0,0.0,0.0,0.0,0.0,0.0,0.0,0.0,0.0,0.0,0.0,0.0,0.0,0.0,0.0,0.0,0.0,0.0,0.0,0.0,0.0,0.0,0.0,0.0,0.0,0.0,0.0,0.0,0.0,0.0,0.0,0.0,0.0,0.0,0.0,0.0,0.0,0.0,0.0,0.0,0.0,0.0,0.0,0.0,0.0,0.0,0.0,0.0,0.0,0.0,0.0,0.0,0.0,0.0,0.0,0.0,0.0,0.0,0.0,0.0,0.0,0.0,0.0,0.0,0.0,0.0,0.0,0.0,0.0,0.0,0.0,0.0,0.0,0.0,0.0,0.0,0.0,0.0,0.0,0.0,0.0,0.0,0.0,0.0,0.0,0.0,0.0,0.0,0.0,0.0,0.0,0.0,0.0,0.0,0.0,0.0,0.0,0.0,0.0,0.0,0.0,0.0,0.0,0.0,0.0,0.0,0.0,0.0,0.0,0.0,0.0,0.0,0.0,0.0,0.0,0.0,0.0,0.0,0.0,0.0,0.0,0.0,0.0,0.0,0.0,0.0,0.0,0.0,0.0,0.0,0.0,0.0,0.0,0.0,0.0,0.0,0.0,0.0,0.0,0.0,0.0,0.0,0.0,-1.1117,0.0,0.0,0.0,0.0,0.0,0.0,0.0,0.0,0.0,0.0,0.0,0.0,0.0,0.0,0.0,0.0,0.0,0.0,0.0,0.0,0.0,0.0,0.0,0.0,0.0,0.0,0.0,0.0,0.0,0.0,0.0,0.0,0.0,0.0,0.0,0.0,0.0,0.0,0.0,0.0,0.0,0.0,0.0,0.0,0.0,0.0,0.0,0.0,0.0,0.0,0.0,0.0,0.0,0.0,0.0,0.0,0.0,0.0,0.0,0.0,0.0,0.0,0.0,0.0,0.0,0.0,0.0,0.0,0.0,0.0,0.0,0.0,0.0,0.0,0.0,0.0,0.0,0.0,0.0,0.0,0.0,0.0,0.0,0.0,0.0,0.0,0.0,0.0,0.0,0.0,0.0,0.0,0.0,0.0,0.0,0.0,0.0,0.0,0.0,0.0,0.0,0.0,0.0,0.0,0.0,0.0,0.0,0.0,0.0,0.0,-1.1706,-1.17,-1.1441,-1.1268,-1.1123,0.0,0.0,0.0,0.0,0.0,0.0,0.0,0.0,0.0,0.0,0.0,0.0,0.0,0.0,0.0,0.0,0.0,0.0,0.0,0.0,0.0,0.0,0.0,0.0,0.0,0.0,0.0,0.0,0.0,0.0,0.0,0.0,0.0,0.0,0.0,0.0,0.0,0.0,0.0,0.0,0.0,0.0,0.0,0.0,0.0,0.0,0.0,0.0,0.0,0.0,0.0,0.0,0.0,0.0,0.0,0.0,0.0,0.0,0.0,0.0,0.0,0.0,0.0,0.0,0.0,0.0,0.0,0.0,0.0,0.0,0.0,0.0,0.0,0.0,0.0,0.0,0.0,0.0,0.0,0.0,0.0,0.0,0.0,0.0,0.0,0.0,0.0,0.0,0.0,0.0,0.0,0.0,0.0,0.0,0.0,0.0,0.0,0.0,0.0,0.0,0.0,0.0,0.0,0.0,0.0,0.0,0.0,0.0,0.0,0.0,0.0,0.0,-1.1633,-1.1357,-1.1129,0.0,0.0,0.0,0.0,0.0,0.0,0.0,0.0,0.0,0.0,0.0,0.0,0.0,0.0,0.0,0.0,0.0,0.0,0.0,0.0,0.0,0.0,0.0,0.0,0.0,0.0,0.0,0.0,0.0,0.0,0.0,0.0,0.0,0.0,0.0,0.0,0.0,0.0,0.0,0.0,0.0,0.0,0.0,0.0,0.0,0.0,0.0,0.0,0.0,0.0,0.0,0.0,0.0,0.0,0.0,0.0,0.0,0.0,0.0,0.0,0.0,0.0,0.0,0.0,0.0,0.0,0.0,0.0,0.0,0.0,0.0,0.0,0.0,0.0,0.0,0.0,0.0,0.0,0.0,0.0,0.0,0.0,0.0,0.0,0.0,0.0,0.0,0.0,0.0,0.0,0.0,0.0,0.0,0.0,0.0,0.0,0.0,0.0,0.0,0.0,0.0,0.0,0.0,0.0,0.0,0.0,0.0,0.0,0.0,0.0,-1.2161,-1.1926,-1.1627,0.0,-1.1141,0.0,0.0,0.0,0.0,0.0,0.0,0.0,0.0,0.0,0.0,0.0,0.0,0.0,0.0,0.0,0.0,0.0,0.0,0.0,0.0,0.0,0.0,0.0,0.0,0.0,0.0,0.0,0.0,0.0,0.0,0.0,0.0,0.0,0.0,0.0,0.0,0.0,0.0,0.0,0.0,0.0,0.0,0.0,0.0,0.0,0.0,0.0,0.0,0.0,0.0,0.0,0.0,0.0,0.0,0.0,0.0,0.0,0.0,0.0,0.0,0.0,0.0,0.0,0.0,0.0,0.0,0.0,0.0,0.0,0.0,0.0,0.0,0.0,0.0,0.0,0.0,0.0,0.0,0.0,0.0,0.0,0.0,0.0,0.0,0.0,0.0,0.0,0.0,0.0,0.0,0.0,0.0,0.0,0.0,0.0,0.0,0.0,0.0,0.0,0.0,0.0,0.0,0.0,0.0,0.0,0.0,0.0,0.0,0.0,0.0,-1.2421,-1.2161,-1.1712,-1.1401,0.0,0.0,0.0,0.0,0.0,0.0,0.0,0.0,0.0,0.0,0.0,0.0,0.0,0.0,0.0,0.0,0.0,0.0,0.0,0.0,0.0,0.0,0.0,0.0,0.0,0.0,0.0,0.0,0.0,0.0,0.0,0.0,0.0,0.0,0.0,0.0,0.0,0.0,0.0,0.0,0.0,0.0,0.0,0.0,0.0,0.0,0.0,0.0,0.0,0.0,0.0,0.0,0.0,0.0,0.0,0.0,0.0,0.0,0.0,0.0,0.0,0.0,0.0,0.0,0.0,0.0,0.0,0.0,0.0,0.0,0.0,0.0,0.0,0.0,0.0,0.0,0.0,0.0,0.0,0.0,0.0,0.0,0.0,0.0,0.0,0.0,0.0,0.0,0.0,0.0,0.0,0.0,0.0,0.0,0.0,0.0,0.0,0.0,0.0,0.0,0.0,0.0,0.0,0.0,0.0,0.0,0.0,0.0,0.0,0.0,-1.2439,-1.2578,-1.2312,-1.1766,-1.1399,-1.1194,0.0,0.0,0.0,0.0,0.0,0.0,0.0,0.0,0.0,0.0,0.0,0.0,0.0,0.0,0.0,0.0,0.0,0.0,0.0,0.0,0.0,0.0,0.0,0.0,0.0,0.0,0.0,0.0,0.0,0.0,0.0,0.0,0.0,0.0,0.0,0.0,0.0,0.0,0.0,0.0,0.0,0.0,0.0,0.0,0.0,0.0,0.0,0.0,0.0,0.0,0.0,0.0,0.0,0.0,0.0,0.0,0.0,0.0,0.0,0.0,0.0,0.0,0.0,0.0,0.0,0.0,0.0,0.0,0.0,0.0,0.0,0.0,0.0,0.0,0.0,0.0,0.0,0.0,0.0,0.0,0.0,0.0,0.0,0.0,0.0,0.0,0.0,0.0,0.0,0.0,0.0,0.0,0.0,0.0,0.0,0.0,0.0,0.0,0.0,0.0,0.0,0.0,0.0,0.0,0.0,0.0,0.0,0.0,-1.1904,-1.2439,-1.2578,-1.2318,-1.1805,-1.1489,0.0,0.0,0.0,0.0,0.0,0.0,0.0,0.0,0.0,0.0,0.0,0.0,0.0,0.0,0.0,0.0,0.0,0.0,0.0,0.0,0.0,0.0,0.0,0.0,0.0,0.0,0.0,0.0,0.0,0.0,0.0,0.0,0.0,0.0,0.0,0.0,0.0,0.0,0.0,0.0,0.0,0.0,0.0,0.0,0.0,0.0,0.0,0.0,0.0,0.0,0.0,0.0,0.0,0.0,0.0,0.0,0.0,0.0,0.0,0.0,0.0,0.0,0.0,0.0,0.0,0.0,0.0,0.0,0.0,0.0,0.0,0.0,0.0,0.0,0.0,0.0,0.0,0.0,0.0,0.0,0.0,0.0,0.0,0.0,0.0,0.0,0.0,0.0,0.0,0.0,0.0,0.0,0.0,0.0,0.0,0.0,0.0,0.0,0.0,0.0,0.0,0.0,0.0,0.0,0.0,0.0,0.0,0.0,0.0,-1.218,-1.2518,-1.2578,-1.2312,-1.1928,-1.1663,0.0,0.0,0.0,0.0,0.0,0.0,0.0,0.0,0.0,0.0,0.0,0.0,0.0,0.0,0.0,0.0,0.0,0.0,0.0,0.0,0.0,0.0,0.0,0.0,0.0,0.0,0.0,0.0,0.0,0.0,0.0,0.0,0.0,0.0,0.0,0.0,0.0,0.0,0.0,0.0,0.0,0.0,0.0,0.0,0.0,0.0,0.0,0.0,0.0,0.0,0.0,0.0,0.0,0.0,0.0,0.0,0.0,0.0,0.0,0.0,0.0,0.0,0.0,0.0,0.0,0.0,0.0,0.0,0.0,0.0,0.0,0.0,0.0,0.0,0.0,0.0,0.0,0.0,0.0,0.0,0.0,0.0,0.0,0.0,0.0,0.0,0.0,0.0,0.0,0.0,0.0,0.0,0.0,0.0,0.0,0.0,0.0,0.0,0.0,0.0,0.0,0.0,0.0,0.0,0.0,0.0,0.0,0.0,0.0,-1.2433,0.0,-1.262,-1.2445,-1.2145,-1.1932,0.0,0.0,0.0,0.0,0.0,0.0,0.0,0.0,0.0,0.0,0.0,0.0,0.0,0.0,0.0,0.0,0.0,0.0,0.0,0.0,0.0,0.0,0.0,0.0,0.0,0.0,0.0,0.0,0.0,0.0,0.0,0.0,0.0,0.0,0.0,0.0,0.0,0.0,0.0,0.0,0.0,0.0,0.0,0.0,0.0,0.0,0.0,0.0,0.0,0.0,0.0,0.0,0.0,0.0,0.0,0.0,0.0,0.0,0.0,0.0,0.0,0.0,0.0,0.0,0.0,0.0,0.0,0.0,0.0,0.0,0.0,0.0,0.0,0.0,0.0,0.0,0.0,0.0,0.0,0.0,0.0,0.0,0.0,0.0,0.0,0.0,0.0,0.0,0.0,0.0,0.0,0.0,0.0,0.0,0.0,0.0,0.0,0.0,0.0,0.0,0.0,0.0,0.0,0.0,0.0,0.0,0.0,0.0,-1.2186,-1.2674,-1.2699,-1.2699,-1.2693,-1.2439,-1.2261,0.0,0.0,0.0,0.0,0.0,0.0,0.0,0.0,0.0,0.0,0.0,0.0,0.0,0.0,0.0,0.0,0.0,0.0,0.0,0.0,0.0,0.0,0.0,0.0,0.0,0.0,0.0,0.0,0.0,0.0,0.0,0.0,0.0,0.0,0.0,0.0,0.0,0.0,0.0,0.0,0.0,0.0,0.0,0.0,0.0,0.0,0.0,0.0,0.0,0.0,0.0,0.0,0.0,0.0,0.0,0.0,0.0,0.0,0.0,0.0,0.0,0.0,0.0,0.0,0.0,0.0,0.0,0.0,0.0,0.0,0.0,0.0,0.0,0.0,0.0,0.0,0.0,0.0,0.0,0.0,0.0,0.0,0.0,0.0,0.0,0.0,0.0,0.0,0.0,0.0,0.0,0.0,0.0,0.0,0.0,0.0,0.0,0.0,0.0,0.0,0.0,0.0,0.0,0.0,0.0,0.0,0.0,0.0,0.0,-1.2693,-1.2705,-1.2705,-1.2699,-1.2451,-1.2273,0.0,0.0,0.0,0.0,0.0,0.0,0.0,0.0,0.0,0.0,0.0,0.0,0.0,0.0,0.0,0.0,0.0,0.0,0.0,0.0,0.0,0.0,0.0,0.0,0.0,0.0,0.0,0.0,0.0,0.0,0.0,0.0,0.0,0.0,0.0,0.0,0.0,0.0,0.0,0.0,0.0,0.0,0.0,0.0,0.0,0.0,0.0,0.0,0.0,0.0,0.0,0.0,0.0,0.0,0.0,0.0,0.0,0.0,0.0,0.0,0.0,0.0,0.0,0.0,0.0,0.0,0.0,0.0,0.0,0.0,0.0,0.0,0.0,0.0,0.0,0.0,0.0,0.0,0.0,0.0,0.0,0.0,0.0,0.0,0.0,0.0,0.0,0.0,0.0,0.0,0.0,0.0,0.0,0.0,0.0,0.0,0.0,0.0,0.0,0.0,0.0,0.0,0.0,0.0,0.0,0.0,0.0,0.0,0.0,-1.2705,-1.2705,-1.2705,-1.2705,-1.2632,-1.2591,-1.2528,0.0,0.0,0.0,0.0,0.0,0.0,0.0,0.0,0.0,0.0,0.0,0.0,0.0,0.0,0.0,0.0,0.0,0.0,0.0,0.0,0.0,0.0,0.0,0.0,0.0,0.0,0.0,0.0,0.0,0.0,0.0,0.0,0.0,0.0,0.0,0.0,0.0,0.0,0.0,0.0,0.0,0.0,0.0,0.0,0.0,0.0,0.0,0.0,0.0,0.0,0.0,0.0,0.0,0.0,0.0,0.0,0.0,0.0,0.0,0.0,0.0,0.0,0.0,0.0,0.0,0.0,0.0,0.0,0.0,0.0,0.0,0.0,0.0,0.0,0.0,0.0,0.0,0.0,0.0,0.0,0.0,0.0,0.0,0.0,0.0,0.0,0.0,0.0,0.0,0.0,0.0,0.0,0.0,0.0,0.0,0.0,0.0,0.0,0.0,0.0,0.0,0.0,0.0,0.0,0.0,0.0,0.0,0.0,-1.2747,-1.2747,-1.2747,-1.2705,-1.2966,-1.309,0.0,0.0,0.0,0.0,0.0,0.0,0.0,0.0,0.0,0.0,0.0,0.0,0.0,0.0,0.0,0.0,0.0,0.0,0.0,0.0,0.0,0.0,0.0,0.0,0.0,0.0,0.0,0.0,0.0,0.0,0.0,0.0,0.0,0.0,0.0,0.0,0.0,0.0,0.0,0.0,0.0,0.0,0.0,0.0,0.0,0.0,0.0,0.0,0.0,0.0,0.0,0.0,0.0,0.0,0.0,0.0,0.0,0.0,0.0,0.0,0.0,0.0,0.0,0.0,0.0,0.0,0.0,0.0,0.0,0.0,0.0,0.0,0.0,0.0,0.0,0.0,0.0,0.0,0.0,0.0,0.0,0.0,0.0,0.0,0.0,0.0,0.0,0.0,0.0,0.0,0.0,0.0,0.0,0.0,0.0,0.0,0.0,0.0,0.0,0.0,0.0,0.0,0.0,0.0,0.0,0.0,0.0,0.0,0.0,-1.3222,-1.3222,-1.3137,-1.3003,-1.3179,-1.3264,0.0,0.0,0.0,0.0,0.0,0.0,0.0,0.0,0.0,0.0,0.0,0.0,0.0,0.0,0.0,0.0,0.0,0.0,0.0,0.0,0.0,0.0,0.0,0.0,0.0,0.0,0.0,0.0,0.0,0.0,0.0,0.0,0.0,0.0,0.0,0.0,0.0,0.0,0.0,0.0,0.0,0.0,0.0,0.0,0.0,0.0,0.0,0.0,0.0,0.0,0.0,0.0,0.0,0.0,0.0,0.0,0.0,0.0,0.0,0.0,0.0,0.0,0.0,0.0,0.0,0.0,0.0,0.0,0.0,0.0,0.0,0.0,0.0,0.0,0.0,0.0,0.0,0.0,0.0,0.0,0.0,0.0,0.0,0.0,0.0,0.0,0.0,0.0,0.0,0.0,0.0,0.0,0.0,0.0,0.0,0.0,0.0,0.0,0.0,0.0,0.0,0.0,0.0,0.0,0.0,0.0,0.0,0.0,-1.3398,-1.3398,-1.3483,-1.3483,-1.3349,-1.3483,-1.349,0.0,0.0,0.0,0.0,0.0,0.0,0.0,0.0,0.0,0.0,0.0,0.0,0.0,0.0,0.0,0.0,0.0,0.0,0.0,0.0,0.0,0.0,0.0,0.0,0.0,0.0,0.0,0.0,0.0,0.0,0.0,0.0,0.0,0.0,0.0,0.0,0.0,0.0,0.0,0.0,0.0,0.0,0.0,0.0,0.0,0.0,0.0,0.0,0.0,0.0,0.0,0.0,0.0,0.0,0.0,0.0,0.0,0.0,0.0,0.0,0.0,0.0,0.0,0.0,0.0,0.0,0.0,0.0,0.0,0.0,0.0,0.0,0.0,0.0,0.0,0.0,0.0,0.0,0.0,0.0,0.0,0.0,0.0,0.0,0.0,0.0,0.0,0.0,0.0,0.0,0.0,0.0,0.0,0.0,0.0,0.0,0.0,0.0,0.0,0.0,0.0,0.0,0.0,0.0,0.0,0.0,0.0,0.0,-1.3483,-1.3483,-1.3646,-1.3737,-1.3737,-1.3737,-1.3737,0.0,0.0,0.0,0.0,0.0,0.0,0.0,0.0,0.0,0.0,0.0,0.0,0.0,0.0,0.0,0.0,0.0,0.0,0.0,0.0,0.0,0.0,0.0,0.0,0.0,0.0,0.0,0.0,0.0,0.0,0.0,0.0,0.0,0.0,0.0,0.0,0.0,0.0,0.0,0.0,0.0,0.0,0.0,0.0,0.0,0.0,0.0,0.0,0.0,0.0,0.0,0.0,0.0,0.0,0.0,0.0,0.0,0.0,0.0,0.0,0.0,0.0,0.0,0.0,0.0,0.0,0.0,0.0,0.0,0.0,0.0,0.0,0.0,0.0,0.0,0.0,0.0,0.0,0.0,0.0,0.0,0.0,0.0,0.0,0.0,0.0,0.0,0.0,0.0,0.0,0.0,0.0,0.0,0.0,0.0,0.0,0.0,0.0,0.0,0.0,0.0,0.0,0.0,0.0,0.0,0.0,0.0,0.0,-1.3955,-1.3955,-1.3997,-1.4004,-1.4004,-1.4004,-1.4004,0.0,0.0,0.0,0.0,0.0,0.0,0.0,0.0,0.0,0.0,0.0,0.0,0.0,0.0,0.0,0.0,0.0,0.0,0.0,0.0,0.0,0.0,0.0,0.0,0.0,0.0,0.0,0.0,0.0,0.0,0.0,0.0,0.0,0.0,0.0,0.0,0.0,0.0,0.0,0.0,0.0,0.0,0.0,0.0,0.0,0.0,0.0,0.0,-1.5319,0.0,0.0,0.0,0.0,0.0,0.0,0.0,0.0,0.0,0.0,0.0,0.0,0.0,0.0,0.0,0.0,0.0,0.0,0.0,0.0,0.0,0.0,0.0,0.0,0.0,0.0,0.0,0.0,0.0,0.0,0.0,0.0,0.0,0.0,0.0,0.0,0.0,0.0,0.0,0.0,0.0,0.0,0.0,0.0,0.0,0.0,0.0,0.0,0.0,0.0,0.0,0.0,0.0,0.0,0.0,0.0,0.0,0.0,0.0,-1.4088,-1.4088,-1.4088,-1.4088,-1.4088,-1.4088,-1.4088,0.0,0.0,0.0,0.0,0.0,0.0,0.0,0.0,0.0,0.0,0.0,0.0,0.0,0.0,0.0,0.0,0.0,0.0,0.0,0.0,0.0,0.0,0.0,0.0,0.0,0.0,0.0,0.0,0.0,0.0,0.0,0.0,0.0,0.0,0.0,0.0,0.0,0.0,0.0,0.0,0.0,0.0,0.0,0.0,0.0,0.0,0.0,0.0,0.0,0.0,0.0,0.0,0.0,0.0,0.0,0.0,0.0,0.0,0.0,0.0,0.0,0.0,0.0,0.0,0.0,0.0,0.0,0.0,0.0,0.0,0.0,0.0,0.0,0.0,0.0,0.0,0.0,0.0,0.0,0.0,0.0,0.0,0.0,0.0,0.0,0.0,0.0,0.0,0.0,0.0,0.0,0.0,0.0,0.0,0.0,0.0,0.0,0.0,0.0,0.0,0.0,0.0,0.0,0.0,0.0,0.0,0.0,-1.4088,-1.4088,-1.4088,-1.4088,-1.4088,-1.4088,-1.4088,-1.4088,-1.4088,0.0,0.0,0.0,0.0,0.0,0.0,0.0,0.0,0.0,0.0,0.0,0.0,0.0,0.0,0.0,0.0,0.0,0.0,0.0,0.0,0.0,0.0,0.0,0.0,0.0,0.0,0.0,0.0,0.0,0.0,0.0,0.0,0.0,0.0,0.0,0.0,0.0,0.0,-1.2974,-1.3558,0.0,0.0,0.0,0.0,0.0,0.0,0.0,0.0,-1.5691,0.0,0.0,0.0,0.0,0.0,0.0,0.0,0.0,0.0,0.0,0.0,0.0,0.0,0.0,0.0,0.0,0.0,0.0,0.0,0.0,0.0,0.0,0.0,0.0,0.0,0.0,0.0,0.0,0.0,0.0,0.0,0.0,0.0,0.0,0.0,0.0,0.0,0.0,0.0,0.0,0.0,0.0,0.0,0.0,0.0,0.0,0.0,0.0,0.0,0.0,0.0,0.0,0.0,0.0,0.0,0.0,-1.4088,-1.4088,-1.4088,-1.4088,-1.4088,-1.4088,-1.4088,-1.4088,-1.4088,-1.4088,0.0,0.0,0.0,0.0,0.0,0.0,0.0,0.0,0.0,0.0,0.0,0.0,0.0,0.0,0.0,0.0,0.0,0.0,0.0,0.0,0.0,0.0,0.0,0.0,0.0,0.0,0.0,0.0,0.0,0.0,0.0,0.0,0.0,0.0,0.0,0.0,0.0,0.0,0.0,-1.3991,-1.432,0.0,0.0,0.0,0.0,0.0,0.0,0.0,0.0,-1.5842,0.0,0.0,0.0,0.0,0.0,0.0,0.0,0.0,0.0,0.0,0.0,0.0,0.0,0.0,0.0,0.0,0.0,0.0,0.0,0.0,0.0,0.0,0.0,0.0,0.0,0.0,0.0,0.0,0.0,0.0,0.0,0.0,0.0,0.0,0.0,0.0,0.0,0.0,0.0,0.0,0.0,0.0,0.0,0.0,0.0,0.0,0.0,0.0,0.0,0.0,0.0,0.0,0.0,0.0,0.0,-1.4088,-1.4088,-1.4088,-1.4088,-1.4088,-1.4088,-1.4088,-1.4088,-1.4088,0.0,0.0,0.0,0.0,0.0,0.0,0.0,0.0,0.0,0.0,0.0,0.0,0.0,0.0,0.0,0.0,0.0,0.0,0.0,0.0,0.0,0.0,0.0,0.0,0.0,0.0,0.0,0.0,0.0,0.0,0.0,0.0,0.0,0.0,0.0,0.0,0.0,0.0,0.0,0.0,-1.4355,-1.4772,-1.528,0.0,0.0,0.0,0.0,0.0,0.0,-1.5903,-1.6,0.0,0.0,0.0,0.0,0.0,0.0,0.0,0.0,0.0,0.0,0.0,0.0,0.0,0.0,0.0,0.0,0.0,0.0,0.0,0.0,0.0,0.0,0.0,0.0,0.0,0.0,0.0,0.0,0.0,0.0,0.0,0.0,0.0,0.0,0.0,0.0,0.0,0.0,0.0,0.0,0.0,0.0,0.0,0.0,0.0,0.0,0.0,0.0,0.0,0.0,0.0,0.0,0.0,0.0,0.0,-1.4088,-1.4088,-1.4088,-1.4088,-1.4088,-1.4088,-1.4088,-1.4088,-1.4088,0.0,0.0,0.0,0.0,0.0,0.0,0.0,0.0,0.0,0.0,0.0,0.0,0.0,0.0,0.0,0.0,0.0,0.0,0.0,0.0,0.0,0.0,0.0,0.0,0.0,0.0,0.0,0.0,0.0,0.0,0.0,0.0,0.0,0.0,0.0,0.0,0.0,0.0,0.0,0.0,0.0,-1.518,-1.5525,-1.5691,0.0,0.0,0.0,0.0,-1.5867,-1.5991,0.0,0.0,0.0,0.0,0.0,0.0,0.0,0.0,0.0,0.0,0.0,0.0,0.0,0.0,0.0,0.0,0.0,0.0,0.0,0.0,0.0,0.0,0.0,0.0,0.0,0.0,0.0,0.0,0.0,0.0,0.0,0.0,0.0,0.0,0.0,0.0,0.0,0.0,0.0,0.0,0.0,0.0,0.0,0.0,0.0,0.0,0.0,0.0,0.0,0.0,0.0,0.0,0.0,0.0,0.0,0.0,-1.4088,-1.4088,-1.4088,-1.4088,-1.4088,-1.4088,-1.4088,-1.4088,-1.4088,0.0,0.0,0.0,0.0,0.0,0.0,0.0,0.0,0.0,0.0,0.0,0.0,0.0,0.0,0.0,0.0,0.0,0.0,0.0,0.0,0.0,0.0,0.0,0.0,0.0,0.0,0.0,0.0,0.0,0.0,0.0,0.0,0.0,0.0,0.0,0.0,0.0,0.0,0.0,0.0,0.0,-1.5326,-1.571,-1.577,-1.5805,0.0,0.0,-1.5876,-1.6061,-1.6096,0.0,0.0,0.0,0.0,0.0,0.0,0.0,0.0,0.0,0.0,0.0,0.0,0.0,0.0,0.0,0.0,0.0,0.0,0.0,0.0,0.0,0.0,0.0,0.0,0.0,0.0,0.0,0.0,0.0,0.0,0.0,0.0,0.0,0.0,0.0,0.0,0.0,0.0,0.0,0.0,0.0,0.0,0.0,0.0,0.0,0.0,0.0,0.0,0.0,0.0,0.0,0.0,0.0,0.0,0.0,-1.4088,-1.4088,-1.4088,-1.4088,-1.4088,-1.4088,-1.4088,-1.4088,-1.4088,-1.4088,0.0,0.0,0.0,0.0,0.0,0.0,0.0,0.0,0.0,0.0,0.0,0.0,0.0,0.0,0.0,0.0,0.0,0.0,0.0,0.0,0.0,0.0,0.0,0.0,0.0,0.0,0.0,0.0,0.0,0.0,0.0,0.0,0.0,0.0,0.0,0.0,0.0,0.0,0.0,0.0,0.0,0.0,-1.578,-1.5805,0.0,0.0,0.0,-1.5991,-1.6096,0.0,0.0,0.0,0.0,0.0,0.0,0.0,0.0,0.0,0.0,0.0,0.0,0.0,0.0,0.0,0.0,0.0,0.0,0.0,0.0,0.0,0.0,0.0,0.0,0.0,0.0,0.0,0.0,0.0,0.0,0.0,0.0,0.0,0.0,0.0,0.0,0.0,0.0,0.0,0.0,0.0,0.0,0.0,0.0,0.0,0.0,0.0,0.0,0.0,0.0,0.0,0.0,0.0,0.0,0.0,0.0,0.0,-1.4088,-1.4088,-1.4088,-1.4088,-1.4088,-1.4088,-1.4088,-1.4088,0.0,0.0,0.0,0.0,0.0,0.0,0.0,0.0,0.0,0.0,0.0,0.0,0.0,0.0,0.0,0.0,0.0,0.0,0.0,0.0,0.0,0.0,0.0,0.0,0.0,0.0,0.0,-1.4966,0.0,0.0,0.0,0.0,0.0,0.0,0.0,0.0,0.0,0.0,0.0,0.0,0.0,0.0,-1.5805,-1.5805,-1.5805,-1.5797,0.0,0.0,-1.6132,-1.6237,-1.6438,-1.6603,0.0,0.0,0.0,0.0,0.0,0.0,0.0,0.0,0.0,0.0,0.0,0.0,0.0,0.0,0.0,0.0,0.0,0.0,0.0,0.0,0.0,0.0,0.0,0.0,0.0,0.0,0.0,0.0,0.0,0.0,0.0,0.0,0.0,0.0,0.0,0.0,0.0,0.0,0.0,0.0,0.0,0.0,0.0,0.0,0.0,0.0,0.0,0.0,0.0,0.0,0.0,0.0,0.0,0.0,0.0,-1.4088,-1.4088,-1.4088,-1.4088,-1.4088,-1.4088,-1.4088,-1.4088,-1.4088,0.0,0.0,0.0,0.0,0.0,0.0,0.0,0.0,0.0,0.0,0.0,0.0,0.0,0.0,0.0,0.0,0.0,0.0,0.0,0.0,0.0,0.0,0.0,0.0,0.0,0.0,0.0,0.0,0.0,0.0,0.0,0.0,0.0,0.0,0.0,0.0,0.0,0.0,0.0,0.0,0.0,-1.5805,-1.5805,-1.5805,-1.5867,0.0,0.0,-1.6202,-1.6499,-1.6568,-1.6682,-1.6839,0.0,0.0,0.0,0.0,0.0,0.0,0.0,0.0,0.0,0.0,0.0,0.0,0.0,0.0,0.0,0.0,0.0,0.0,0.0,0.0,0.0,0.0,0.0,0.0,0.0,0.0,0.0,0.0,0.0,0.0,0.0,0.0,0.0,0.0,0.0,0.0,0.0,0.0,0.0,0.0,0.0,0.0,0.0,0.0,0.0,0.0,0.0,0.0,0.0,0.0,0.0,0.0,0.0,-1.4088,-1.4088,-1.4088,-1.4088,-1.4088,-1.4088,-1.4088,-1.4088,-1.4088,-1.4088,0.0,0.0,0.0,0.0,0.0,0.0,0.0,0.0,0.0,0.0,0.0,0.0,0.0,0.0,0.0,0.0,0.0,0.0,0.0,0.0,0.0,0.0,0.0,0.0,0.0,0.0,0.0,0.0,-1.6079,-1.6272,-1.6403,0.0,0.0,0.0,0.0,0.0,0.0,0.0,0.0,0.0,0.0,-1.6105,-1.6105,-1.6105,0.0,0.0,-1.6342,-1.6438,-1.6568,-1.6716,-1.6795,-1.6864,-1.6908,0.0,0.0,0.0,0.0,0.0,0.0,0.0,0.0,0.0,0.0,0.0,0.0,0.0,0.0,0.0,0.0,0.0,0.0,0.0,0.0,0.0,0.0,0.0,0.0,0.0,0.0,0.0,0.0,0.0,0.0,0.0,0.0,0.0,0.0,0.0,0.0,0.0,0.0,0.0,0.0,0.0,0.0,0.0,0.0,0.0,0.0,0.0,0.0,0.0,0.0,0.0,0.0,-1.4088,-1.4088,-1.4088,-1.4088,-1.4088,-1.4088,-1.4088,-1.4088,-1.4088,-1.4088,0.0,0.0,0.0,0.0,0.0,0.0,0.0,0.0,0.0,0.0,0.0,0.0,0.0,0.0,0.0,0.0,0.0,0.0,0.0,0.0,0.0,0.0,0.0,0.0,0.0,0.0,0.0,0.0,-1.6105,-1.6368,-1.6577,0.0,0.0,0.0,0.0,0.0,0.0,0.0,0.0,0.0,0.0,-1.6307,-1.6307,-1.6307,-1.6342,-1.6377,-1.6508,-1.6647,-1.6682,-1.6795,-1.6908,-1.6908,0.0,0.0,0.0,0.0,0.0,0.0,0.0,0.0,0.0,0.0,0.0,0.0,0.0,0.0,0.0,0.0,0.0,0.0,0.0,0.0,0.0,0.0,0.0,0.0,0.0,0.0,0.0,0.0,0.0,0.0,-0.8021,0.0,0.0,0.0,0.0,0.0,0.0,0.0,0.0,0.0,0.0,0.0,0.0,0.0,0.0,0.0,0.0,0.0,0.0,0.0,0.0,0.0,0.0,-1.4088,-1.4088,-1.4088,-1.4088,-1.4088,-1.4088,-1.4088,-1.4088,-1.4088,-1.4088,-1.4088,0.0,0.0,0.0,0.0,0.0,0.0,0.0,0.0,0.0,0.0,0.0,0.0,0.0,0.0,0.0,0.0,0.0,0.0,0.0,0.0,0.0,0.0,0.0,0.0,0.0,0.0,-1.5797,-1.6105,-1.6368,0.0,0.0,0.0,0.0,0.0,0.0,0.0,0.0,0.0,0.0,-1.6307,-1.6307,-1.6307,-1.6307,-1.6368,-1.6577,-1.6603,-1.6682,-1.6864,-1.6908,-1.6908,0.0,0.0,0.0,0.0,0.0,0.0,0.0,0.0,0.0,0.0,0.0,0.0,0.0,0.0,0.0,0.0,0.0,0.0,0.0,0.0,0.0,0.0,0.0,0.0,0.0,0.0,0.0,-0.6233,-0.6367,0.0,0.0,0.0,0.0,0.0,0.0,0.0,0.0,0.0,0.0,0.0,-1.2406,-1.2448,0.0,0.0,0.0,0.0,0.0,0.0,0.0,0.0,0.0,0.0,0.0,0.0,-1.4088,-1.4088,-1.4088,-1.4088,-1.4088,-1.4088,-1.4088,-1.4088,-1.4088,-1.4088,-1.4088,0.0,0.0,0.0,0.0,0.0,0.0,0.0,0.0,0.0,0.0,0.0,0.0,0.0,0.0,0.0,0.0,0.0,0.0,0.0,0.0,0.0,0.0,0.0,0.0,0.0,-1.5638,0.0,0.0,0.0,0.0,0.0,0.0,0.0,0.0,0.0,0.0,0.0,-1.6508,-1.6508,-1.6621,-1.6691,-1.6691,-1.67,-1.6726,0.0,0.0,0.0,0.0,0.0,0.0,0.0,0.0,0.0,0.0,0.0,0.0,0.0,0.0,-1.7681,-1.7862,-1.794,-1.8008,-1.8008,0.0,0.0,0.0,0.0,0.0,0.0,0.0,0.0,0.0,0.0,0.0,0.0,0.0,0.0,0.0,0.0,-0.6874,0.0,0.0,0.0,0.0,0.0,0.0,0.0,0.0,-1.1472,-1.1774,-1.2155,-1.232,-1.2448,0.0,-1.2662,-1.2705,0.0,0.0,0.0,0.0,0.0,0.0,0.0,0.0,-1.3997,-1.4088,-1.4088,-1.4088,-1.4088,-1.4088,-1.4088,-1.4088,-1.4088,-1.4088,-1.4088,-1.4088,-1.4088,0.0,0.0,0.0,0.0,0.0,0.0,0.0,0.0,0.0,0.0,0.0,0.0,0.0,0.0,0.0,0.0,0.0,0.0,0.0,0.0,0.0,0.0,0.0,-1.5603,0.0,0.0,0.0,0.0,0.0,0.0,0.0,0.0,0.0,-1.6551,-1.6612,-1.6716,-1.6716,-1.683,-1.6908,-1.6908,0.0,0.0,0.0,0.0,0.0,0.0,0.0,-1.6908,-1.6908,-1.6908,-1.6908,-1.7003,-1.7176,-1.7358,-1.7554,0.0,0.0,-1.7974,-1.8008,-1.8008,-1.8008,-1.8008,-1.8008,-1.8008,-1.8008,-1.8008,0.0,0.0,0.0,0.0,0.0,0.0,0.0,0.0,-0.5997,-0.6086,0.0,-0.6745,0.0,0.0,0.0,0.0,0.0,-0.9994,0.0,0.0,-1.1208,-1.1419,-1.1693,-1.2155,-1.2363,-1.24,-1.2577,-1.2705,-1.2705,-1.2705,0.0,0.0,0.0,0.0,0.0,0.0,-1.3828,-1.4088,-1.4088,-1.4088,-1.4088,-1.4088,-1.4088,-1.4088,-1.4088,-1.4088,-1.4088,-1.4088,-1.4088,-1.4088,-1.4082,0.0,0.0,0.0,0.0,0.0,0.0,0.0,0.0,0.0,0.0,0.0,0.0,0.0,0.0,0.0,0.0,0.0,0.0,0.0,0.0,-1.5248,0.0,0.0,0.0,0.0,0.0,0.0,0.0,0.0,0.0,0.0,-1.691,-1.6883,-1.6908,-1.6927,0.0,0.0,0.0,0.0,-1.6954,-1.6963,-1.6945,-1.6954,-1.6954,-1.6963,-1.6954,-1.6936,0.0,0.0,-1.7176,-1.7348,-1.7529,-1.7681,-1.7862,-1.8008,-1.8008,-1.8008,-1.8008,-1.8008,-1.8008,-1.8008,-1.8008,-1.8008,-1.8008,-0.5688,0.0,0.0,0.0,0.0,-0.5688,-0.5688,-0.5688,-0.5774,-0.5908,-0.613,-0.6302,0.0,0.0,0.0,0.0,0.0,0.0,-1.013,-1.0304,-1.0829,-1.1214,-1.1419,-1.1731,-1.2075,-1.2406,-1.2448,-1.2577,-1.2705,-1.2705,-1.2705,-1.2705,0.0,0.0,0.0,0.0,-1.3828,-1.4082,-1.4088,-1.4088,-1.4088,-1.4088,-1.4088,-1.4088,-1.4088,-1.4088,-1.4088,-1.4088,-1.4088,-1.4088,-1.4088,0.0,0.0,0.0,0.0,0.0,0.0,0.0,0.0,0.0,0.0,0.0,0.0,0.0,0.0,0.0,0.0,0.0,0.0,0.0,-1.4864,-1.5141,-1.5355,0.0,0.0,0.0,0.0,0.0,0.0,0.0,0.0,0.0,-1.7284,-1.7073,-1.7009,0.0,0.0,-1.744,-1.7734,-1.7734,-1.7734,-1.7743,0.0,0.0,0.0,-1.7779,-1.7678,-1.7376,-1.7092,-1.6968,-1.7176,-1.7358,-1.7529,-1.7681,-1.7862,-1.8008,-1.8008,-1.8008,-1.8008,-1.8008,-1.8008,-1.8008,-1.8008,-1.8008,-1.8008,-0.5756,-0.5753,-0.5752,-0.5688,-0.5688,-0.5688,-0.5688,-0.5688,-0.5688,-0.5777,-0.5952,-0.6038,-0.6305,-0.6697,-0.6966,0.0,0.0,0.0,-0.9559,-0.9738,-1.0304,-1.0738,-1.0944,-1.1338,-1.1682,-1.1972,-1.2235,-1.2448,-1.2571,-1.2662,-1.2705,-1.2705,0.0,0.0,-1.3398,-1.3525,-1.3737,-1.4082,-1.4088,-1.4088,-1.4088,-1.4088,-1.4088,-1.4088,-1.4088,-1.4088,-1.4088,-1.4088,-1.4088,-1.4088,-1.4088,-1.4088,0.0,0.0,0.0,0.0,0.0,0.0,0.0,0.0,0.0,0.0,0.0,-1.3455,0.0,0.0,0.0,0.0,-1.4181,-1.4389,-1.4685,-1.4856,0.0,0.0,0.0,0.0,0.0,0.0,0.0,-1.6678,-1.6891,-1.7187,-1.757,-1.7469,-1.7477,-1.7715,-1.7743,-1.7834,-1.8045,0.0,-1.8081,-1.8081,-1.8081,-1.8081,-1.8081,-1.8081,-1.8036,-1.7789,-1.7622,-1.7563,-1.7757,-1.7953,-1.8072,-1.8093,-1.8148,-1.8213,-1.8037,-1.8008,-1.8008,-1.8008,-1.8008,-1.8008,-1.8008,-1.8008,-1.8008,-0.5918,-0.5907,-0.5761,-0.5707,-0.5688,-0.5688,-0.5688,-0.5688,-0.5688,-0.5688,-0.5735,-0.5952,-0.6086,-0.613,-0.6789,0.0,-0.8113,-0.8416,-0.8811,-0.9257,-0.9738,-1.0038,-1.0332,-1.0939,-1.1235,-1.1322,-1.1977,-1.2369,-1.2406,-1.2577,-1.2705,-1.2705,-1.2705,-1.2918,-1.3398,-1.3398,-1.3616,-1.4088,-1.4088,-1.4088,-1.4088,-1.4088,-1.4088,-1.4088,-1.4088,-1.4088,-1.4088,-1.4088,-1.4088,-1.4088,-1.4088,-1.4088,-1.4088,0.0,0.0,0.0,0.0,0.0,0.0,0.0,0.0,0.0,0.0,0.0,0.0,0.0,0.0,0.0,-1.3956,0.0,-1.4397,-1.4533,0.0,0.0,0.0,-1.5681,-1.6078,-1.6131,-1.6359,-1.6882,0.0,0.0,-1.7803,0.0,-1.8145,-1.8173,-1.8192,-1.8145,-1.821,-1.8238,-1.8219,-1.8228,-1.82,-1.8229,-1.8293,-1.82,-1.8201,-1.8211,-1.8286,-1.8433,-1.8644,-1.8837,-1.8848,-1.8689,-1.8656,-1.8549,-1.8193,-1.8135,-1.8057,-1.8076,-1.8037,-1.8008,-1.8008,-1.8008,-1.8008,-0.6043,-0.604,-0.6013,-0.5899,-0.5691,-0.5688,-0.5688,-0.5688,-0.5688,-0.5688,-0.5688,-0.5774,-0.5908,-0.6127,-0.6789,-0.7187,-0.7408,-0.8021,-0.846,-0.8767,-0.9253,-0.965,-1.0077,-1.0381,-1.0809,-1.1284,-1.1494,-1.1843,-1.2363,-1.2448,-1.2534,-1.2705,-1.2705,-1.2966,-1.3398,-1.3398,-1.3616,-1.4088,-1.4088,-1.4088,-1.4088,-1.4088,-1.4088,-1.4088,-1.4088,-1.4088,-1.4088,-1.4088,-1.4088,-1.4088,-1.4088,-1.4088,-1.4088,-1.4088,0.0,0.0,0.0,0.0,0.0,0.0,0.0,0.0,0.0,-1.301,-1.3046,0.0,-1.3273,0.0,-1.3681,-1.4036,-1.4361,-1.4533,0.0,0.0,-1.5549,-1.5979,-1.6088,-1.6584,-1.7005,-1.7129,-1.7296,-1.7643,-1.8188,-1.8319,-1.8504,-1.8932,-1.876,-1.864,-1.8962,-1.9017,-1.9017,-1.8999,-1.899,-1.9026,-1.8981,-1.876,-1.8606,-1.8749,-1.8574,-1.8517,-1.8858,-1.8968,-1.9039,-1.9124,-1.9131,-1.9092,-1.8984,-1.8721,-1.8471,-1.8432,-1.8242,-1.8008,-1.8008,-1.8008,-1.8008,-0.6168,-0.621,-0.6108,-0.601,-0.5888,-0.5785,-0.5809,-0.5761,-0.571,-0.5688,-0.5688,-0.5688,-0.5822,-0.6127,-0.6479,-0.6745,-0.701,-0.7492,-0.7848,-0.8157,-0.8727,-0.9122,-0.9379,-0.9903,-1.0337,-1.0727,-1.1111,-1.1499,-1.1929,-1.2229,-1.2448,-1.2577,-1.2662,-1.2918,-1.3264,-1.3349,-1.361,-1.4088,-1.4088,-1.4088,-1.4088,-1.4088,-1.4088,-1.4088,-1.4088,-1.4088,-1.4088,-1.4088,-1.4088,-1.4088,-1.4088,-1.4088,-1.4088,-1.4088,-1.4088,0.0,0.0,0.0,0.0,0.0,0.0,0.0,0.0,0.0,0.0,0.0,-1.3083,-1.32,-1.355,-1.3933,-1.4338,-1.4653,-1.4924,-1.5192,-1.5703,-1.6126,-1.6312,-1.6706,-1.7046,-1.7324,-1.7511,-1.7861,-1.8428,-1.8599,-1.8828,-1.9234,-1.9109,-1.9054,-1.9246,-1.9292,-1.9292,-1.9292,-1.9292,-1.9341,-1.9429,-1.9245,-1.9184,-1.935,-1.9335,-1.9336,-1.9525,-1.9685,-1.9692,-1.9582,-1.9561,-1.9502,-1.9316,-1.9111,-1.889,-1.8861,-1.874,-1.8457,-1.8086,-1.8008,-1.8008,-0.6339,-0.6279,-0.6173,-0.613,-0.6121,-0.6002,-0.5939,-0.5918,-0.5822,-0.5726,-0.571,-0.5696,-0.5822,-0.6038,-0.6086,-0.6308,-0.6704,-0.6966,-0.719,-0.7503,-0.8157,-0.8504,-0.8636,-0.9423,-0.9907,-1.0038,-1.0766,-1.1241,-1.1322,-1.1977,-1.2363,-1.2406,-1.2619,-1.2833,-1.31,-1.3313,-1.3652,-1.4088,-1.4088,-1.4088,-1.4088,-1.4088,-1.4088,-1.4088,-1.4088,-1.4088,-1.4088,-1.4088,-1.4088,-1.4088,-1.4088,-1.4088,-1.4088,-1.4088,-1.4088,0.0,-1.4088,0.0,0.0,0.0,0.0,0.0,0.0,0.0,0.0,-1.3091,-1.3056,-1.3321,-1.361,-1.3919,-1.4313,-1.4797,-1.5188,-1.5543,-1.5853,-1.6176,-1.6551,-1.6678,-1.6936,-1.7461,-1.7709,-1.8044,-1.855,-1.8843,-1.9042,-1.9222,-1.9244,-1.9265,-1.9292,-1.9292,-1.9292,-1.9292,-1.9341,-1.9439,-1.9557,-1.9587,-1.9696,-1.9893,-2.0051,-2.0303,-2.0294,-2.0459,-2.0458,-2.0098,-2.0,-1.9883,-1.9512,-1.9424,-1.9402,-1.9355,-1.9287,-1.9014,-1.8428,-1.8252,-1.8174,-0.6354,-0.6354,-0.638,-0.6322,-0.6311,-0.6246,-0.6191,-0.6048,-0.6026,-0.5964,-0.5863,-0.5729,-0.5735,-0.5822,-0.5997,-0.6124,-0.626,-0.6659,-0.6969,-0.7187,-0.7544,-0.8025,-0.8592,-0.8767,-0.9248,-0.9994,-1.0337,-1.0766,-1.1322,-1.1811,-1.2203,-1.2406,-1.2619,-1.2833,-1.31,0.0,0.0,0.0,-1.4088,-1.4088,-1.4088,-1.4088,-1.4088,-1.4088,-1.4088,0.0,-1.4088,-1.4088,-1.4088,-1.4088,-1.4088,0.0,0.0,0.0,0.0,0.0,0.0,0.0,0.0,0.0,0.0,0.0,-1.3674,-1.3414,-1.3225,-1.3326,-1.3564,-1.3881,-1.3977,-1.4207,-1.4563,-1.47,-1.4963,-1.5405,-1.5866,-1.6268,-1.6512,-1.7067,-1.7563,-1.7662,-1.784,-1.8075,-1.8425,-1.8652,-1.8851,-1.9033,-1.9192,-1.9301,-1.9292,-1.9292,-1.9292,-1.9292,-1.9429,-1.9557,-1.9597,-1.9754,-1.9942,-2.0147,-2.0264,-2.0381,-2.0489,-2.0566,-2.0615,-2.0468,-2.0478,-2.0449,-2.0351,-2.0049,-1.9795,-1.9795,-1.9541,-1.9238,-1.9082,-1.9043,-1.9043,-0.6387,0.0,-0.6387,-0.6387,0.0,-0.6377,-0.6317,-0.6249,-0.6135,-0.6051,-0.5991,-0.5931,-0.5874,-0.5817,-0.595,-0.6051,-0.613,-0.6435,-0.67,-0.6969,-0.733,-0.7768,-0.8245,-0.846,-0.8942,-0.965,-0.999,-1.0424,-1.1025,-1.1419,-1.1817,-1.2203,-1.2454,-1.2662,-1.2924,-1.3222,-1.3616,-1.4088,-1.4088,-1.4088,-1.4088,-1.4088,-1.4088,-1.4088,0.0,0.0,0.0,0.0,0.0,0.0,0.0,0.0,0.0,0.0,0.0,-1.4088,-1.4088,-1.4088,-1.4088,-1.4088,-1.4088,-1.4082,-1.3948,-1.3681,-1.3247,-1.3279,-1.347,-1.3784,-1.4036,-1.4327,-1.4619,-1.4958,-1.5295,-1.5536,-1.6003,-1.6379,-1.6613,-1.7066,-1.7497,-1.7651,-1.7789,-1.7991,-1.8362,-1.8563,-1.878,-1.8962,-1.9192,-1.9292,-1.9292,-1.9292,-1.9341,-1.9429,-1.9518,-1.9676,-1.9912,-2.0029,-2.0177,-2.0381,-2.0459,-2.0489,-2.0566,-2.0615,-2.0615,-2.0615,-2.0615,-2.0615,-2.0586,-2.041,-2.0234,-2.0225,-2.0106,-1.9959,-1.993,-1.9627,-1.9277,-0.6387,-0.6387,-0.6387,-0.6387,-0.6387,-0.6387,-0.6387,-0.6373,0.0,0.0,0.0,-0.6097,-0.6029,-0.5937,-0.5934,-0.5962,-0.6076,-0.629,-0.6503,-0.6748,-0.7194,-0.7547,-0.7856,-0.8288,-0.8727,-0.917,-0.9689,-1.0168,-1.0598,-1.1068,-1.1499,-1.1866,-1.224,-1.2534,-1.279,-1.3179,-1.361,-1.4004,-1.4082,-1.4088,-1.4088,-1.4088,-1.4088,-1.4088,-1.4088,-1.4088,-1.4088,-1.4088,-1.4088,-1.4088,-1.4088,-1.4088,-1.4088,-1.4088,-1.4088,-1.4088,-1.4088,-1.4088,-1.4088,-1.4088,-1.4088,-1.4088,-1.4088,-1.3888,-1.34,-1.3367,-1.344,-1.3659,-1.4047,-1.4403,-1.4655,-1.5199,-1.5616,-1.5699,-1.6023,-1.6345,-1.6607,-1.6894,-1.7172,-1.7538,-1.7659,-1.7821,-1.8233,-1.8531,-1.8732,-1.8922,-1.9152,-1.9292,-1.9292,-1.9341,-1.9429,-1.9557,-1.9685,-1.9872,-2.0186,-2.0342,-2.042,-2.0527,-2.0605,-2.0615,-2.0615,-2.0615,-2.0615,-2.0615,-2.0615,-2.0615,-2.0615,-2.0586,-2.0615,-2.0615,-2.0615,-2.0615,-2.0546,-2.0019,-1.9617,-0.6389,-0.6387,-0.6387,-0.6387,-0.6387,-0.6387,-0.6387,-0.6376,-0.6298,-0.6244,-0.6287,-0.6132,-0.6075,-0.6059,-0.6059,-0.5994,-0.5925,-0.6205,-0.6367,0.0,-0.6748,-0.7149,-0.7547,-0.7856,-0.8248,-0.8723,-0.934,-0.982,-1.0168,-1.0939,-1.1327,-1.1456,-1.2057,-1.2625,-1.3052,-1.3264,-1.3519,-1.3737,-1.3997,-1.4088,-1.4088,-1.4088,-1.4088,-1.4088,-1.4088,-1.4088,-1.4088,-1.4088,-1.4088,-1.4088,-1.4088,-1.4088,-1.4088,-1.4088,-1.4088,-1.4088,-1.4088,-1.4088,-1.4088,-1.4088,-1.4088,-1.4088,-1.4088,-1.4048,-1.3975,-1.3968,-1.4038,-1.4233,-1.4337,-1.4594,-1.4983,-1.5137,-1.5325,-1.565,-1.5775,-1.5974,-1.6394,-1.6607,-1.6894,-1.7172,-1.7497,-1.77,-1.787,-1.8322,-1.8692,-1.8772,-1.9073,-1.9292,-1.9301,-1.9439,-1.9557,-1.9636,-1.9951,-2.0186,-2.0303,-2.045,-2.0527,-2.0615,-2.0615,-2.0615,-2.0615,-2.0615,-2.0615,-2.0615,-2.0615,-2.0615,-2.0615,-2.0615,-2.0615,-2.0615,-2.0615,-2.0615,-2.0615,-2.0439,-2.0447,-0.6484,-0.6476,-0.6414,-0.6387,-0.6387,-0.6387,-0.6387,-0.6431,-0.6382,-0.6361,-0.6352,-0.6298,-0.6241,-0.6187,-0.6187,-0.6119,-0.6002,-0.6235,-0.6397,-0.6548,-0.6776,-0.7141,-0.751,-0.7768,-0.8157,-0.8636,-0.9165,-0.9607,-1.0038,-1.0641,-1.1111,-1.1327,-1.2015,-1.2497,-1.2705,-1.3052,-1.3349,-1.3525,-1.3913,-1.4088,-1.4088,-1.4088,-1.4088,-1.4088,-1.4088,-1.4088,-1.4088,-1.4088,-1.4088,-1.4088,-1.4088,-1.4088,-1.4088,-1.4088,-1.4088,-1.4088,-1.4088,-1.4088,-1.4088,-1.4088,-1.4088,-1.4088,-1.4088,-1.4088,-1.4088,-1.4088,-1.4124,-1.4243,-1.4356,-1.4482,-1.4699,-1.4957,-1.5173,-1.5333,-1.5533,-1.5782,-1.6023,-1.6312,-1.6648,-1.6894,-1.727,-1.7578,-1.77,-1.8201,-1.8571,-1.8692,-1.9042,-1.9292,-1.9292,-1.9587,-1.9754,-1.9784,-2.0059,-2.0303,-2.0459,-2.0527,-2.0605,-2.0615,-2.0615,-2.0615,-2.0615,-2.0615,-2.0615,-2.0615,-2.0615,-2.0615,-2.0615,-2.0615,-2.0615,-2.0615,-2.0615,-2.0615,-2.0605,-2.076,-2.0964,-0.6608,-0.6651,-0.6529,-0.6411,-0.6387,-0.6387,-0.6387,-0.6387,-0.6387,-0.6387,-0.6387,-0.6387,-0.6388,-0.6312,-0.6306,-0.6241,-0.6185,-0.6311,-0.6432,-0.6593,-0.6792,-0.7086,-0.7385,-0.7657,-0.8028,-0.846,-0.8903,-0.9388,-0.9868,-1.0299,-1.0809,-1.1322,-1.1977,-1.232,-1.2406,-1.2839,-1.3179,-1.3349,-1.3786,-1.4046,-1.4088,-1.4088,-1.4088,-1.4088,-1.4088,-1.4088,-1.4088,-1.4088,-1.4088,-1.4088,-1.4088,-1.4088,-1.4088,-1.4088,-1.4088,-1.4088,-1.4088,-1.4088,-1.4088,-1.4088,-1.4088,-1.4088,-1.4088,-1.4088,-1.4088,-1.4088,-1.4088,-1.4124,-1.4237,-1.4356,-1.444,-1.4699,-1.4999,-1.5082,-1.5374,-1.5575,-1.5733,-1.6072,-1.6402,-1.6648,-1.7057,-1.7392,-1.7668,-1.8031,-1.8402,-1.8732,-1.9082,-1.9301,-1.9332,-1.9618,-1.9863,-1.9951,-2.0147,-2.0411,-2.0566,-2.0605,-2.0615,-2.0615,-2.0615,-2.0615,-2.0615,-2.0615,-2.0615,-2.0615,-2.0615,-2.0615,-2.0615,-2.0615,-2.0615,-2.0615,-2.0615,-2.0615,-2.0615,-2.0925,-2.1167,-0.6787,-0.6766,-0.6651,-0.6487,-0.6395,-0.6389,-0.6387,-0.6387,-0.6387,-0.6387,-0.6387,-0.6387,-0.6381,-0.6423,-0.6368,-0.6352,-0.6303,-0.63,-0.6325,-0.6435,-0.6553,-0.677,-0.7073,-0.7399,-0.768,-0.7992,-0.8464,-0.8947,-0.9345,-0.9864,-1.0506,-1.1241,-1.1774,-1.2155,-1.2448,-1.2839,-1.31,-1.3143,-1.3519,-1.3864,-1.4088,-1.4088,-1.4088,-1.4088,-1.4088,-1.4088,-1.4088,-1.4088,-1.4088,-1.4088,-1.4088,-1.4088,-1.4088,-1.4088,-1.4088,-1.4088,-1.4088,-1.4088,-1.4088,-1.4088,-1.4088,-1.4088,-1.4088,-1.4088,-1.4088,-1.4088,-1.4088,-1.413,-1.413,-1.4208,-1.4398,-1.4482,-1.4657,-1.5041,-1.5124,-1.5291,-1.5658,-1.5955,-1.6203,-1.6402,-1.6853,-1.7229,-1.7432,-1.7829,-1.8313,-1.8843,-1.9121,-1.9253,-1.9341,-1.9627,-1.9912,-1.9981,-2.0255,-2.0537,-2.0615,-2.0615,-2.0615,-2.0615,-2.0615,-2.0615,-2.0615,-2.0615,-2.0615,-2.0615,-2.0615,-2.0615,-2.0615,-2.0615,-2.0615,-2.0615,-2.0615,-2.0615,-2.0644,-2.0886,-2.1128,-0.691,-0.6896,-0.6779,-0.6657,-0.6492,-0.6419,-0.6387,-0.6387,-0.6387,-0.6387,-0.6387,-0.6387,-0.6387,-0.6387,-0.6387,-0.636,-0.6369,-0.6369,-0.6401,-0.6525,-0.6756,-0.6932,-0.7121,-0.7437,-0.7683,-0.7848,-0.8336,-0.8684,-0.8986,-0.9646,-1.0386,-1.1079,-1.1424,-1.1768,-1.216,-1.2497,-1.2839,-1.3094,-1.327,-1.344,-1.3695,-1.3962,-1.4088,-1.4088,-1.4088,-1.4088,-1.4088,-1.4088,-1.4088,-1.4088,-1.4088,-1.4088,-1.4088,-1.4088,-1.4088,-1.4088,-1.4088,-1.4088,-1.4088,-1.4088,-1.4088,-1.4088,-1.4088,-1.4088,-1.4088,-1.4088,-1.4088,-1.4088,-1.4088,-1.4124,-1.4201,-1.4321,-1.4531,-1.4824,-1.4999,-1.5215,-1.5506,-1.5748,-1.5948,-1.6203,-1.6615,-1.7025,-1.7392,-1.787,-1.8362,-1.8772,-1.9002,-1.9152,-1.9301,-1.9666,-1.9863,-1.9942,-2.0294,-2.0566,-2.0615,-2.0615,-2.0615,-2.0615,-2.0615,-2.0615,-2.0615,-2.0615,-2.0615,-2.0615,-2.0615,-2.0615,-2.0615,-2.0615,-2.0615,-2.0615,-2.0615,-2.0615,-2.0615,-2.0809,-2.1012,-0.7084,-0.7013,-0.6902,-0.6763,-0.6562,-0.6473,-0.6416,-0.6387,-0.6387,-0.6387,-0.6387,-0.6387,-0.6387,-0.6387,-0.6387,-0.6387,-0.6387,-0.6387,-0.644,-0.6557,-0.6772,-0.6988,-0.7168,-0.7403,-0.7629,-0.7762,-0.8195,-0.8557,-0.878,-0.9554,-1.026,-1.0694,-1.1117,-1.1456,-1.1811,-1.2192,-1.2577,-1.2881,-1.3009,-1.3179,-1.3349,-1.3701,-1.3913,-1.3913,-1.3913,-1.3913,-1.3913,-1.3955,-1.3997,-1.3997,-1.4039,-1.4088,-1.4088,-1.4088,-1.4088,-1.4088,-1.4088,-1.4088,-1.4088,-1.4088,-1.4088,-1.4088,-1.4088,-1.4088,-1.4088,-1.4088,-1.4088,-1.4088,-1.4088,-1.4088,-1.4124,-1.4243,-1.4405,-1.4615,-1.4866,-1.509,-1.5298,-1.5533,-1.5824,-1.6087,-1.6409,-1.6812,-1.7359,-1.7878,-1.8362,-1.8571,-1.8843,-1.9042,-1.9231,-1.9548,-1.9833,-1.9902,-2.0264,-2.0527,-2.0566,-2.0615,-2.0615,-2.0615,-2.0615,-2.0615,-2.0615,-2.0615,-2.0615,-2.0615,-2.0615,-2.0615,-2.0615,-2.0615,-2.0615,-2.0615,-2.0615,-2.0615,-2.0615,-2.078,-2.0945,-0.7204,-0.7182,-0.7021,-0.6839,-0.657,-0.6611,-0.6492,-0.64,-0.6389,-0.6387,-0.6387,-0.6387,-0.6387,-0.6387,-0.6387,-0.6387,-0.6387,-0.6387,-0.6431,-0.6459,-0.6562,-0.6751,-0.7027,-0.7178,-0.7409,-0.771,-0.7993,-0.8352,-0.8876,-0.9607,-0.9994,-1.0125,-1.0901,-1.1278,-1.1456,-1.202,-1.2412,-1.2497,-1.2839,-1.3094,-1.3143,-1.3307,-1.3434,-1.3434,-1.3434,-1.3483,-1.3483,-1.361,-1.3737,-1.3737,-1.3955,-1.4088,-1.4088,-1.4088,-1.4088,-1.4088,-1.4088,-1.4088,-1.4088,-1.4088,-1.4088,-1.4088,-1.4088,-1.4088,-1.4088,-1.4088,-1.4088,-1.4088,-1.4088,-1.4088,-1.4088,-1.413,-1.4201,-1.444,-1.4608,-1.4873,-1.509,-1.545,-1.5782,-1.6038,-1.6278,-1.6689,-1.731,-1.7757,-1.8121,-1.8402,-1.8723,-1.8993,-1.9082,-1.9359,-1.9676,-1.9902,-2.0137,-2.0381,-2.0537,-2.0615,-2.0615,-2.0615,-2.0615,-2.0615,-2.0615,-2.0615,-2.0615,-2.0615,-2.0615,-2.0615,-2.0615,-2.0615,-2.0615,-2.0615,-2.0615,-2.0615,-2.0615,-2.0741,-2.0906,-0.721,-0.7199,-0.7032,-0.6931,-0.6839,-0.669,-0.6541,-0.6545,-0.6419,-0.6387,-0.6387,-0.6387,-0.6387,-0.6387,-0.6387,-0.6387,-0.6387,-0.6387,-0.6387,-0.6431,-0.6644,-0.6872,-0.7103,-0.7272,-0.7421,-0.7612,-0.7781,-0.8144,-0.8704,-0.9297,-0.9689,-1.0081,-1.0598,-1.1025,-1.1332,-1.1731,-1.2075,-1.2363,-1.2583,-1.2711,-1.2839,-1.2924,-1.296,-1.296,-1.3264,-1.3398,-1.3398,-1.3483,-1.3525,-1.3476,-1.361,-1.3695,-1.3828,-1.4004,-1.4088,-1.4088,-1.4088,-1.4088,-1.4088,-1.4088,-1.4088,-1.4088,-1.4088,-1.4088,-1.4088,-1.4088,-1.4088,-1.4088,-1.4088,-1.4088,-1.4088,-1.4088,-1.4166,-1.4356,-1.4566,-1.4783,-1.5082,-1.534,-1.559,-1.5865,-1.6237,-1.6771,-1.7139,-1.7538,-1.787,-1.8152,-1.8531,-1.8803,-1.9042,-1.9359,-1.9636,-1.9872,-2.0108,-2.0381,-2.0576,-2.0615,-2.0615,-2.0615,-2.0615,-2.0615,-2.0615,-2.0615,-2.0615,-2.0615,-2.0615,-2.0615,-2.0615,-2.0615,-2.0615,-2.0615,-2.0615,-2.0615,-2.0615,-2.0693,-2.078,-0.721,-0.7199,-0.7128,-0.7073,-0.6961,-0.6766,-0.6654,-0.6608,-0.6441,-0.6387,-0.6387,-0.6387,-0.6387,-0.6387,-0.6387,-0.6387,-0.6387,-0.6387,-0.6387,-0.6437,-0.6589,-0.6792,-0.7077,-0.7245,-0.7372,-0.7557,-0.7643,-0.796,-0.8436,-0.8859,-0.9301,-0.9777,-1.025,-1.0684,-1.1073,-1.1429,-1.1774,-1.2112,-1.232,-1.2491,-1.2571,-1.2656,-1.2705,-1.2747,-1.3003,-1.3179,-1.3173,-1.327,-1.3313,-1.3313,-1.3349,-1.344,-1.361,-1.3828,-1.3955,-1.3955,-1.4039,-1.4088,-1.4088,-1.4088,-1.4088,-1.4088,-1.4088,-1.4088,-1.4088,-1.4088,-1.4088,-1.4088,-1.4088,-1.4088,-1.4088,-1.4088,-1.4166,-1.4321,-1.4524,-1.4741,-1.4957,-1.5208,-1.5548,-1.5865,-1.6278,-1.6689,-1.7057,-1.7375,-1.7668,-1.787,-1.8282,-1.8652,-1.8882,-1.9161,-1.9527,-1.9754,-1.9981,-2.0225,-2.0459,-2.0537,-2.0576,-2.0615,-2.0615,-2.0615,-2.0615,-2.0615,-2.0615,-2.0615,-2.0615,-2.0615,-2.0615,-2.0615,-2.0615,-2.0615,-2.0615,-2.0615,-2.0615,-2.0615,-2.0693,-0.721,-0.721,-0.721,-0.7086,-0.6989,-0.6847,-0.6728,-0.6624,-0.6491,-0.6387,-0.6387,-0.6387,-0.6387,-0.6387,-0.6387,-0.6387,-0.6387,-0.6387,-0.6387,-0.6387,-0.6437,-0.6589,-0.6842,-0.7126,-0.7282,-0.7427,-0.7591,-0.7874,-0.8208,-0.8548,-0.8903,-0.9345,-0.982,-1.0342,-1.0684,-1.1117,-1.1424,-1.1774,-1.2112,-1.2363,-1.24,-1.2577,-1.2662,-1.2705,-1.2747,-1.2747,-1.2747,-1.2966,-1.3094,-1.3094,-1.3264,-1.3398,-1.344,-1.361,-1.373,-1.3786,-1.3955,-1.4088,-1.4088,-1.4088,-1.4088,-1.4088,-1.4088,-1.4088,-1.4088,-1.4088,-1.4088,-1.4088,-1.4088,-1.4088,-1.4088,-1.4088,-1.4088,-1.4124,-1.4447,-1.4734,-1.4783,-1.5131,-1.5555,-1.5955,-1.6278,-1.6558,-1.6968,-1.7261,-1.7473,-1.7708,-1.8072,-1.8442,-1.8692,-1.8922,-1.9201,-1.9518,-1.9794,-2.0029,-2.0264,-2.0459,-2.0537,-2.0615,-2.0615,-2.0615,-2.0615,-2.0615,-2.0615,-2.0615,-2.0615,-2.0615,-2.0615,-2.0615,-2.0615,-2.0615,-2.0615,-2.0615,-2.0615,-2.0615,-2.0615,-0.721,-0.721,-0.721,-0.7191,-0.7076,-0.6888,-0.6777,-0.6722,-0.6529,-0.6389,-0.6387,-0.6387,-0.6387,-0.6387,-0.6387,-0.6387,-0.6387,-0.6387,-0.6387,-0.6387,-0.6387,-0.6539,-0.6795,-0.7089,-0.7318,-0.7529,-0.7646,-0.7784,-0.8059,-0.8376,-0.8811,-0.9301,-0.9777,-1.025,-1.0684,-1.0954,-1.1262,-1.1656,-1.1866,-1.2075,-1.2363,-1.2448,-1.2577,-1.2662,-1.2705,-1.2705,-1.2705,-1.279,-1.2833,-1.2839,-1.2875,-1.3009,-1.3222,-1.3519,-1.3688,-1.3737,-1.3955,-1.4088,-1.4088,-1.4088,-1.4088,-1.4088,-1.4088,-1.4088,-1.4088,-1.4088,-1.4088,-1.4088,-1.4088,-1.4088,-1.4088,-1.4088,-1.4088,-1.4088,-1.4454,-1.4692,-1.4776,-1.5124,-1.5506,-1.5782,-1.6038,-1.6327,-1.6599,-1.6927,-1.7261,-1.7514,-1.787,-1.8201,-1.8482,-1.8763,-1.9073,-1.935,-1.9597,-1.9833,-2.0108,-2.0303,-2.0459,-2.0537,-2.0566,-2.0615,-2.0615,-2.0615,-2.0615,-2.0615,-2.0615,-2.0615,-2.0615,-2.0615,-2.0615,-2.0615,-2.0615,-2.0615,-2.0615,-2.0615,-2.0615,-0.721,-0.721,-0.721,-0.721,-0.7182,-0.6902,-0.6804,-0.6763,-0.6489,-0.6389,-0.6387,-0.6387,-0.6387,-0.6387,-0.6387,-0.6387,-0.6387,-0.6387,-0.6387,-0.6387,-0.6387,-0.6489,-0.6692,-0.7039,-0.7278,-0.7505,-0.7619,-0.7787,-0.7994,-0.8232,-0.86,-0.9126,-0.9559,-0.9951,-1.0424,-1.0738,-1.1084,-1.1397,-1.1613,-1.1866,-1.2118,-1.232,-1.2448,-1.2577,-1.2662,-1.2705,-1.2705,-1.2705,-1.2705,-1.2705,-1.2705,-1.279,-1.2966,-1.3264,-1.3519,-1.3603,-1.3779,-1.3997,-1.4082,-1.4088,-1.4088,-1.4088,-1.4088,-1.4088,-1.4088,-1.4088,-1.4088,-1.4088,-1.4088,-1.4088,-1.4088,-1.4088,-1.4088,-1.4088,-1.4454,-1.4741,-1.495,-1.5215,-1.5465,-1.5707,-1.5955,-1.6162,-1.6443,-1.6804,-1.7098,-1.7302,-1.7627,-1.7959,-1.8273,-1.8612,-1.8922,-1.9201,-1.9478,-1.9715,-1.9951,-2.0147,-2.0342,-2.0459,-2.0527,-2.0566,-2.0615,-2.0615,-2.0615,-2.0615,-2.0615,-2.0615,-2.0615,-2.0615,-2.0615,-2.0615,-2.0615,-2.0615,-2.0615,-2.0615,-2.0615,-0.721,-0.721,-0.721,-0.721,-0.718,-0.6902,-0.6804,-0.6763,-0.6543,-0.6387,-0.6387,-0.6387,-0.6387,-0.6387,-0.6387,-0.6387,-0.6387,-0.6387,-0.6387,-0.6387,-0.6387,-0.6437,-0.6589,-0.6989,-0.7254,-0.7411,-0.7557,-0.7741,-0.8027,-0.7967,-0.8208,-0.8867,-0.9213,-0.9563,-1.0081,-1.0467,-1.0824,-1.1094,-1.144,-1.1656,-1.1785,-1.2112,-1.2363,-1.2406,-1.2577,-1.2705,-1.2705,-1.2705,-1.2705,-1.2705,-1.2705,-1.2705,-1.2747,-1.2966,-1.3222,-1.3392,-1.361,-1.3864,-1.4039,-1.4088,-1.4088,-1.4088,-1.4088,-1.4088,-1.4088,-1.4088,-1.4088,-1.4088,-1.4088,-1.4088,-1.4088,-1.4088,-1.413,-1.4173,-1.4496,-1.4873,-1.5298,-1.5389,-1.5465,-1.5658,-1.5906,-1.6162,-1.6319,-1.673,-1.6968,-1.718,-1.7465,-1.7749,-1.7991,-1.8353,-1.8723,-1.9002,-1.928,-1.9518,-1.9754,-1.9912,-2.0069,-2.0255,-2.0372,-2.0537,-2.0576,-2.0615,-2.0615,-2.0615,-2.0615,-2.0615,-2.0615,-2.0615,-2.0615,-2.0615,-2.0615,-2.0615,-2.0615,-2.0615,-2.0615,-0.721,-0.721,-0.721,-0.721,-0.7174,-0.6902,-0.6804,-0.6771,-0.654,-0.6387,-0.6387,-0.6387,-0.6387,-0.6387,-0.6387,-0.6387,-0.6387,-0.6387,-0.6387,-0.6387,-0.6387,-0.6539,-0.6742,-0.7036,-0.727,-0.7385,-0.7529,-0.7659,-0.7776,-0.7893,-0.816,-0.8684,-0.9082,-0.9524,-0.999,-1.0467,-1.0781,-1.1008,-1.1262,-1.1527,-1.1699,-1.1952,-1.2203,-1.2406,-1.2577,-1.2705,-1.2705,-1.2705,-1.2705,-1.2705,-1.2705,-1.2705,-1.2705,-1.2924,-1.3179,-1.3398,-1.361,-1.3822,-1.4039,-1.4088,-1.4088,-1.4088,-1.4088,-1.4088,-1.4088,-1.4088,-1.4088,-1.4088,-1.4088,-1.4088,-1.4088,-1.4088,-1.4166,-1.4321,-1.4531,-1.4824,-1.5131,-1.5305,-1.5431,-1.5506,-1.5665,-1.5906,-1.6154,-1.6443,-1.6722,-1.7057,-1.7302,-1.7546,-1.7789,-1.8152,-1.8523,-1.8732,-1.9002,-1.9289,-1.9527,-1.9676,-1.9833,-1.9981,-2.0177,-2.0459,-2.0537,-2.0615,-2.0615,-2.0615,-2.0615,-2.0615,-2.0615,-2.0615,-2.0615,-2.0615,-2.0615,-2.0615,-2.0615,-2.0615,-2.0615,-0.721,-0.721,-0.721,-0.721,-0.718,-0.6902,-0.6804,-0.6755,-0.6545,-0.6387,-0.6387,-0.6387,-0.6387,-0.6387,-0.6387,-0.6387,-0.6387,-0.6387,-0.6387,-0.6387,-0.6387,-0.6489,-0.6689,-0.6886,-0.7149,-0.7306,-0.7406,-0.7556,-0.776,-0.7882,-0.8124,-0.8508,-0.9038,-0.9432,-0.9689,-1.0255,-1.0646,-1.0868,-1.1089,-1.1311,-1.1527,-1.1742,-1.1909,-1.216,-1.2412,-1.2619,-1.2662,-1.2705,-1.2705,-1.2705,-1.2705,-1.2705,-1.2705,-1.2839,-1.3088,-1.3355,-1.3525,-1.3695,-1.3997,-1.4088,-1.4088,-1.4088,-1.4088,-1.4088,-1.4088,-1.4088,-1.4088,-1.4088,-1.4088,-1.4088,-1.4088,-1.4088,-1.4166,-1.4243,-1.4531,-1.4776,-1.5041,-1.5305,-1.5389,-1.5423,-1.5582,-1.5782,-1.6087,-1.6237,-1.6525,-1.6845,-1.7098,-1.7343,-1.7587,-1.7951,-1.8322,-1.8523,-1.8763,-1.9082,-1.932,-1.9439,-1.9645,-1.9794,-2.002,-2.0303,-2.0459,-2.0566,-2.0615,-2.0615,-2.0615,-2.0615,-2.0615,-2.0615,-2.0615,-2.0615,-2.0615,-2.0615,-2.0615,-2.0615,-2.0615,-0.721,-0.721,-0.721,-0.7202,-0.7155,-0.6899,-0.679,-0.6736,-0.6535,-0.6387,-0.6387,-0.6387,-0.6387,-0.6387,-0.6387,-0.6387,-0.6387,-0.6387,-0.6387,-0.6387,-0.6387,-0.6437,-0.6489,-0.6742,-0.6983,-0.7177,-0.72,-0.7466,-0.7731,-0.7874,-0.7996,-0.8288,-0.8903,-0.9257,-0.9476,-0.9951,-1.0381,-1.0689,-1.0916,-1.1138,-1.1354,-1.157,-1.1742,-1.1828,-1.224,-1.2491,-1.2619,-1.2662,-1.2705,-1.2705,-1.2705,-1.2705,-1.2705,-1.2705,-1.296,-1.3313,-1.344,-1.3616,-1.3997,-1.4088,-1.4088,-1.4088,-1.4088,-1.4088,-1.4088,-1.4088,-1.4088,-1.4088,-1.4088,-1.4088,-1.4088,-1.4088,-1.413,-1.4166,-1.4447,-1.4783,-1.5048,-1.5264,-1.5389,-1.5431,-1.5575,-1.579,-1.5997,-1.6245,-1.6435,-1.664,-1.6927,-1.718,-1.7424,-1.7749,-1.8031,-1.8313,-1.8603,-1.8882,-1.9082,-1.924,-1.9439,-1.9645,-1.9872,-2.0108,-2.0333,-2.045,-2.0566,-2.0615,-2.0615,-2.0615,-2.0615,-2.0615,-2.0615,-2.0615,-2.0615,-2.0615,-2.0615,-2.0615,-2.0615,-0.721,-0.721,-0.721,-0.7158,-0.7005,-0.6864,-0.6747,-0.6649,-0.6502,-0.6387,-0.6387,-0.6387,-0.6387,-0.6387,-0.6387,-0.6387,-0.6387,-0.6387,-0.6387,-0.6387,-0.6387,-0.6387,-0.6439,-0.6692,-0.6939,-0.7118,-0.7203,-0.7362,-0.7612,-0.7809,-0.79,-0.8072,-0.8644,-0.9087,-0.9345,-0.9777,-1.0294,-1.0646,-1.0873,-1.1051,-1.1267,-1.1527,-1.1656,-1.1742,-1.2118,-1.2369,-1.2497,-1.2619,-1.2705,-1.2705,-1.2705,-1.2705,-1.2705,-1.2705,-1.2918,-1.3264,-1.3398,-1.361,-1.3997,-1.4088,-1.4088,-1.4088,-1.4088,-1.4088,-1.4088,-1.4088,-1.4088,-1.4088,-1.4088,-1.4088,-1.4088,-1.4088,-1.4088,-1.4166,-1.4447,-1.4692,-1.4824,-1.5124,-1.5389,-1.5431,-1.5465,-1.5541,-1.579,-1.5997,-1.6237,-1.6476,-1.6722,-1.7049,-1.7302,-1.7546,-1.7789,-1.8072,-1.8322,-1.8603,-1.8843,-1.9042,-1.928,-1.9487,-1.9715,-1.9912,-2.0098,-2.0333,-2.0411,-2.0527,-2.0615,-2.0615,-2.0615,-2.0615,-2.0615,-2.0615,-2.0615,-2.0615,-2.0615,-2.0615,-2.0615,-0.7043,-0.7043,-0.6989,-0.6956,-0.6885,-0.6771,-0.6679,-0.6603,-0.6441,-0.6387,-0.6387,-0.6387,-0.6387,-0.6387,-0.6387,-0.6387,-0.6387,-0.6387,-0.6387,-0.6387,-0.6387,-0.6387,-0.6387,-0.6531,-0.6716,-0.6929,-0.699,-0.7155,-0.7356,-0.76,-0.7768,-0.7944,-0.8468,-0.8951,-0.9301,-0.9646,-1.0033,-1.0424,-1.0603,-1.0824,-1.1138,-1.1311,-1.1527,-1.1656,-1.1952,-1.216,-1.2406,-1.2485,-1.2619,-1.2662,-1.2705,-1.2705,-1.2705,-1.2705,-1.2918,-1.3307,-1.3398,-1.361,-1.3962,-1.4088,-1.4088,-1.4088,-1.4088,-1.4088,-1.4088,-1.4088,-1.4088,-1.4088,-1.4088,-1.4088,-1.4088,-1.4088,-1.4088,-1.4166,-1.437,-1.4566,-1.4734,-1.5124,-1.5389,-1.5389,-1.5431,-1.5506,-1.5707,-1.5873,-1.6072,-1.6345,-1.6476,-1.6763,-1.7098,-1.7343,-1.7546,-1.7789,-1.8031,-1.8322,-1.8563,-1.8803,-1.9082,-1.928,-1.9518,-1.9636,-1.9784,-2.0059,-2.0294,-2.0372,-2.0498,-2.0615,-2.0615,-2.0615,-2.0615,-2.0615,-2.0615,-2.0615,-2.0615,-2.0615,-2.0615,-0.6804,-0.6804,-0.6804,-0.6793,-0.676,-0.6665,-0.6611,-0.6573,-0.6433,-0.6387,-0.6387,-0.6387,-0.6387,-0.6387,-0.6387,-0.6387,-0.6387,-0.6387,-0.6387,-0.6387,-0.6387,-0.6387,-0.6384,-0.6454,-0.6484,-0.662,-0.6753,-0.6923,-0.7109,-0.7324,-0.7687,-0.7944,-0.8288,-0.8775,-0.917,-0.9476,-0.982,-1.0207,-1.0337,-1.0554,-1.0916,-1.1008,-1.1267,-1.1527,-1.1742,-1.1909,-1.2155,-1.2277,-1.2412,-1.2625,-1.2662,-1.2662,-1.2705,-1.2705,-1.2875,-1.3313,-1.3355,-1.3616,-1.3913,-1.4039,-1.4088,-1.4088,-1.4088,-1.4088,-1.4088,-1.4088,-1.4088,-1.4088,-1.4088,-1.4088,-1.4088,-1.4088,-1.4088,-1.4124,-1.4279,-1.4482,-1.4734,-1.5082,-1.5298,-1.5389,-1.5431,-1.5465,-1.5582,-1.5707,-1.5982,-1.618,-1.6312,-1.6517,-1.6804,-1.7139,-1.7343,-1.7505,-1.7708,-1.8,-1.8282,-1.8563,-1.8843,-1.9082,-1.928,-1.9399,-1.9548,-1.9745,-2.002,-2.0303,-2.042,-2.0498,-2.0576,-2.0615,-2.0615,-2.0615,-2.0615,-2.0615,-2.0615,-2.0615,-2.0615,-0.6804,-0.6804,-0.6804,-0.6744,-0.6654,-0.6624,-0.6508,-0.6422,-0.64,-0.6387,-0.6387,-0.6387,-0.6387,-0.6387,-0.6387,-0.6387,-0.6387,-0.6387,-0.6387,-0.6387,-0.6387,-0.6387,-0.6426,-0.635,-0.6292,-0.6331,-0.6549,-0.6802,-0.6992,-0.732,-0.7558,-0.7852,-0.8157,-0.8512,-0.8907,-0.9213,-0.9563,-0.9951,-1.0168,-1.0381,-1.0646,-1.0916,-1.1094,-1.1348,-1.1527,-1.1699,-1.1828,-1.1995,-1.2203,-1.2412,-1.2448,-1.2534,-1.2662,-1.2662,-1.2875,-1.3137,-1.3313,-1.3525,-1.3779,-1.3955,-1.4082,-1.4088,-1.4088,-1.4088,-1.4088,-1.4088,-1.4088,-1.4088,-1.4088,-1.4088,-1.4088,-1.4088,-1.4088,-1.4166,-1.4286,-1.444,-1.4692,-1.495,-1.5208,-1.5347,-1.5382,-1.5423,-1.5499,-1.5582,-1.5782,-1.5982,-1.6098,-1.6312,-1.6558,-1.6845,-1.7098,-1.7221,-1.7343,-1.7676,-1.8,-1.8282,-1.8563,-1.8843,-1.9033,-1.9152,-1.9311,-1.9508,-1.9754,-2.0029,-2.0264,-2.042,-2.0498,-2.0566,-2.0615,-2.0615,-2.0615,-2.0615,-2.0615,-2.0615,-2.0615,-0.6559,-0.6613,-0.6562,-0.653,-0.6481,-0.6473,-0.6494,-0.6392,-0.6387,-0.6387,-0.6387,-0.6387,-0.6387,-0.6387,-0.6387,-0.6387,-0.6387,-0.6387,-0.6387,-0.6387,-0.6387,-0.6387,-0.6418,-0.6317,-0.6203,-0.6242,-0.64,-0.6578,-0.6719,-0.6968,-0.7374,-0.768,-0.794,-0.8292,-0.8688,-0.8951,-0.9301,-0.9607,-0.9864,-1.0077,-1.0381,-1.0651,-1.0911,-1.1132,-1.1267,-1.144,-1.1699,-1.1785,-1.1952,-1.216,-1.2326,-1.2454,-1.2534,-1.2662,-1.2833,-1.3058,-1.3185,-1.3398,-1.3652,-1.3822,-1.3955,-1.4088,-1.4088,-1.4088,-1.4088,-1.4088,-1.4088,-1.4088,-1.4088,-1.4088,-1.4088,-1.4088,-1.4088,-1.413,-1.4208,-1.4321,-1.4524,-1.4783,-1.4999,-1.5215,-1.5298,-1.5382,-1.5423,-1.5499,-1.5582,-1.5741,-1.5899,-1.6098,-1.6304,-1.6558,-1.6812,-1.7057,-1.718,-1.7465,-1.7749,-1.804,-1.8282,-1.8594,-1.8834,-1.8953,-1.9112,-1.928,-1.9518,-1.9794,-2.0029,-2.0264,-2.0411,-2.0489,-2.0527,-2.0615,-2.0615,-2.0615,-2.0615,-2.0615,-2.0615,-0.6387,-0.6387,-0.6387,-0.6387,-0.6387,-0.6387,-0.6389,-0.6387,-0.6387,-0.6387,-0.6387,-0.6387,-0.6387,-0.6387,-0.6387,-0.6387,-0.6387,-0.6387,-0.6387,-0.6387,-0.6384,-0.6431,-0.6372,-0.6282,-0.6154,-0.607,-0.6107,-0.6229,-0.6471,-0.6707,-0.7064,-0.7462,-0.7771,-0.8072,-0.846,-0.8732,-0.8995,-0.9213,-0.9428,-0.9689,-1.0038,-1.0386,-1.0733,-1.0916,-1.0921,-1.1132,-1.144,-1.1527,-1.1656,-1.1909,-1.2118,-1.224,-1.232,-1.2534,-1.2753,-1.2924,-1.3009,-1.3307,-1.3476,-1.3646,-1.3737,-1.387,-1.3962,-1.3955,-1.4039,-1.4039,-1.4088,-1.4088,-1.4088,-1.4088,-1.4088,-1.4088,-1.4088,-1.4088,-1.413,-1.4173,-1.4405,-1.4608,-1.4824,-1.5041,-1.5222,-1.5347,-1.5382,-1.5423,-1.5506,-1.5575,-1.5733,-1.5858,-1.6064,-1.6237,-1.6533,-1.6853,-1.7098,-1.7302,-1.7546,-1.7749,-1.8031,-1.8273,-1.8563,-1.8763,-1.8922,-1.9082,-1.932,-1.9557,-1.9803,-2.0029,-2.0225,-2.045,-2.0527,-2.0615,-2.0615,-2.0615,-2.0615,-2.0615,-2.0615,-0.6387,-0.6387,-0.6387,-0.6387,-0.6387,-0.6387,-0.6387,-0.6387,-0.6387,-0.6387,-0.6387,-0.6387,-0.6387,-0.6387,-0.6387,-0.6387,-0.6387,-0.6387,-0.6387,-0.6387,-0.6373,-0.6374,-0.6285,-0.6165,-0.6056,-0.5942,-0.587,-0.6019,-0.6346,-0.6656,-0.7017,-0.7374,-0.7551,-0.7768,-0.8201,-0.8508,-0.8727,-0.8951,-0.9213,-0.9515,-0.9907,-1.0212,-1.0467,-1.0646,-1.0733,-1.0868,-1.1094,-1.1132,-1.1311,-1.1656,-1.1742,-1.1871,-1.2043,-1.2326,-1.2406,-1.2577,-1.2839,-1.3143,-1.3228,-1.3349,-1.3476,-1.3568,-1.3532,-1.3603,-1.3737,-1.3906,-1.3997,-1.4088,-1.4088,-1.4039,-1.4039,-1.4088,-1.4088,-1.4088,-1.4088,-1.4208,-1.4363,-1.444,-1.465,-1.4873,-1.509,-1.5264,-1.5347,-1.5389,-1.5431,-1.5499,-1.5575,-1.5699,-1.5865,-1.6079,-1.6203,-1.6533,-1.6812,-1.7049,-1.7261,-1.7465,-1.7749,-1.8031,-1.8233,-1.8523,-1.8723,-1.8882,-1.9073,-1.935,-1.9597,-1.9843,-2.0069,-2.0294,-2.0489,-2.0615,-2.0615,-2.0615,-2.0615,-2.0615,-2.0615,-0.6387,-0.6387,-0.6387,-0.6387,-0.6387,-0.6387,-0.6387,-0.6387,-0.6387,-0.6387,-0.6387,-0.6387,-0.6387,-0.6387,-0.6387,-0.6387,-0.6387,-0.6387,-0.6387,-0.641,-0.6374,-0.6317,-0.6233,-0.6083,-0.5939,-0.5888,-0.5801,-0.5877,-0.6213,-0.6479,-0.6745,-0.7105,-0.7374,-0.7595,-0.7896,-0.8201,-0.8372,-0.8596,-0.8867,-0.9257,-0.9559,-0.9816,-1.0033,-1.0299,-1.0429,-1.0603,-1.0781,-1.0824,-1.0959,-1.1305,-1.1386,-1.1602,-1.1823,-1.2032,-1.2155,-1.2203,-1.2332,-1.2674,-1.3052,-1.3185,-1.327,-1.3355,-1.3398,-1.3476,-1.3525,-1.361,-1.3695,-1.3701,-1.3828,-1.3864,-1.3906,-1.4039,-1.4088,-1.4088,-1.4088,-1.4124,-1.4243,-1.4356,-1.4517,-1.4741,-1.4922,-1.509,-1.5222,-1.5347,-1.5389,-1.5431,-1.5499,-1.5582,-1.5748,-1.5997,-1.6121,-1.6245,-1.6484,-1.6722,-1.6927,-1.7139,-1.7456,-1.77,-1.7861,-1.8152,-1.8523,-1.8723,-1.8913,-1.9152,-1.9439,-1.9676,-1.9912,-2.0186,-2.0381,-2.0498,-2.0615,-2.0576,-2.0566,-2.0615,-2.0615,-0.6387,-0.6387,-0.6387,-0.6387,-0.6387,-0.6387,-0.6387,-0.6387,-0.6387,-0.6387,-0.6387,-0.6387,-0.6387,-0.6387,-0.6387,-0.6387,-0.6387,-0.6387,-0.6415,-0.6369,-0.6309,-0.6284,-0.6127,-0.5975,-0.5893,-0.586,-0.5734,-0.5824,-0.5997,-0.6302,-0.6564,-0.6792,-0.7194,-0.7415,-0.7595,-0.7808,-0.8069,-0.8285,-0.864,-0.8947,-0.9213,-0.9432,-0.9646,-0.982,-1.0038,-1.025,-1.0472,-1.0598,-1.0694,-1.0911,-1.1079,-1.1208,-1.1392,-1.1645,-1.1768,-1.186,-1.1989,-1.2246,-1.2625,-1.2839,-1.3052,-1.3179,-1.3313,-1.3307,-1.3307,-1.3355,-1.3398,-1.344,-1.3525,-1.361,-1.3695,-1.387,-1.3913,-1.3997,-1.4046,-1.4088,-1.4124,-1.4243,-1.4356,-1.4524,-1.4741,-1.4922,-1.509,-1.5215,-1.5347,-1.5389,-1.5431,-1.5506,-1.5631,-1.5831,-1.5914,-1.5997,-1.6203,-1.6443,-1.664,-1.6845,-1.7172,-1.7416,-1.7578,-1.7821,-1.8233,-1.8523,-1.8723,-1.9002,-1.9244,-1.9478,-1.9715,-1.999,-2.0264,-2.0381,-2.0459,-2.0527,-2.0566,-2.0547,-2.0566,-0.6387,-0.6387,-0.6387,-0.6387,-0.6387,-0.6387,-0.6387,-0.6387,-0.6387,-0.6387,-0.6387,-0.6387,-0.6387,-0.6387,-0.6387,-0.6387,-0.6387,-0.6387,-0.6374,-0.6312,-0.6255,-0.6127,-0.601,-0.5915,-0.5844,-0.5773,-0.5694,-0.5735,-0.5822,-0.6169,-0.6479,-0.6792,-0.7058,-0.7279,-0.7459,-0.7591,-0.7852,-0.8113,-0.846,-0.8684,-0.8907,-0.9126,-0.9345,-0.9393,-0.9563,-0.9777,-1.0038,-1.0207,-1.0424,-1.0646,-1.0727,-1.0814,-1.0992,-1.1208,-1.1375,-1.1419,-1.1602,-1.186,-1.2112,-1.2369,-1.254,-1.2753,-1.2924,-1.3015,-1.2966,-1.3264,-1.3349,-1.3313,-1.3349,-1.3434,-1.3476,-1.3568,-1.3737,-1.3786,-1.3877,-1.4004,-1.4046,-1.413,-1.4243,-1.4356,-1.4524,-1.4699,-1.4873,-1.4999,-1.5264,-1.5347,-1.5389,-1.5472,-1.5465,-1.5624,-1.5699,-1.5782,-1.6004,-1.6203,-1.6402,-1.664,-1.6894,-1.7172,-1.7375,-1.7619,-1.7991,-1.8224,-1.8391,-1.8642,-1.8825,-1.917,-1.9404,-1.9453,-1.9629,-2.009,-2.0304,-2.0149,-2.0168,-2.0138,-2.0245,-0.6239,-0.6387,-0.6387,-0.6387,-0.6387,-0.6387,-0.6387,-0.6387,-0.6387,-0.6387,-0.6387,-0.6387,-0.6387,-0.6387,-0.6387,-0.6387,-0.6426,-0.6355,-0.6306,-0.6222,-0.6121,-0.5999,-0.589,-0.5831,-0.5726,-0.5696,-0.5688,-0.5688,-0.5777,-0.608,-0.6299,-0.6564,-0.6922,-0.7098,-0.7231,-0.7415,-0.768,-0.794,-0.8201,-0.8376,-0.8508,-0.8863,-0.9043,-0.9087,-0.9305,-0.9432,-0.9563,-0.9777,-0.9994,-1.0212,-1.0381,-1.0467,-1.0598,-1.0814,-1.0901,-1.0939,-1.1165,-1.1338,-1.1639,-1.1903,-1.216,-1.2246,-1.2338,-1.2466,-1.2503,-1.2668,-1.2747,-1.2839,-1.3052,-1.3179,-1.3222,-1.3398,-1.3525,-1.3568,-1.3701,-1.3828,-1.3913,-1.3997,-1.4124,-1.4237,-1.4356,-1.4524,-1.465,-1.4783,-1.509,-1.5347,-1.5389,-1.5431,-1.5431,-1.5465,-1.5541,-1.5575,-1.5756,-1.5873,-1.6064,-1.6319,-1.6607,-1.6821,-1.709,-1.7276,-1.7491,-1.7723,-1.7865,-1.814,-1.8294,-1.8445,-1.8565,-1.8662,-1.9012,-1.961,-1.9736,-1.9602,-1.9639,-1.9695,-1.9819,-0.6139,-0.6287,-0.6387,-0.6387,-0.6387,-0.6387,-0.6387,-0.6387,-0.6387,-0.6387,-0.6387,-0.6387,-0.6387,-0.6431,-0.6393,-0.6385,-0.6344,-0.6268,-0.6246,-0.6108,-0.5996,-0.589,-0.5833,-0.5787,-0.5699,-0.5688,-0.5688,-0.5688,-0.5733,-0.5997,-0.6213,-0.6476,-0.6786,-0.6966,-0.7143,-0.7279,-0.7503,-0.7764,-0.7896,-0.8072,-0.816,-0.8468,-0.8692,-0.8736,-0.8999,-0.9174,-0.9257,-0.9432,-0.9607,-0.9777,-0.9907,-1.0081,-1.0255,-1.0386,-1.0472,-1.0516,-1.0641,-1.0814,-1.116,-1.1639,-1.1952,-1.2037,-1.2037,-1.2043,-1.2037,-1.216,-1.2332,-1.2369,-1.2625,-1.2881,-1.2924,-1.3094,-1.3264,-1.3355,-1.3525,-1.3659,-1.3786,-1.387,-1.3997,-1.4124,-1.4243,-1.4321,-1.4517,-1.465,-1.4915,-1.5173,-1.5347,-1.5389,-1.5431,-1.5431,-1.5431,-1.5465,-1.5548,-1.5616,-1.5733,-1.5966,-1.6175,-1.6233,-1.6484,-1.6693,-1.689,-1.7064,-1.7265,-1.7501,-1.7608,-1.7632,-1.7837,-1.8133,-1.8636,-1.9211,-1.9174,-1.907,-1.9126,-1.9217,-1.9224,-0.5992,-0.6042,-0.6287,-0.6387,-0.6387,-0.6387,-0.6387,-0.6387,-0.6387,-0.6387,-0.6384,-0.6381,-0.6371,-0.6349,-0.6317,-0.6274,-0.6241,-0.6143,-0.6048,-0.5958,-0.5907,-0.5831,-0.5737,-0.5694,-0.5688,-0.5688,-0.5688,-0.5688,-0.5688,-0.5908,-0.6169,-0.639,-0.6704,-0.6925,-0.7095,-0.7095,-0.7279,-0.7459,-0.7547,-0.7724,-0.79,-0.816,-0.8248,-0.838,-0.8644,-0.8863,-0.8907,-0.913,-0.9305,-0.9388,-0.9432,-0.9519,-0.9563,-0.9864,-0.9994,-1.0038,-1.0386,-1.0598,-1.0727,-1.1516,-1.178,-1.178,-1.1693,-1.178,-1.1909,-1.1995,-1.1995,-1.2032,-1.2283,-1.2412,-1.2583,-1.2796,-1.2966,-1.3094,-1.327,-1.344,-1.3568,-1.3737,-1.3864,-1.3997,-1.4082,-1.4159,-1.4356,-1.4559,-1.4783,-1.5041,-1.5257,-1.5347,-1.5305,-1.5305,-1.5257,-1.5347,-1.5374,-1.5362,-1.5471,-1.5632,-1.5771,-1.5769,-1.588,-1.6079,-1.6202,-1.6333,-1.6556,-1.6826,-1.6934,-1.6956,-1.7328,-1.771,-1.8007,-1.8286,-1.8592,-1.8636,-1.8654,-1.8605,-1.8581,-0.5691,-0.5992,-0.6092,-0.6237,-0.6387,-0.6387,-0.6387,-0.6387,-0.6387,-0.6387,-0.6368,-0.6363,-0.6325,-0.629,-0.6211,-0.6146,-0.6124,-0.6024,-0.5918,-0.5899,-0.5836,-0.5734,-0.5694,-0.5688,-0.5688,-0.5688,-0.5688,-0.5688,-0.5688,-0.5822,-0.5997,-0.6216,-0.6615,-0.6881,-0.7054,-0.7095,-0.7187,-0.7279,-0.737,-0.7551,-0.7683,-0.7852,-0.7981,-0.7981,-0.8292,-0.8468,-0.8468,-0.8823,-0.8955,-0.9038,-0.9082,-0.9213,-0.9262,-0.9519,-0.9563,-0.9563,-0.9777,-0.9907,-1.0207,-1.0776,-1.1117,-1.1165,-1.1208,-1.13,-1.1305,-1.1472,-1.1602,-1.178,-1.1946,-1.2075,-1.2209,-1.2454,-1.2619,-1.2711,-1.2881,-1.3143,-1.3313,-1.3568,-1.3779,-1.3864,-1.3955,-1.4082,-1.4243,-1.4356,-1.4573,-1.4657,-1.4831,-1.4957,-1.4957,-1.4957,-1.4915,-1.509,-1.5186,-1.5187,-1.5196,-1.5246,-1.5197,-1.5174,-1.5318,-1.5522,-1.5627,-1.5624,-1.5897,-1.6162,-1.6272,-1.6363,-1.6702,-1.7017,-1.7027,-1.7241,-1.7685,-1.7911,-1.787,-1.7828,-1.7722,-0.5391,-0.5737,-0.5802,-0.5983,-0.6234,-0.6318,-0.6387,-0.6379,-0.6346,-0.6377,-0.6352,-0.6257,-0.6206,-0.6168,-0.6086,-0.6021,-0.601,-0.5901,-0.5844,-0.5833,-0.5731,-0.5699,-0.5691,-0.5688,-0.5688,-0.5688,-0.5688,-0.5688,-0.5688,-0.5688,-0.5908,-0.626,-0.6615,-0.6881,-0.7054,-0.7095,-0.7095,-0.7187,-0.7279,-0.7323,-0.7411,-0.7588,-0.7768,-0.7808,-0.7984,-0.8116,-0.8204,-0.838,-0.8604,-0.8688,-0.8819,-0.8995,-0.9043,-0.913,-0.917,-0.9174,-0.9305,-0.9476,-0.9777,-0.9951,-1.0212,-1.0342,-1.0511,-1.0733,-1.0873,-1.1035,-1.1165,-1.1343,-1.1607,-1.1731,-1.1817,-1.2063,-1.2283,-1.2369,-1.2583,-1.2839,-1.3143,-1.3392,-1.3603,-1.3695,-1.3822,-1.3955,-1.4088,-1.4159,-1.4321,-1.4363,-1.4405,-1.451,-1.4622,-1.4615,-1.4594,-1.4704,-1.4785,-1.4758,-1.4735,-1.4754,-1.4675,-1.4558,-1.4705,-1.4927,-1.4893,-1.4891,-1.5198,-1.5511,-1.573,-1.5915,-1.6113,-1.6316,-1.6519,-1.673,-1.7006,-1.7136,-1.7081,-1.7141,-1.721,-0.5181,-0.5216,-0.538,-0.5628,-0.5935,-0.6207,-0.6357,-0.6407,-0.6306,-0.6314,-0.63,-0.6132,-0.6081,-0.6053,-0.5953,-0.5901,-0.5888,-0.579,-0.5765,-0.5707,-0.5696,-0.5688,-0.5688,-0.5688,-0.5688,-0.5688,-0.5688,-0.5688,-0.5688,-0.5688,-0.5952,-0.6302,-0.6571,-0.6836,-0.6966,-0.7095,-0.7095,-0.7139,-0.7139,-0.7187,-0.7231,-0.7367,-0.7455,-0.7547,-0.7724,-0.7856,-0.79,-0.7984,-0.8116,-0.8201,-0.8245,-0.8384,-0.856,-0.8736,-0.8823,-0.8955,-0.913,-0.9262,-0.9345,-0.9432,-0.9515,-0.9777,-1.0212,-1.0516,-1.0684,-1.0684,-1.0819,-1.0949,-1.1165,-1.1246,-1.137,-1.172,-1.2026,-1.2198,-1.2363,-1.2625,-1.2924,-1.3179,-1.3349,-1.3483,-1.3652,-1.3828,-1.4046,-1.4166,-1.4147,-1.4073,-1.4081,-1.4103,-1.4227,-1.4386,-1.4331,-1.4184,-1.4249,-1.4231,-1.4223,-1.423,-1.4144,-1.4011,-1.4073,-1.4216,-1.4168,-1.4317,-1.4647,-1.5009,-1.5279,-1.5532,-1.5815,-1.6026,-1.6211,-1.6421,-1.6641,-1.6833,-1.6968,-1.6968,-1.7047,-0.489,-0.5074,-0.5145,-0.5277,-0.5568,-0.5784,-0.5992,-0.6179,-0.6149,-0.6138,-0.613,-0.601,-0.5958,-0.5942,-0.5836,-0.5795,-0.5771,-0.5752,-0.5699,-0.5688,-0.5688,-0.5688,-0.5688,-0.5688,-0.5688,-0.5688,-0.5688,-0.5688,-0.5688,-0.5688,-0.5866,-0.6171,-0.6435,-0.6656,-0.6877,-0.701,-0.7095,-0.7095,-0.7095,-0.7095,-0.7095,-0.7231,-0.7231,-0.7323,-0.7503,-0.7591,-0.7635,-0.7768,-0.7896,-0.7984,-0.7984,-0.8076,-0.8076,-0.8292,-0.842,-0.8696,-0.8872,-0.8999,-0.9043,-0.9218,-0.9301,-0.934,-0.965,-0.9951,-1.0207,-1.0381,-1.0467,-1.0598,-1.0727,-1.0895,-1.103,-1.1338,-1.1645,-1.1854,-1.2063,-1.2363,-1.2662,-1.2924,-1.3094,-1.3313,-1.3483,-1.3779,-1.3997,-1.4021,-1.3996,-1.3841,-1.3741,-1.3777,-1.3797,-1.394,-1.3947,-1.3787,-1.371,-1.3699,-1.3649,-1.3648,-1.357,-1.3496,-1.3593,-1.3726,-1.3858,-1.4002,-1.4225,-1.4569,-1.4963,-1.5284,-1.5576,-1.578,-1.5991,-1.6193,-1.6438,-1.6665,-1.683,-1.6874,-1.6908,-0.4668,-0.48,-0.4763,-0.4915,-0.5162,-0.5339,-0.5522,-0.5673,-0.5895,-0.6013,-0.5999,-0.589,-0.5836,-0.5783,-0.5726,-0.5696,-0.5696,-0.5694,-0.5688,-0.5688,-0.5688,-0.5688,-0.5688,-0.5688,-0.5688,-0.5688,-0.5688,-0.5688,-0.5688,-0.5733,-0.5819,-0.6083,-0.6299,-0.6523,-0.6789,-0.6969,-0.7095,-0.7095,-0.7095,-0.7095,-0.7095,-0.7095,-0.7095,-0.7139,-0.7279,-0.7323,-0.7367,-0.7588,-0.7632,-0.7724,-0.7768,-0.7812,-0.79,-0.8113,-0.8245,-0.8472,-0.8652,-0.874,-0.8823,-0.8915,-0.9043,-0.9122,-0.9113,-0.9432,-0.9689,-0.9946,-1.0033,-1.0168,-1.0381,-1.0598,-1.0776,-1.0954,-1.1214,-1.1516,-1.1768,-1.2057,-1.2363,-1.2668,-1.2881,-1.3137,-1.3392,-1.3688,-1.3831,-1.3884,-1.3868,-1.3728,-1.352,-1.3353,-1.3386,-1.3433,-1.3419,-1.3262,-1.3219,-1.3222,-1.3165,-1.3147,-1.3147,-1.3153,-1.3278,-1.344,-1.3572,-1.379,-1.4072,-1.4425,-1.4776,-1.507,-1.5319,-1.5532,-1.5744,-1.5991,-1.6193,-1.6377,-1.6621,-1.6804,-1.6839,-0.4549,-0.4536,-0.4413,-0.452,-0.467,-0.4893,-0.4982,-0.5065,-0.5574,-0.5842,-0.5823,-0.5739,-0.5702,-0.5712,-0.5691,-0.5688,-0.5688,-0.5688,-0.5688,-0.5688,-0.5688,-0.5688,-0.5688,-0.5688,-0.5688,-0.5688,-0.5688,-0.5688,-0.5688,-0.5733,-0.5819,-0.6083,-0.6254,-0.6476,-0.67,-0.6925,-0.7054,-0.7095,-0.7095,-0.7095,-0.7095,-0.7095,-0.7095,-0.7095,-0.7139,-0.7139,-0.7139,-0.7187,-0.7187,-0.737,-0.7503,-0.7588,-0.7808,-0.7943,-0.8078,-0.8134,-0.8285,-0.8348,-0.8383,-0.8469,-0.8581,-0.8727,-0.8821,-0.8927,-0.9095,-0.9522,-0.9728,-0.982,-0.9994,-1.0207,-1.0386,-1.0598,-1.0857,-1.116,-1.1456,-1.1714,-1.1972,-1.2303,-1.2656,-1.285,-1.3077,-1.3358,-1.3472,-1.3503,-1.3439,-1.3433,-1.3327,-1.3085,-1.2946,-1.2986,-1.2958,-1.2842,-1.2826,-1.2797,-1.2757,-1.2753,-1.2785,-1.287,-1.301,-1.3193,-1.3346,-1.3645,-1.3971,-1.4253,-1.4497,-1.4776,-1.5026,-1.5248,-1.547,-1.5753,-1.5956,-1.6096,-1.6342,-1.6586,-1.6726,-0.4097,-0.4095,-0.4252,-0.4363,-0.4435,-0.4659,-0.4748,-0.4792,-0.5079,-0.5323,-0.5497,-0.5523,-0.5552,-0.5644,-0.5688,-0.5688,-0.5688,-0.5688,-0.5688,-0.5688,-0.5688,-0.5688,-0.5688,-0.5688,-0.5688,-0.5688,-0.5688,-0.5688,-0.5688,-0.5688,-0.5733,-0.5822,-0.6038,-0.6346,-0.6564,-0.6789,-0.6969,-0.7095,-0.7095,-0.7095,-0.7095,-0.7095,-0.7095,-0.7095,-0.7095,-0.7095,-0.7095,-0.7088,-0.7136,-0.7187,-0.7187,-0.7319,-0.7544,-0.7559,-0.763,-0.7729,-0.7785,-0.7885,-0.7958,-0.8004,-0.8092,-0.8144,-0.8216,-0.828,-0.851,-0.903,-0.9371,-0.9414,-0.9607,-0.982,-1.0033,-1.025,-1.0506,-1.0809,-1.1063,-1.1322,-1.1569,-1.194,-1.233,-1.2589,-1.276,-1.2937,-1.3048,-1.306,-1.3035,-1.2988,-1.2959,-1.2811,-1.2592,-1.2559,-1.2605,-1.2536,-1.2452,-1.2415,-1.2415,-1.2452,-1.2526,-1.2599,-1.2753,-1.2936,-1.3163,-1.3455,-1.379,-1.3971,-1.4217,-1.4497,-1.4713,-1.49,-1.515,-1.5434,-1.5718,-1.5885,-1.6061,-1.6307,-1.6473,-0.3765,-0.3765,-0.4036,-0.4123,-0.4168,-0.4435,-0.4525,-0.4569,-0.4654,-0.4835,-0.506,-0.5193,-0.5282,-0.5419,-0.5508,-0.5552,-0.5555,-0.5688,-0.5688,-0.5688,-0.5688,-0.5688,-0.5688,-0.5688,-0.5688,-0.5688,-0.5688,-0.5688,-0.5688,-0.5688,-0.5733,-0.5733,-0.5949,-0.6213,-0.6387,-0.6656,-0.6881,-0.7095,-0.7095,-0.7088,-0.7088,-0.7095,-0.7095,-0.7095,-0.7095,-0.7088,-0.7068,-0.7048,-0.7004,-0.6967,-0.697,-0.6975,-0.7126,-0.72,-0.7291,-0.735,-0.7427,-0.7447,-0.7522,-0.7551,-0.7585,-0.77,-0.772,-0.7808,-0.794,-0.8421,-0.8717,-0.8828,-0.9314,-0.9602,-0.9646,-0.9864,-1.0077,-1.0337,-1.0616,-1.0859,-1.1186,-1.1541,-1.1816,-1.2028,-1.2266,-1.2485,-1.2588,-1.2746,-1.2694,-1.2718,-1.2656,-1.2585,-1.2392,-1.2305,-1.2305,-1.2305,-1.2305,-1.2305,-1.2342,-1.2342,-1.2372,-1.2452,-1.2532,-1.2826,-1.3083,-1.3346,-1.3572,-1.379,-1.3971,-1.4181,-1.4433,-1.4613,-1.4828,-1.5114,-1.5434,-1.5682,-1.585,-1.6026,-1.6193,-0.354,-0.3631,-0.381,-0.3857,-0.3901,-0.4123,-0.4208,-0.4255,-0.4257,-0.4389,-0.4659,-0.4835,-0.4921,-0.5099,-0.5235,-0.5282,-0.5416,-0.5552,-0.5599,-0.5644,-0.5688,-0.5688,-0.5688,-0.5688,-0.5688,-0.5688,-0.5688,-0.5688,-0.5688,-0.5688,-0.5733,-0.5774,-0.5908,-0.6124,-0.6387,-0.6612,-0.6789,-0.6953,-0.7027,-0.7058,-0.7071,-0.7085,-0.7075,-0.7075,-0.7068,-0.7061,-0.7004,-0.6943,-0.6866,-0.6825,-0.6807,-0.678,-0.6816,-0.6916,-0.6967,-0.7024,-0.7059,-0.7123,-0.7215,-0.7237,-0.7293,-0.7315,-0.7349,-0.7431,-0.7542,-0.772,-0.8006,-0.8363,-0.8841,-0.9161,-0.9247,-0.9381,-0.9597,-0.9847,-1.0124,-1.0399,-1.0742,-1.1089,-1.13,-1.1508,-1.1712,-1.1951,-1.212,-1.228,-1.2363,-1.2355,-1.2377,-1.23,-1.2268,-1.2305,-1.2305,-1.2305,-1.2305,-1.2305,-1.2305,-1.2305,-1.2342,-1.2335,-1.2489,-1.2746,-1.301,-1.32,-1.339,-1.3608,-1.379,-1.4008,-1.4217,-1.4433,-1.4649,-1.4828,-1.5078,-1.5399,-1.5647,-1.5815,-1.5991,-0.327,-0.3587,-0.3631,-0.3631,-0.3676,-0.3721,-0.381,-0.3946,-0.3989,-0.4123,-0.4302,-0.4433,-0.461,-0.501,-0.5055,-0.5102,-0.5146,-0.5327,-0.5419,-0.5463,-0.5599,-0.5644,-0.5688,-0.5688,-0.5688,-0.5688,-0.5688,-0.5688,-0.5688,-0.5688,-0.5688,-0.5733,-0.5733,-0.5908,-0.6169,-0.6384,-0.6587,-0.6784,-0.688,-0.6923,-0.696,-0.698,-0.7004,-0.6977,-0.6923,-0.6846,-0.6814,-0.6763,-0.6746,-0.6732,-0.6702,-0.6671,-0.6668,-0.6647,-0.669,-0.6662,-0.6694,-0.6734,-0.6774,-0.681,-0.6857,-0.6957,-0.7004,-0.7032,-0.7134,-0.7209,-0.7467,-0.7668,-0.8139,-0.8509,-0.866,-0.8807,-0.9062,-0.934,-0.9566,-0.9965,-1.031,-1.0554,-1.0776,-1.0948,-1.1138,-1.1278,-1.1423,-1.1614,-1.1803,-1.1865,-1.2052,-1.204,-1.212,-1.2194,-1.2268,-1.2305,-1.2305,-1.2305,-1.2305,-1.2305,-1.2305,-1.2305,-1.2372,-1.2599,-1.2826,-1.3046,-1.3236,-1.3419,-1.3608,-1.3826,-1.4036,-1.4217,-1.4433,-1.4649,-1.4828,-1.5078,-1.5355,-1.5568,-1.5744]}]]